Wetterdaten: Samstag, 11.02.2023
Datum Zeit Temp. 2m Temp +5 cm Feuchte A. Luftdruck Regen Wind Richtung Richtung Sonnenschein UV Solar Taupunkt Windchill Windben
11.02.2023 00:00 2,1 C 1,7 C 87 % 1038,9 hPa 0,0 l/m 11,3 km/h (2 Bft) S 180 0 min 0,0 UV-I 0 W/m 0,2 C -2,1 C 16,1 km/h (3 Bft)
11.02.2023 00:01 2,1 C 1,7 C 87 % 1039,0 hPa 0,0 l/m 11,3 km/h (2 Bft) S-SW 202 0 min 0,0 UV-I 0 W/m 0,2 C -2,1 C 14,5 km/h (3 Bft)
11.02.2023 00:02 2,1 C 1,7 C 87 % 1038,9 hPa 0,0 l/m 9,7 km/h (2 Bft) S-SW 202 0 min 0,0 UV-I 0 W/m 0,2 C -0,9 C 14,5 km/h (3 Bft)
11.02.2023 00:03 2,1 C 1,7 C 87 % 1038,9 hPa 0,0 l/m 9,7 km/h (2 Bft) S-SW 202 0 min 0,0 UV-I 0 W/m 0,2 C -0,9 C 14,5 km/h (3 Bft)
11.02.2023 00:04 2,1 C 1,7 C 87 % 1038,9 hPa 0,0 l/m 8,0 km/h (2 Bft) S 180 0 min 0,0 UV-I 0 W/m 0,2 C 0,6 C 11,3 km/h (2 Bft)
11.02.2023 00:05 2,1 C 1,7 C 87 % 1038,8 hPa 0,0 l/m 8,0 km/h (2 Bft) S 180 0 min 0,0 UV-I 0 W/m 0,2 C 0,6 C 11,3 km/h (2 Bft)
11.02.2023 00:06 2,1 C 1,7 C 87 % 1038,9 hPa 0,0 l/m 9,7 km/h (2 Bft) S 180 0 min 0,0 UV-I 0 W/m 0,2 C -0,9 C 14,5 km/h (3 Bft)
11.02.2023 00:07 2,1 C 1,7 C 87 % 1038,8 hPa 0,0 l/m 9,7 km/h (2 Bft) S-SW 202 0 min 0,0 UV-I 0 W/m 0,2 C -0,9 C 14,5 km/h (3 Bft)
11.02.2023 00:08 2,1 C 1,7 C 87 % 1038,8 hPa 0,0 l/m 12,9 km/h (3 Bft) S 180 0 min 0,0 UV-I 0 W/m 0,2 C -3,2 C 16,1 km/h (3 Bft)
11.02.2023 00:09 2,1 C 1,7 C 87 % 1038,9 hPa 0,0 l/m 12,9 km/h (3 Bft) S 180 0 min 0,0 UV-I 0 W/m 0,2 C -3,2 C 19,3 km/h (3 Bft)
11.02.2023 00:10 2,1 C 1,7 C 87 % 1038,8 hPa 0,0 l/m 11,3 km/h (2 Bft) S 180 0 min 0,0 UV-I 0 W/m 0,2 C -2,1 C 16,1 km/h (3 Bft)
11.02.2023 00:11 2,1 C 1,7 C 87 % 1038,9 hPa 0,0 l/m 9,7 km/h (2 Bft) S-SW 202 0 min 0,0 UV-I 0 W/m 0,2 C -0,9 C 12,9 km/h (3 Bft)
11.02.2023 00:12 2,1 C 1,7 C 87 % 1038,9 hPa 0,0 l/m 9,7 km/h (2 Bft) S-SW 202 0 min 0,0 UV-I 0 W/m 0,2 C -0,9 C 12,9 km/h (3 Bft)
11.02.2023 00:13 2,1 C 1,7 C 87 % 1038,8 hPa 0,0 l/m 6,4 km/h (2 Bft) S 180 0 min 0,0 UV-I 0 W/m 0,2 C 2,1 C 11,3 km/h (2 Bft)
11.02.2023 00:14 2,1 C 1,7 C 87 % 1038,8 hPa 0,0 l/m 8,0 km/h (2 Bft) S 180 0 min 0,0 UV-I 0 W/m 0,2 C 0,6 C 11,3 km/h (2 Bft)
11.02.2023 00:15 2,1 C 1,7 C 87 % 1038,8 hPa 0,0 l/m 4,8 km/h (1 Bft) S-SW 202 0 min 0,0 UV-I 0 W/m 0,2 C 2,1 C 8,0 km/h (2 Bft)
11.02.2023 00:16 2,1 C 1,7 C 87 % 1038,8 hPa 0,0 l/m 4,8 km/h (1 Bft) S-SW 202 0 min 0,0 UV-I 0 W/m 0,2 C 2,1 C 8,0 km/h (2 Bft)
11.02.2023 00:17 2,1 C 1,7 C 87 % 1038,8 hPa 0,0 l/m 4,8 km/h (1 Bft) SW 225 0 min 0,0 UV-I 0 W/m 0,2 C 2,1 C 8,0 km/h (2 Bft)
11.02.2023 00:18 2,1 C 1,7 C 87 % 1038,8 hPa 0,0 l/m 9,7 km/h (2 Bft) S-SW 202 0 min 0,0 UV-I 0 W/m 0,2 C -0,9 C 12,9 km/h (3 Bft)
11.02.2023 00:19 2,1 C 1,7 C 87 % 1038,8 hPa 0,0 l/m 11,3 km/h (2 Bft) S-SW 202 0 min 0,0 UV-I 0 W/m 0,2 C -2,1 C 14,5 km/h (3 Bft)
11.02.2023 00:20 2,1 C 1,7 C 87 % 1038,7 hPa 0,0 l/m 8,0 km/h (2 Bft) S-SW 202 0 min 0,0 UV-I 0 W/m 0,2 C 0,6 C 9,7 km/h (2 Bft)
11.02.2023 00:21 2,1 C 1,7 C 87 % 1038,7 hPa 0,0 l/m 8,0 km/h (2 Bft) S-SW 202 0 min 0,0 UV-I 0 W/m 0,2 C 0,6 C 9,7 km/h (2 Bft)
11.02.2023 00:22 2,1 C 1,7 C 87 % 1038,8 hPa 0,0 l/m 8,0 km/h (2 Bft) S-SW 202 0 min 0,0 UV-I 0 W/m 0,2 C 0,6 C 11,3 km/h (2 Bft)
11.02.2023 00:23 2,1 C 1,7 C 87 % 1038,8 hPa 0,0 l/m 9,7 km/h (2 Bft) S-SW 202 0 min 0,0 UV-I 0 W/m 0,2 C -0,9 C 11,3 km/h (2 Bft)
11.02.2023 00:24 2,1 C 1,7 C 87 % 1038,8 hPa 0,0 l/m 8,0 km/h (2 Bft) S-SW 202 0 min 0,0 UV-I 0 W/m 0,2 C 0,6 C 9,7 km/h (2 Bft)
11.02.2023 00:25 2,1 C 1,7 C 87 % 1038,8 hPa 0,0 l/m 8,0 km/h (2 Bft) S-SW 202 0 min 0,0 UV-I 0 W/m 0,2 C 0,6 C 11,3 km/h (2 Bft)
11.02.2023 00:26 2,1 C 1,7 C 87 % 1038,8 hPa 0,0 l/m 6,4 km/h (2 Bft) S-SW 202 0 min 0,0 UV-I 0 W/m 0,2 C 2,1 C 8,0 km/h (2 Bft)
11.02.2023 00:27 2,1 C 1,7 C 87 % 1038,8 hPa 0,0 l/m 9,7 km/h (2 Bft) S-SW 202 0 min 0,0 UV-I 0 W/m 0,2 C -0,9 C 11,3 km/h (2 Bft)
11.02.2023 00:28 2,1 C 1,7 C 87 % 1038,7 hPa 0,0 l/m 8,0 km/h (2 Bft) S-SW 202 0 min 0,0 UV-I 0 W/m 0,2 C 0,6 C 11,3 km/h (2 Bft)
11.02.2023 00:29 2,1 C 1,7 C 87 % 1038,8 hPa 0,0 l/m 6,4 km/h (2 Bft) S-SW 202 0 min 0,0 UV-I 0 W/m 0,2 C 2,1 C 9,7 km/h (2 Bft)
11.02.2023 00:30 2,1 C 1,7 C 87 % 1038,8 hPa 0,0 l/m 4,8 km/h (1 Bft) S-SW 202 0 min 0,0 UV-I 0 W/m 0,2 C 2,1 C 8,0 km/h (2 Bft)
11.02.2023 00:31 2,1 C 1,7 C 87 % 1038,8 hPa 0,0 l/m 4,8 km/h (1 Bft) S-SW 202 0 min 0,0 UV-I 0 W/m 0,2 C 2,1 C 8,0 km/h (2 Bft)
11.02.2023 00:32 2,1 C 1,7 C 87 % 1038,7 hPa 0,0 l/m 8,0 km/h (2 Bft) S 180 0 min 0,0 UV-I 0 W/m 0,2 C 0,6 C 9,7 km/h (2 Bft)
11.02.2023 00:33 2,1 C 1,7 C 87 % 1038,7 hPa 0,0 l/m 6,4 km/h (2 Bft) S-SW 202 0 min 0,0 UV-I 0 W/m 0,2 C 2,1 C 11,3 km/h (2 Bft)
11.02.2023 00:34 2,1 C 1,7 C 87 % 1038,6 hPa 0,0 l/m 6,4 km/h (2 Bft) S-SW 202 0 min 0,0 UV-I 0 W/m 0,2 C 2,1 C 8,0 km/h (2 Bft)
11.02.2023 00:35 2,1 C 1,7 C 87 % 1038,7 hPa 0,0 l/m 8,0 km/h (2 Bft) SW 225 0 min 0,0 UV-I 0 W/m 0,2 C 0,6 C 11,3 km/h (2 Bft)
11.02.2023 00:36 2,1 C 1,7 C 87 % 1038,7 hPa 0,0 l/m 8,0 km/h (2 Bft) S-SW 202 0 min 0,0 UV-I 0 W/m 0,2 C 0,6 C 12,9 km/h (3 Bft)
11.02.2023 00:37 2,1 C 1,7 C 87 % 1038,8 hPa 0,0 l/m 4,8 km/h (1 Bft) S-SW 202 0 min 0,0 UV-I 0 W/m 0,2 C 2,1 C 8,0 km/h (2 Bft)
11.02.2023 00:38 2,1 C 1,7 C 87 % 1038,8 hPa 0,0 l/m 4,8 km/h (1 Bft) SW 225 0 min 0,0 UV-I 0 W/m 0,2 C 2,1 C 11,3 km/h (2 Bft)
11.02.2023 00:39 2,2 C 1,7 C 87 % 1038,7 hPa 0,0 l/m 8,0 km/h (2 Bft) S-SW 202 0 min 0,0 UV-I 0 W/m 0,3 C 0,7 C 9,7 km/h (2 Bft)
11.02.2023 00:40 2,2 C 1,7 C 87 % 1038,8 hPa 0,0 l/m 6,4 km/h (2 Bft) SW 225 0 min 0,0 UV-I 0 W/m 0,3 C 2,2 C 9,7 km/h (2 Bft)
11.02.2023 00:41 2,2 C 1,7 C 87 % 1038,7 hPa 0,0 l/m 6,4 km/h (2 Bft) SW 225 0 min 0,0 UV-I 0 W/m 0,3 C 2,2 C 9,7 km/h (2 Bft)
11.02.2023 00:42 2,1 C 1,7 C 87 % 1038,6 hPa 0,0 l/m 8,0 km/h (2 Bft) S-SW 202 0 min 0,0 UV-I 0 W/m 0,2 C 0,6 C 11,3 km/h (2 Bft)
11.02.2023 00:43 2,1 C 1,7 C 87 % 1038,6 hPa 0,0 l/m 9,7 km/h (2 Bft) S-SW 202 0 min 0,0 UV-I 0 W/m 0,2 C -0,9 C 11,3 km/h (2 Bft)
11.02.2023 00:44 2,1 C 1,7 C 87 % 1038,7 hPa 0,0 l/m 8,0 km/h (2 Bft) S-SW 202 0 min 0,0 UV-I 0 W/m 0,2 C 0,6 C 12,9 km/h (3 Bft)
11.02.2023 00:45 2,2 C 1,7 C 87 % 1038,7 hPa 0,0 l/m 6,4 km/h (2 Bft) S-SW 202 0 min 0,0 UV-I 0 W/m 0,3 C 2,2 C 8,0 km/h (2 Bft)
11.02.2023 00:46 2,2 C 1,7 C 87 % 1038,7 hPa 0,0 l/m 4,8 km/h (1 Bft) S-SW 202 0 min 0,0 UV-I 0 W/m 0,3 C 2,2 C 11,3 km/h (2 Bft)
11.02.2023 00:47 2,2 C 1,7 C 87 % 1038,6 hPa 0,0 l/m 8,0 km/h (2 Bft) SW 225 0 min 0,0 UV-I 0 W/m 0,3 C 0,7 C 11,3 km/h (2 Bft)
11.02.2023 00:48 2,1 C 1,7 C 87 % 1038,6 hPa 0,0 l/m 6,4 km/h (2 Bft) S-SW 202 0 min 0,0 UV-I 0 W/m 0,2 C 2,1 C 11,3 km/h (2 Bft)
11.02.2023 00:49 2,2 C 1,7 C 87 % 1038,6 hPa 0,0 l/m 4,8 km/h (1 Bft) S-SW 202 0 min 0,0 UV-I 0 W/m 0,3 C 2,2 C 8,0 km/h (2 Bft)
11.02.2023 00:50 2,2 C 1,7 C 87 % 1038,6 hPa 0,0 l/m 6,4 km/h (2 Bft) S-SW 202 0 min 0,0 UV-I 0 W/m 0,3 C 2,2 C 9,7 km/h (2 Bft)
11.02.2023 00:51 2,2 C 1,7 C 87 % 1038,6 hPa 0,0 l/m 1,6 km/h (1 Bft) S 180 0 min 0,0 UV-I 0 W/m 0,3 C 2,2 C 6,4 km/h (2 Bft)
11.02.2023 00:52 2,2 C 1,7 C 87 % 1038,5 hPa 0,0 l/m 1,6 km/h (1 Bft) S 180 0 min 0,0 UV-I 0 W/m 0,3 C 2,2 C 3,2 km/h (1 Bft)
11.02.2023 00:53 2,2 C 1,7 C 87 % 1038,4 hPa 0,0 l/m 4,8 km/h (1 Bft) S 180 0 min 0,0 UV-I 0 W/m 0,3 C 2,2 C 8,0 km/h (2 Bft)
11.02.2023 00:54 2,2 C 1,7 C 87 % 1038,5 hPa 0,0 l/m 4,8 km/h (1 Bft) S-SW 202 0 min 0,0 UV-I 0 W/m 0,3 C 2,2 C 6,4 km/h (2 Bft)
11.02.2023 00:55 2,2 C 1,7 C 87 % 1038,5 hPa 0,0 l/m 3,2 km/h (1 Bft) S-SW 202 0 min 0,0 UV-I 0 W/m 0,3 C 2,2 C 4,8 km/h (1 Bft)
11.02.2023 00:56 2,2 C 1,7 C 87 % 1038,4 hPa 0,0 l/m 3,2 km/h (1 Bft) S-SW 202 0 min 0,0 UV-I 0 W/m 0,3 C 2,2 C 6,4 km/h (2 Bft)
11.02.2023 00:57 2,2 C 1,7 C 87 % 1038,5 hPa 0,0 l/m 8,0 km/h (2 Bft) S-SW 202 0 min 0,0 UV-I 0 W/m 0,3 C 0,7 C 16,1 km/h (3 Bft)
11.02.2023 00:58 2,2 C 1,7 C 87 % 1038,5 hPa 0,0 l/m 8,0 km/h (2 Bft) S 180 0 min 0,0 UV-I 0 W/m 0,3 C 0,7 C 16,1 km/h (3 Bft)
11.02.2023 00:59 2,2 C 1,7 C 87 % 1038,5 hPa 0,0 l/m 6,4 km/h (2 Bft) S 180 0 min 0,0 UV-I 0 W/m 0,3 C 2,2 C 8,0 km/h (2 Bft)
11.02.2023 01:00 2,2 C 1,7 C 87 % 1038,5 hPa 0,0 l/m 6,4 km/h (2 Bft) S 180 0 min 0,0 UV-I 0 W/m 0,3 C 2,2 C 8,0 km/h (2 Bft)
11.02.2023 01:01 2,2 C 1,7 C 87 % 1038,4 hPa 0,0 l/m 4,8 km/h (1 Bft) SW 225 0 min 0,0 UV-I 0 W/m 0,3 C 2,2 C 6,4 km/h (2 Bft)
11.02.2023 01:02 2,2 C 1,7 C 87 % 1038,4 hPa 0,0 l/m 11,3 km/h (2 Bft) S 180 0 min 0,0 UV-I 0 W/m 0,3 C -2,0 C 16,1 km/h (3 Bft)
11.02.2023 01:03 2,3 C 1,7 C 87 % 1038,4 hPa 0,0 l/m 4,8 km/h (1 Bft) SW 225 0 min 0,0 UV-I 0 W/m 0,4 C 2,3 C 9,7 km/h (2 Bft)
11.02.2023 01:04 2,3 C 1,7 C 87 % 1038,4 hPa 0,0 l/m 9,7 km/h (2 Bft) S-SW 202 0 min 0,0 UV-I 0 W/m 0,4 C -0,7 C 12,9 km/h (3 Bft)
11.02.2023 01:05 2,3 C 1,7 C 88 % 1038,4 hPa 0,0 l/m 9,7 km/h (2 Bft) S-SW 202 0 min 0,0 UV-I 0 W/m 0,5 C -0,7 C 17,7 km/h (3 Bft)
11.02.2023 01:06 2,3 C 1,7 C 88 % 1038,3 hPa 0,0 l/m 8,0 km/h (2 Bft) S-SW 202 0 min 0,0 UV-I 0 W/m 0,5 C 0,8 C 11,3 km/h (2 Bft)
11.02.2023 01:07 2,3 C 1,7 C 87 % 1038,3 hPa 0,0 l/m 11,3 km/h (2 Bft) SW 225 0 min 0,0 UV-I 0 W/m 0,4 C -1,9 C 16,1 km/h (3 Bft)
11.02.2023 01:08 2,3 C 1,7 C 87 % 1038,1 hPa 0,0 l/m 11,3 km/h (2 Bft) S-SW 202 0 min 0,0 UV-I 0 W/m 0,4 C -1,9 C 19,3 km/h (3 Bft)
11.02.2023 01:09 2,4 C 2,2 C 87 % 1038,2 hPa 0,0 l/m 12,9 km/h (3 Bft) S-SW 202 0 min 0,0 UV-I 0 W/m 0,5 C -2,8 C 17,7 km/h (3 Bft)
11.02.2023 01:10 2,4 C 2,2 C 87 % 1038,2 hPa 0,0 l/m 11,3 km/h (2 Bft) SW 225 0 min 0,0 UV-I 0 W/m 0,5 C -1,8 C 17,7 km/h (3 Bft)
11.02.2023 01:11 2,4 C 2,2 C 87 % 1038,2 hPa 0,0 l/m 8,0 km/h (2 Bft) S-SW 202 0 min 0,0 UV-I 0 W/m 0,5 C 0,9 C 11,3 km/h (2 Bft)
11.02.2023 01:12 2,4 C 2,2 C 87 % 1038,0 hPa 0,0 l/m 12,9 km/h (3 Bft) S-SW 202 0 min 0,0 UV-I 0 W/m 0,5 C -2,8 C 16,1 km/h (3 Bft)
11.02.2023 01:13 2,4 C 2,2 C 87 % 1038,1 hPa 0,0 l/m 11,3 km/h (2 Bft) SW 225 0 min 0,0 UV-I 0 W/m 0,5 C -1,8 C 16,1 km/h (3 Bft)
11.02.2023 01:14 2,4 C 2,2 C 87 % 1038,2 hPa 0,0 l/m 9,7 km/h (2 Bft) S-SW 202 0 min 0,0 UV-I 0 W/m 0,5 C -0,6 C 14,5 km/h (3 Bft)
11.02.2023 01:15 2,3 C 1,7 C 87 % 1038,1 hPa 0,0 l/m 11,3 km/h (2 Bft) S-SW 202 0 min 0,0 UV-I 0 W/m 0,4 C -1,9 C 17,7 km/h (3 Bft)
11.02.2023 01:16 2,3 C 1,7 C 87 % 1038,1 hPa 0,0 l/m 9,7 km/h (2 Bft) SW 225 0 min 0,0 UV-I 0 W/m 0,4 C -0,7 C 12,9 km/h (3 Bft)
11.02.2023 01:17 2,3 C 1,7 C 87 % 1038,1 hPa 0,0 l/m 8,0 km/h (2 Bft) SW 225 0 min 0,0 UV-I 0 W/m 0,4 C 0,8 C 12,9 km/h (3 Bft)
11.02.2023 01:18 2,3 C 1,7 C 87 % 1038,1 hPa 0,0 l/m 4,8 km/h (1 Bft) SW 225 0 min 0,0 UV-I 0 W/m 0,4 C 2,3 C 8,0 km/h (2 Bft)
11.02.2023 01:19 2,3 C 1,7 C 87 % 1038,2 hPa 0,0 l/m 1,6 km/h (1 Bft) SW 225 0 min 0,0 UV-I 0 W/m 0,4 C 2,3 C 4,8 km/h (1 Bft)
11.02.2023 01:20 2,2 C 1,7 C 87 % 1038,2 hPa 0,0 l/m 6,4 km/h (2 Bft) S-SW 202 0 min 0,0 UV-I 0 W/m 0,3 C 2,2 C 9,7 km/h (2 Bft)
11.02.2023 01:21 2,2 C 1,7 C 87 % 1038,1 hPa 0,0 l/m 6,4 km/h (2 Bft) W-SW 247 0 min 0,0 UV-I 0 W/m 0,3 C 2,2 C 11,3 km/h (2 Bft)
11.02.2023 01:22 2,2 C 1,7 C 87 % 1038,2 hPa 0,0 l/m 4,8 km/h (1 Bft) SW 225 0 min 0,0 UV-I 0 W/m 0,3 C 2,2 C 11,3 km/h (2 Bft)
11.02.2023 01:23 2,2 C 1,7 C 87 % 1038,2 hPa 0,0 l/m 9,7 km/h (2 Bft) W-SW 247 0 min 0,0 UV-I 0 W/m 0,3 C -0,8 C 22,5 km/h (4 Bft)
11.02.2023 01:24 2,2 C 1,7 C 87 % 1038,2 hPa 0,0 l/m 4,8 km/h (1 Bft) SW 225 0 min 0,0 UV-I 0 W/m 0,3 C 2,2 C 22,5 km/h (4 Bft)
11.02.2023 01:25 2,1 C 1,7 C 87 % 1038,2 hPa 0,0 l/m 9,7 km/h (2 Bft) SW 225 0 min 0,0 UV-I 0 W/m 0,2 C -0,9 C 16,1 km/h (3 Bft)
11.02.2023 01:26 2,1 C 1,7 C 87 % 1038,1 hPa 0,0 l/m 6,4 km/h (2 Bft) W-SW 247 0 min 0,0 UV-I 0 W/m 0,2 C 2,1 C 11,3 km/h (2 Bft)
11.02.2023 01:27 2,1 C 1,7 C 88 % 1038,2 hPa 0,0 l/m 9,7 km/h (2 Bft) S-SW 202 0 min 0,0 UV-I 0 W/m 0,3 C -0,9 C 14,5 km/h (3 Bft)
11.02.2023 01:28 2,1 C 1,7 C 88 % 1038,2 hPa 0,0 l/m 9,7 km/h (2 Bft) S-SW 202 0 min 0,0 UV-I 0 W/m 0,3 C -0,9 C 12,9 km/h (3 Bft)
11.02.2023 01:29 2,1 C 1,7 C 88 % 1038,1 hPa 0,0 l/m 8,0 km/h (2 Bft) SW 225 0 min 0,0 UV-I 0 W/m 0,3 C 0,6 C 12,9 km/h (3 Bft)
11.02.2023 01:30 2,1 C 1,7 C 88 % 1038,1 hPa 0,0 l/m 8,0 km/h (2 Bft) SW 225 0 min 0,0 UV-I 0 W/m 0,3 C 0,6 C 11,3 km/h (2 Bft)
11.02.2023 01:31 2,1 C 1,7 C 87 % 1038,2 hPa 0,0 l/m 6,4 km/h (2 Bft) S-SW 202 0 min 0,0 UV-I 0 W/m 0,2 C 2,1 C 9,7 km/h (2 Bft)
11.02.2023 01:32 2,1 C 1,7 C 87 % 1038,2 hPa 0,0 l/m 9,7 km/h (2 Bft) SW 225 0 min 0,0 UV-I 0 W/m 0,2 C -0,9 C 12,9 km/h (3 Bft)
11.02.2023 01:33 2,1 C 1,7 C 87 % 1038,2 hPa 0,0 l/m 6,4 km/h (2 Bft) W-SW 247 0 min 0,0 UV-I 0 W/m 0,2 C 2,1 C 8,0 km/h (2 Bft)
11.02.2023 01:34 2,0 C 1,7 C 87 % 1038,2 hPa 0,0 l/m 4,8 km/h (1 Bft) S-SW 202 0 min 0,0 UV-I 0 W/m 0,1 C 2,0 C 6,4 km/h (2 Bft)
11.02.2023 01:35 2,0 C 1,7 C 87 % 1038,2 hPa 0,0 l/m 4,8 km/h (1 Bft) SW 225 0 min 0,0 UV-I 0 W/m 0,1 C 2,0 C 6,4 km/h (2 Bft)
11.02.2023 01:36 2,0 C 1,7 C 87 % 1038,2 hPa 0,0 l/m 9,7 km/h (2 Bft) SW 225 0 min 0,0 UV-I 0 W/m 0,1 C -1,0 C 14,5 km/h (3 Bft)
11.02.2023 01:37 2,0 C 1,7 C 87 % 1038,2 hPa 0,0 l/m 4,8 km/h (1 Bft) S-SW 202 0 min 0,0 UV-I 0 W/m 0,1 C 2,0 C 6,4 km/h (2 Bft)
11.02.2023 01:38 1,9 C 1,7 C 87 % 1038,1 hPa 0,0 l/m 6,4 km/h (2 Bft) S-SW 202 0 min 0,0 UV-I 0 W/m -0,0 C 1,9 C 9,7 km/h (2 Bft)
11.02.2023 01:39 1,9 C 1,7 C 88 % 1038,2 hPa 0,0 l/m 6,4 km/h (2 Bft) S-SW 202 0 min 0,0 UV-I 0 W/m 0,1 C 1,9 C 9,7 km/h (2 Bft)
11.02.2023 01:40 1,9 C 1,7 C 88 % 1038,2 hPa 0,0 l/m 9,7 km/h (2 Bft) S-SW 202 0 min 0,0 UV-I 0 W/m 0,1 C -1,1 C 14,5 km/h (3 Bft)
11.02.2023 01:41 1,9 C 1,7 C 88 % 1038,1 hPa 0,0 l/m 6,4 km/h (2 Bft) SW 225 0 min 0,0 UV-I 0 W/m 0,1 C 1,9 C 9,7 km/h (2 Bft)
11.02.2023 01:42 1,9 C 1,7 C 88 % 1038,2 hPa 0,0 l/m 6,4 km/h (2 Bft) S-SW 202 0 min 0,0 UV-I 0 W/m 0,1 C 1,9 C 11,3 km/h (2 Bft)
11.02.2023 01:43 1,9 C 1,7 C 88 % 1038,2 hPa 0,0 l/m 6,4 km/h (2 Bft) S-SW 202 0 min 0,0 UV-I 0 W/m 0,1 C 1,9 C 9,7 km/h (2 Bft)
11.02.2023 01:44 1,9 C 1,7 C 88 % 1038,2 hPa 0,0 l/m 8,0 km/h (2 Bft) S-SW 202 0 min 0,0 UV-I 0 W/m 0,1 C 0,3 C 12,9 km/h (3 Bft)
11.02.2023 01:45 1,9 C 1,7 C 88 % 1038,2 hPa 0,0 l/m 3,2 km/h (1 Bft) SW 225 0 min 0,0 UV-I 0 W/m 0,1 C 1,9 C 6,4 km/h (2 Bft)
11.02.2023 01:46 1,9 C 1,7 C 88 % 1038,1 hPa 0,0 l/m 3,2 km/h (1 Bft) SW 225 0 min 0,0 UV-I 0 W/m 0,1 C 1,9 C 6,4 km/h (2 Bft)
11.02.2023 01:47 1,9 C 1,7 C 88 % 1038,2 hPa 0,0 l/m 9,7 km/h (2 Bft) S-SW 202 0 min 0,0 UV-I 0 W/m 0,1 C -1,1 C 11,3 km/h (2 Bft)
11.02.2023 01:48 1,9 C 1,7 C 88 % 1038,1 hPa 0,0 l/m 6,4 km/h (2 Bft) S-SW 202 0 min 0,0 UV-I 0 W/m 0,1 C 1,9 C 11,3 km/h (2 Bft)
11.02.2023 01:49 1,9 C 1,7 C 88 % 1038,1 hPa 0,0 l/m 6,4 km/h (2 Bft) SW 225 0 min 0,0 UV-I 0 W/m 0,1 C 1,9 C 9,7 km/h (2 Bft)
11.02.2023 01:50 1,9 C 1,7 C 88 % 1038,0 hPa 0,0 l/m 6,4 km/h (2 Bft) S-SW 202 0 min 0,0 UV-I 0 W/m 0,1 C 1,9 C 9,7 km/h (2 Bft)
11.02.2023 01:51 1,9 C 1,7 C 88 % 1038,0 hPa 0,0 l/m 6,4 km/h (2 Bft) S-SW 202 0 min 0,0 UV-I 0 W/m 0,1 C 1,9 C 12,9 km/h (3 Bft)
11.02.2023 01:52 1,8 C 1,7 C 88 % 1038,0 hPa 0,0 l/m 9,7 km/h (2 Bft) S-SW 202 0 min 0,0 UV-I 0 W/m 0,0 C -1,2 C 14,5 km/h (3 Bft)
11.02.2023 01:53 1,8 C 1,7 C 88 % 1038,0 hPa 0,0 l/m 9,7 km/h (2 Bft) S-SW 202 0 min 0,0 UV-I 0 W/m 0,0 C -1,2 C 14,5 km/h (3 Bft)
11.02.2023 01:54 1,9 C 1,7 C 88 % 1038,0 hPa 0,0 l/m 8,0 km/h (2 Bft) S-SW 202 0 min 0,0 UV-I 0 W/m 0,1 C 0,3 C 11,3 km/h (2 Bft)
11.02.2023 01:55 1,9 C 1,7 C 88 % 1038,0 hPa 0,0 l/m 8,0 km/h (2 Bft) SW 225 0 min 0,0 UV-I 0 W/m 0,1 C 0,3 C 14,5 km/h (3 Bft)
11.02.2023 01:56 1,9 C 1,7 C 88 % 1037,9 hPa 0,0 l/m 11,3 km/h (2 Bft) S-SW 202 0 min 0,0 UV-I 0 W/m 0,1 C -2,3 C 14,5 km/h (3 Bft)
11.02.2023 01:57 1,9 C 1,7 C 88 % 1038,0 hPa 0,0 l/m 12,9 km/h (3 Bft) S-SW 202 0 min 0,0 UV-I 0 W/m 0,1 C -3,4 C 16,1 km/h (3 Bft)
11.02.2023 01:58 1,8 C 1,7 C 88 % 1038,0 hPa 0,0 l/m 12,9 km/h (3 Bft) S-SW 202 0 min 0,0 UV-I 0 W/m 0,0 C -3,5 C 16,1 km/h (3 Bft)
11.02.2023 01:59 1,9 C 1,7 C 88 % 1038,0 hPa 0,0 l/m 9,7 km/h (2 Bft) S-SW 202 0 min 0,0 UV-I 0 W/m 0,1 C -1,1 C 14,5 km/h (3 Bft)
11.02.2023 02:00 1,9 C 1,7 C 88 % 1038,1 hPa 0,0 l/m 9,7 km/h (2 Bft) S-SW 202 0 min 0,0 UV-I 0 W/m 0,1 C -1,1 C 14,5 km/h (3 Bft)
11.02.2023 02:01 1,9 C 1,7 C 88 % 1038,0 hPa 0,0 l/m 11,3 km/h (2 Bft) S-SW 202 0 min 0,0 UV-I 0 W/m 0,1 C -2,3 C 16,1 km/h (3 Bft)
11.02.2023 02:02 1,9 C 1,7 C 88 % 1037,9 hPa 0,0 l/m 11,3 km/h (2 Bft) S-SW 202 0 min 0,0 UV-I 0 W/m 0,1 C -2,3 C 19,3 km/h (3 Bft)
11.02.2023 02:03 1,9 C 1,7 C 88 % 1038,0 hPa 0,0 l/m 12,9 km/h (3 Bft) S-SW 202 0 min 0,0 UV-I 0 W/m 0,1 C -3,4 C 17,7 km/h (3 Bft)
11.02.2023 02:04 1,8 C 1,7 C 88 % 1037,9 hPa 0,0 l/m 11,3 km/h (2 Bft) S-SW 202 0 min 0,0 UV-I 0 W/m 0,0 C -2,4 C 14,5 km/h (3 Bft)
11.02.2023 02:05 1,8 C 1,7 C 88 % 1037,8 hPa 0,0 l/m 11,3 km/h (2 Bft) S-SW 202 0 min 0,0 UV-I 0 W/m 0,0 C -2,4 C 14,5 km/h (3 Bft)
11.02.2023 02:06 1,9 C 1,7 C 88 % 1037,9 hPa 0,0 l/m 9,7 km/h (2 Bft) S-SW 202 0 min 0,0 UV-I 0 W/m 0,1 C -1,1 C 14,5 km/h (3 Bft)
11.02.2023 02:07 1,8 C 1,7 C 88 % 1037,9 hPa 0,0 l/m 9,7 km/h (2 Bft) S-SW 202 0 min 0,0 UV-I 0 W/m 0,0 C -1,2 C 14,5 km/h (3 Bft)
11.02.2023 02:08 1,9 C 1,7 C 88 % 1037,8 hPa 0,0 l/m 8,0 km/h (2 Bft) S-SW 202 0 min 0,0 UV-I 0 W/m 0,1 C 0,3 C 12,9 km/h (3 Bft)
11.02.2023 02:09 1,8 C 1,7 C 88 % 1037,8 hPa 0,0 l/m 11,3 km/h (2 Bft) S-SW 202 0 min 0,0 UV-I 0 W/m 0,0 C -2,4 C 19,3 km/h (3 Bft)
11.02.2023 02:10 1,8 C 1,7 C 88 % 1037,8 hPa 0,0 l/m 9,7 km/h (2 Bft) S 180 0 min 0,0 UV-I 0 W/m 0,0 C -1,2 C 17,7 km/h (3 Bft)
11.02.2023 02:11 1,8 C 1,7 C 88 % 1038,0 hPa 0,0 l/m 9,7 km/h (2 Bft) S 180 0 min 0,0 UV-I 0 W/m 0,0 C -1,2 C 17,7 km/h (3 Bft)
11.02.2023 02:12 1,8 C 1,7 C 88 % 1038,0 hPa 0,0 l/m 9,7 km/h (2 Bft) S-SW 202 0 min 0,0 UV-I 0 W/m 0,0 C -1,2 C 14,5 km/h (3 Bft)
11.02.2023 02:13 1,8 C 1,7 C 88 % 1038,0 hPa 0,0 l/m 9,7 km/h (2 Bft) S-SW 202 0 min 0,0 UV-I 0 W/m 0,0 C -1,2 C 16,1 km/h (3 Bft)
11.02.2023 02:14 1,8 C 1,7 C 88 % 1037,9 hPa 0,0 l/m 11,3 km/h (2 Bft) S-SW 202 0 min 0,0 UV-I 0 W/m 0,0 C -2,4 C 16,1 km/h (3 Bft)
11.02.2023 02:15 1,8 C 1,7 C 88 % 1037,9 hPa 0,0 l/m 8,0 km/h (2 Bft) S-SW 202 0 min 0,0 UV-I 0 W/m 0,0 C 0,2 C 11,3 km/h (2 Bft)
11.02.2023 02:16 1,8 C 1,7 C 88 % 1037,9 hPa 0,0 l/m 9,7 km/h (2 Bft) S-SW 202 0 min 0,0 UV-I 0 W/m 0,0 C -1,2 C 12,9 km/h (3 Bft)
11.02.2023 02:17 1,8 C 1,7 C 88 % 1038,0 hPa 0,0 l/m 9,7 km/h (2 Bft) SW 225 0 min 0,0 UV-I 0 W/m 0,0 C -1,2 C 14,5 km/h (3 Bft)
11.02.2023 02:18 1,8 C 1,7 C 88 % 1038,0 hPa 0,0 l/m 9,7 km/h (2 Bft) S-SW 202 0 min 0,0 UV-I 0 W/m 0,0 C -1,2 C 12,9 km/h (3 Bft)
11.02.2023 02:19 1,8 C 1,7 C 88 % 1038,0 hPa 0,0 l/m 9,7 km/h (2 Bft) S-SW 202 0 min 0,0 UV-I 0 W/m 0,0 C -1,2 C 12,9 km/h (3 Bft)
11.02.2023 02:20 1,8 C 1,7 C 88 % 1038,0 hPa 0,0 l/m 9,7 km/h (2 Bft) S-SW 202 0 min 0,0 UV-I 0 W/m 0,0 C -1,2 C 12,9 km/h (3 Bft)
11.02.2023 02:21 1,8 C 1,7 C 88 % 1038,0 hPa 0,0 l/m 8,0 km/h (2 Bft) SW 225 0 min 0,0 UV-I 0 W/m 0,0 C 0,2 C 9,7 km/h (2 Bft)
11.02.2023 02:22 1,8 C 1,7 C 88 % 1038,0 hPa 0,0 l/m 11,3 km/h (2 Bft) S-SW 202 0 min 0,0 UV-I 0 W/m 0,0 C -2,4 C 12,9 km/h (3 Bft)
11.02.2023 02:23 1,8 C 1,7 C 88 % 1037,9 hPa 0,0 l/m 9,7 km/h (2 Bft) S-SW 202 0 min 0,0 UV-I 0 W/m 0,0 C -1,2 C 12,9 km/h (3 Bft)
11.02.2023 02:24 1,8 C 1,7 C 88 % 1038,1 hPa 0,0 l/m 11,3 km/h (2 Bft) S-SW 202 0 min 0,0 UV-I 0 W/m 0,0 C -2,4 C 14,5 km/h (3 Bft)
11.02.2023 02:25 1,8 C 1,7 C 88 % 1038,0 hPa 0,0 l/m 9,7 km/h (2 Bft) S-SW 202 0 min 0,0 UV-I 0 W/m 0,0 C -1,2 C 12,9 km/h (3 Bft)
11.02.2023 02:26 1,8 C 1,7 C 88 % 1038,0 hPa 0,0 l/m 6,4 km/h (2 Bft) S-SW 202 0 min 0,0 UV-I 0 W/m 0,0 C 1,8 C 9,7 km/h (2 Bft)
11.02.2023 02:27 1,8 C 1,7 C 88 % 1038,0 hPa 0,0 l/m 11,3 km/h (2 Bft) S-SW 202 0 min 0,0 UV-I 0 W/m 0,0 C -2,4 C 14,5 km/h (3 Bft)
11.02.2023 02:28 1,8 C 1,7 C 88 % 1038,0 hPa 0,0 l/m 11,3 km/h (2 Bft) S-SW 202 0 min 0,0 UV-I 0 W/m 0,0 C -2,4 C 16,1 km/h (3 Bft)
11.02.2023 02:29 1,8 C 1,7 C 88 % 1038,1 hPa 0,0 l/m 12,9 km/h (3 Bft) S-SW 202 0 min 0,0 UV-I 0 W/m 0,0 C -3,5 C 14,5 km/h (3 Bft)
11.02.2023 02:30 1,8 C 1,7 C 88 % 1037,9 hPa 0,0 l/m 8,0 km/h (2 Bft) SW 225 0 min 0,0 UV-I 0 W/m 0,0 C 0,2 C 12,9 km/h (3 Bft)
11.02.2023 02:31 1,8 C 1,7 C 88 % 1037,9 hPa 0,0 l/m 9,7 km/h (2 Bft) S-SW 202 0 min 0,0 UV-I 0 W/m 0,0 C -1,2 C 14,5 km/h (3 Bft)
11.02.2023 02:32 1,8 C 1,7 C 88 % 1037,9 hPa 0,0 l/m 6,4 km/h (2 Bft) SW 225 0 min 0,0 UV-I 0 W/m 0,0 C 1,8 C 11,3 km/h (2 Bft)
11.02.2023 02:33 1,8 C 1,7 C 88 % 1037,9 hPa 0,0 l/m 6,4 km/h (2 Bft) S-SW 202 0 min 0,0 UV-I 0 W/m 0,0 C 1,8 C 11,3 km/h (2 Bft)
11.02.2023 02:34 1,8 C 1,7 C 88 % 1037,8 hPa 0,0 l/m 8,0 km/h (2 Bft) S-SW 202 0 min 0,0 UV-I 0 W/m 0,0 C 0,2 C 14,5 km/h (3 Bft)
11.02.2023 02:35 1,8 C 1,1 C 88 % 1037,9 hPa 0,0 l/m 11,3 km/h (2 Bft) S-SW 202 0 min 0,0 UV-I 0 W/m 0,0 C -2,4 C 12,9 km/h (3 Bft)
11.02.2023 02:36 1,8 C 1,1 C 88 % 1037,9 hPa 0,0 l/m 6,4 km/h (2 Bft) S 180 0 min 0,0 UV-I 0 W/m 0,0 C 1,8 C 8,0 km/h (2 Bft)
11.02.2023 02:37 1,7 C 1,1 C 88 % 1037,8 hPa 0,0 l/m 4,8 km/h (1 Bft) S-SW 202 0 min 0,0 UV-I 0 W/m -0,1 C 1,7 C 8,0 km/h (2 Bft)
11.02.2023 02:38 1,7 C 1,1 C 88 % 1037,8 hPa 0,0 l/m 6,4 km/h (2 Bft) S 180 0 min 0,0 UV-I 0 W/m -0,1 C 1,7 C 9,7 km/h (2 Bft)
11.02.2023 02:39 1,7 C 1,1 C 88 % 1037,8 hPa 0,0 l/m 6,4 km/h (2 Bft) S-SW 202 0 min 0,0 UV-I 0 W/m -0,1 C 1,7 C 8,0 km/h (2 Bft)
11.02.2023 02:40 1,7 C 1,1 C 88 % 1037,8 hPa 0,0 l/m 6,4 km/h (2 Bft) S-SW 202 0 min 0,0 UV-I 0 W/m -0,1 C 1,7 C 11,3 km/h (2 Bft)
11.02.2023 02:41 1,7 C 1,1 C 88 % 1037,8 hPa 0,0 l/m 8,0 km/h (2 Bft) S 180 0 min 0,0 UV-I 0 W/m -0,1 C 0,1 C 11,3 km/h (2 Bft)
11.02.2023 02:42 1,7 C 1,1 C 88 % 1037,7 hPa 0,0 l/m 8,0 km/h (2 Bft) S 180 0 min 0,0 UV-I 0 W/m -0,1 C 0,1 C 11,3 km/h (2 Bft)
11.02.2023 02:43 1,7 C 1,1 C 88 % 1037,8 hPa 0,0 l/m 6,4 km/h (2 Bft) S-SW 202 0 min 0,0 UV-I 0 W/m -0,1 C 1,7 C 9,7 km/h (2 Bft)
11.02.2023 02:44 1,7 C 1,1 C 88 % 1037,7 hPa 0,0 l/m 4,8 km/h (1 Bft) S 180 0 min 0,0 UV-I 0 W/m -0,1 C 1,7 C 8,0 km/h (2 Bft)
11.02.2023 02:45 1,7 C 1,1 C 88 % 1037,8 hPa 0,0 l/m 8,0 km/h (2 Bft) S-SW 202 0 min 0,0 UV-I 0 W/m -0,1 C 0,1 C 11,3 km/h (2 Bft)
11.02.2023 02:46 1,7 C 1,1 C 88 % 1037,8 hPa 0,0 l/m 9,7 km/h (2 Bft) S-SW 202 0 min 0,0 UV-I 0 W/m -0,1 C -1,3 C 12,9 km/h (3 Bft)
11.02.2023 02:47 1,7 C 1,1 C 88 % 1037,7 hPa 0,0 l/m 4,8 km/h (1 Bft) S 180 0 min 0,0 UV-I 0 W/m -0,1 C 1,7 C 9,7 km/h (2 Bft)
11.02.2023 02:48 1,7 C 1,1 C 88 % 1037,7 hPa 0,0 l/m 8,0 km/h (2 Bft) S-SW 202 0 min 0,0 UV-I 0 W/m -0,1 C 0,1 C 14,5 km/h (3 Bft)
11.02.2023 02:49 1,7 C 1,1 C 88 % 1037,7 hPa 0,0 l/m 8,0 km/h (2 Bft) S-SW 202 0 min 0,0 UV-I 0 W/m -0,1 C 0,1 C 12,9 km/h (3 Bft)
11.02.2023 02:50 1,7 C 1,1 C 88 % 1037,8 hPa 0,0 l/m 6,4 km/h (2 Bft) S-SW 202 0 min 0,0 UV-I 0 W/m -0,1 C 1,7 C 9,7 km/h (2 Bft)
11.02.2023 02:51 1,8 C 1,1 C 88 % 1037,8 hPa 0,0 l/m 8,0 km/h (2 Bft) S-SW 202 0 min 0,0 UV-I 0 W/m 0,0 C 0,2 C 9,7 km/h (2 Bft)
11.02.2023 02:52 1,7 C 1,1 C 89 % 1037,9 hPa 0,0 l/m 8,0 km/h (2 Bft) S-SW 202 0 min 0,0 UV-I 0 W/m 0,1 C 0,1 C 9,7 km/h (2 Bft)
11.02.2023 02:53 1,8 C 1,1 C 89 % 1037,9 hPa 0,0 l/m 8,0 km/h (2 Bft) SW 225 0 min 0,0 UV-I 0 W/m 0,2 C 0,2 C 9,7 km/h (2 Bft)
11.02.2023 02:54 1,7 C 1,1 C 89 % 1037,9 hPa 0,0 l/m 8,0 km/h (2 Bft) S-SW 202 0 min 0,0 UV-I 0 W/m 0,1 C 0,1 C 11,3 km/h (2 Bft)
11.02.2023 02:55 1,8 C 1,7 C 89 % 1037,8 hPa 0,0 l/m 6,4 km/h (2 Bft) S-SW 202 0 min 0,0 UV-I 0 W/m 0,2 C 1,8 C 9,7 km/h (2 Bft)
11.02.2023 02:56 1,8 C 1,7 C 89 % 1037,9 hPa 0,0 l/m 4,8 km/h (1 Bft) S-SW 202 0 min 0,0 UV-I 0 W/m 0,2 C 1,8 C 6,4 km/h (2 Bft)
11.02.2023 02:57 1,8 C 1,1 C 89 % 1037,9 hPa 0,0 l/m 6,4 km/h (2 Bft) S-SW 202 0 min 0,0 UV-I 0 W/m 0,2 C 1,8 C 8,0 km/h (2 Bft)
11.02.2023 02:58 1,7 C 1,1 C 89 % 1037,8 hPa 0,0 l/m 4,8 km/h (1 Bft) W-SW 247 0 min 0,0 UV-I 0 W/m 0,1 C 1,7 C 6,4 km/h (2 Bft)
11.02.2023 02:59 1,8 C 1,1 C 89 % 1038,0 hPa 0,0 l/m 4,8 km/h (1 Bft) S-SW 202 0 min 0,0 UV-I 0 W/m 0,2 C 1,8 C 8,0 km/h (2 Bft)
11.02.2023 03:00 1,8 C 1,1 C 89 % 1037,9 hPa 0,0 l/m 4,8 km/h (1 Bft) S-SW 202 0 min 0,0 UV-I 0 W/m 0,2 C 1,8 C 6,4 km/h (2 Bft)
11.02.2023 03:01 1,7 C 1,1 C 89 % 1037,8 hPa 0,0 l/m 3,2 km/h (1 Bft) S-SW 202 0 min 0,0 UV-I 0 W/m 0,1 C 1,7 C 6,4 km/h (2 Bft)
11.02.2023 03:02 1,8 C 1,1 C 89 % 1037,8 hPa 0,0 l/m 3,2 km/h (1 Bft) S-SW 202 0 min 0,0 UV-I 0 W/m 0,2 C 1,8 C 4,8 km/h (1 Bft)
11.02.2023 03:03 1,7 C 1,1 C 89 % 1038,0 hPa 0,0 l/m 3,2 km/h (1 Bft) S-SW 202 0 min 0,0 UV-I 0 W/m 0,1 C 1,7 C 4,8 km/h (1 Bft)
11.02.2023 03:04 1,7 C 1,1 C 89 % 1037,9 hPa 0,0 l/m 3,2 km/h (1 Bft) S-SW 202 0 min 0,0 UV-I 0 W/m 0,1 C 1,7 C 3,2 km/h (1 Bft)
11.02.2023 03:05 1,7 C 1,1 C 89 % 1037,9 hPa 0,0 l/m 1,6 km/h (1 Bft) S-SW 202 0 min 0,0 UV-I 0 W/m 0,1 C 1,7 C 3,2 km/h (1 Bft)
11.02.2023 03:06 1,7 C 1,1 C 89 % 1037,9 hPa 0,0 l/m 4,8 km/h (1 Bft) S-SW 202 0 min 0,0 UV-I 0 W/m 0,1 C 1,7 C 8,0 km/h (2 Bft)
11.02.2023 03:07 1,7 C 1,1 C 89 % 1037,8 hPa 0,0 l/m 3,2 km/h (1 Bft) S-SW 202 0 min 0,0 UV-I 0 W/m 0,1 C 1,7 C 6,4 km/h (2 Bft)
11.02.2023 03:08 1,7 C 1,1 C 89 % 1037,8 hPa 0,0 l/m 3,2 km/h (1 Bft) S-SW 202 0 min 0,0 UV-I 0 W/m 0,1 C 1,7 C 6,4 km/h (2 Bft)
11.02.2023 03:09 1,7 C 1,1 C 89 % 1037,9 hPa 0,0 l/m 4,8 km/h (1 Bft) S-SW 202 0 min 0,0 UV-I 0 W/m 0,1 C 1,7 C 6,4 km/h (2 Bft)
11.02.2023 03:10 1,7 C 1,1 C 89 % 1037,8 hPa 0,0 l/m 3,2 km/h (1 Bft) S-SW 202 0 min 0,0 UV-I 0 W/m 0,1 C 1,7 C 6,4 km/h (2 Bft)
11.02.2023 03:11 1,7 C 1,1 C 89 % 1037,9 hPa 0,0 l/m 1,6 km/h (1 Bft) S-SW 202 0 min 0,0 UV-I 0 W/m 0,1 C 1,7 C 3,2 km/h (1 Bft)
11.02.2023 03:12 1,7 C 1,1 C 89 % 1037,9 hPa 0,0 l/m 1,6 km/h (1 Bft) S-SW 202 0 min 0,0 UV-I 0 W/m 0,1 C 1,7 C 3,2 km/h (1 Bft)
11.02.2023 03:13 1,7 C 1,1 C 89 % 1037,9 hPa 0,0 l/m 3,2 km/h (1 Bft) S-SW 202 0 min 0,0 UV-I 0 W/m 0,1 C 1,7 C 8,0 km/h (2 Bft)
11.02.2023 03:14 1,7 C 1,1 C 89 % 1037,9 hPa 0,0 l/m 4,8 km/h (1 Bft) S 180 0 min 0,0 UV-I 0 W/m 0,1 C 1,7 C 6,4 km/h (2 Bft)
11.02.2023 03:15 1,7 C 1,1 C 89 % 1037,9 hPa 0,0 l/m 3,2 km/h (1 Bft) S 180 0 min 0,0 UV-I 0 W/m 0,1 C 1,7 C 6,4 km/h (2 Bft)
11.02.2023 03:16 1,7 C 1,1 C 89 % 1037,9 hPa 0,0 l/m 4,8 km/h (1 Bft) SW 225 0 min 0,0 UV-I 0 W/m 0,1 C 1,7 C 11,3 km/h (2 Bft)
11.02.2023 03:17 1,7 C 1,1 C 89 % 1037,9 hPa 0,0 l/m 6,4 km/h (2 Bft) SW 225 0 min 0,0 UV-I 0 W/m 0,1 C 1,7 C 11,3 km/h (2 Bft)
11.02.2023 03:18 1,7 C 1,1 C 89 % 1037,9 hPa 0,0 l/m 4,8 km/h (1 Bft) S-SW 202 0 min 0,0 UV-I 0 W/m 0,1 C 1,7 C 8,0 km/h (2 Bft)
11.02.2023 03:19 1,7 C 1,1 C 89 % 1037,9 hPa 0,0 l/m 4,8 km/h (1 Bft) S-SW 202 0 min 0,0 UV-I 0 W/m 0,1 C 1,7 C 8,0 km/h (2 Bft)
11.02.2023 03:20 1,7 C 1,1 C 89 % 1037,9 hPa 0,0 l/m 6,4 km/h (2 Bft) S-SW 202 0 min 0,0 UV-I 0 W/m 0,1 C 1,7 C 9,7 km/h (2 Bft)
11.02.2023 03:21 1,7 C 1,1 C 89 % 1037,9 hPa 0,0 l/m 8,0 km/h (2 Bft) S-SW 202 0 min 0,0 UV-I 0 W/m 0,1 C 0,1 C 11,3 km/h (2 Bft)
11.02.2023 03:22 1,7 C 1,1 C 89 % 1037,8 hPa 0,0 l/m 9,7 km/h (2 Bft) S 180 0 min 0,0 UV-I 0 W/m 0,1 C -1,3 C 11,3 km/h (2 Bft)
11.02.2023 03:23 1,7 C 1,1 C 89 % 1037,8 hPa 0,0 l/m 8,0 km/h (2 Bft) S-SW 202 0 min 0,0 UV-I 0 W/m 0,1 C 0,1 C 12,9 km/h (3 Bft)
11.02.2023 03:24 1,7 C 1,1 C 89 % 1037,8 hPa 0,0 l/m 9,7 km/h (2 Bft) S-SW 202 0 min 0,0 UV-I 0 W/m 0,1 C -1,3 C 12,9 km/h (3 Bft)
11.02.2023 03:25 1,7 C 1,1 C 89 % 1037,7 hPa 0,0 l/m 8,0 km/h (2 Bft) S 180 0 min 0,0 UV-I 0 W/m 0,1 C 0,1 C 12,9 km/h (3 Bft)
11.02.2023 03:26 1,7 C 1,1 C 89 % 1037,7 hPa 0,0 l/m 8,0 km/h (2 Bft) S-SW 202 0 min 0,0 UV-I 0 W/m 0,1 C 0,1 C 11,3 km/h (2 Bft)
11.02.2023 03:27 1,7 C 1,1 C 89 % 1037,7 hPa 0,0 l/m 8,0 km/h (2 Bft) S-SW 202 0 min 0,0 UV-I 0 W/m 0,1 C 0,1 C 9,7 km/h (2 Bft)
11.02.2023 03:28 1,7 C 1,1 C 89 % 1037,6 hPa 0,0 l/m 6,4 km/h (2 Bft) S-SW 202 0 min 0,0 UV-I 0 W/m 0,1 C 1,7 C 9,7 km/h (2 Bft)
11.02.2023 03:29 1,7 C 1,1 C 89 % 1037,7 hPa 0,0 l/m 6,4 km/h (2 Bft) S-SW 202 0 min 0,0 UV-I 0 W/m 0,1 C 1,7 C 9,7 km/h (2 Bft)
11.02.2023 03:30 1,7 C 1,1 C 89 % 1037,8 hPa 0,0 l/m 6,4 km/h (2 Bft) S-SW 202 0 min 0,0 UV-I 0 W/m 0,1 C 1,7 C 11,3 km/h (2 Bft)
11.02.2023 03:31 1,7 C 1,7 C 89 % 1037,8 hPa 0,0 l/m 6,4 km/h (2 Bft) SW 225 0 min 0,0 UV-I 0 W/m 0,1 C 1,7 C 9,7 km/h (2 Bft)
11.02.2023 03:32 1,7 C 1,7 C 89 % 1037,8 hPa 0,0 l/m 6,4 km/h (2 Bft) S-SW 202 0 min 0,0 UV-I 0 W/m 0,1 C 1,7 C 9,7 km/h (2 Bft)
11.02.2023 03:33 1,7 C 1,7 C 89 % 1037,8 hPa 0,0 l/m 4,8 km/h (1 Bft) S-SW 202 0 min 0,0 UV-I 0 W/m 0,1 C 1,7 C 6,4 km/h (2 Bft)
11.02.2023 03:34 1,7 C 1,7 C 89 % 1037,8 hPa 0,0 l/m 6,4 km/h (2 Bft) S-SW 202 0 min 0,0 UV-I 0 W/m 0,1 C 1,7 C 8,0 km/h (2 Bft)
11.02.2023 03:35 1,8 C 1,7 C 89 % 1037,8 hPa 0,0 l/m 6,4 km/h (2 Bft) SW 225 0 min 0,0 UV-I 0 W/m 0,2 C 1,8 C 8,0 km/h (2 Bft)
11.02.2023 03:36 1,8 C 1,7 C 89 % 1037,9 hPa 0,0 l/m 4,8 km/h (1 Bft) SW 225 0 min 0,0 UV-I 0 W/m 0,2 C 1,8 C 8,0 km/h (2 Bft)
11.02.2023 03:37 1,8 C 1,7 C 89 % 1037,9 hPa 0,0 l/m 4,8 km/h (1 Bft) SW 225 0 min 0,0 UV-I 0 W/m 0,2 C 1,8 C 8,0 km/h (2 Bft)
11.02.2023 03:38 1,8 C 1,7 C 89 % 1038,0 hPa 0,0 l/m 8,0 km/h (2 Bft) S-SW 202 0 min 0,0 UV-I 0 W/m 0,2 C 0,2 C 11,3 km/h (2 Bft)
11.02.2023 03:39 1,8 C 1,7 C 89 % 1037,9 hPa 0,0 l/m 8,0 km/h (2 Bft) SW 225 0 min 0,0 UV-I 0 W/m 0,2 C 0,2 C 9,7 km/h (2 Bft)
11.02.2023 03:40 1,8 C 1,7 C 89 % 1037,9 hPa 0,0 l/m 6,4 km/h (2 Bft) S-SW 202 0 min 0,0 UV-I 0 W/m 0,2 C 1,8 C 8,0 km/h (2 Bft)
11.02.2023 03:41 1,8 C 1,7 C 89 % 1037,9 hPa 0,0 l/m 6,4 km/h (2 Bft) S-SW 202 0 min 0,0 UV-I 0 W/m 0,2 C 1,8 C 8,0 km/h (2 Bft)
11.02.2023 03:42 1,8 C 1,7 C 89 % 1038,0 hPa 0,0 l/m 4,8 km/h (1 Bft) S-SW 202 0 min 0,0 UV-I 0 W/m 0,2 C 1,8 C 8,0 km/h (2 Bft)
11.02.2023 03:43 1,8 C 1,7 C 89 % 1038,0 hPa 0,0 l/m 3,2 km/h (1 Bft) S-SW 202 0 min 0,0 UV-I 0 W/m 0,2 C 1,8 C 4,8 km/h (1 Bft)
11.02.2023 03:44 1,8 C 1,7 C 89 % 1037,9 hPa 0,0 l/m 3,2 km/h (1 Bft) S-SW 202 0 min 0,0 UV-I 0 W/m 0,2 C 1,8 C 4,8 km/h (1 Bft)
11.02.2023 03:45 1,8 C 1,7 C 89 % 1038,0 hPa 0,0 l/m 6,4 km/h (2 Bft) S-SO 157 0 min 0,0 UV-I 0 W/m 0,2 C 1,8 C 8,0 km/h (2 Bft)
11.02.2023 03:46 1,8 C 1,7 C 89 % 1037,8 hPa 0,0 l/m 4,8 km/h (1 Bft) S 180 0 min 0,0 UV-I 0 W/m 0,2 C 1,8 C 9,7 km/h (2 Bft)
11.02.2023 03:47 1,8 C 1,7 C 89 % 1038,0 hPa 0,0 l/m 3,2 km/h (1 Bft) S 180 0 min 0,0 UV-I 0 W/m 0,2 C 1,8 C 6,4 km/h (2 Bft)
11.02.2023 03:48 1,8 C 1,7 C 89 % 1038,0 hPa 0,0 l/m 3,2 km/h (1 Bft) S 180 0 min 0,0 UV-I 0 W/m 0,2 C 1,8 C 4,8 km/h (1 Bft)
11.02.2023 03:49 1,8 C 1,7 C 89 % 1037,9 hPa 0,0 l/m 1,6 km/h (1 Bft) S 180 0 min 0,0 UV-I 0 W/m 0,2 C 1,8 C 4,8 km/h (1 Bft)
11.02.2023 03:50 1,8 C 1,7 C 89 % 1038,0 hPa 0,0 l/m 1,6 km/h (1 Bft) S 180 0 min 0,0 UV-I 0 W/m 0,2 C 1,8 C 3,2 km/h (1 Bft)
11.02.2023 03:51 1,8 C 1,7 C 89 % 1038,0 hPa 0,0 l/m 3,2 km/h (1 Bft) S 180 0 min 0,0 UV-I 0 W/m 0,2 C 1,8 C 6,4 km/h (2 Bft)
11.02.2023 03:52 1,8 C 1,7 C 89 % 1038,0 hPa 0,0 l/m 6,4 km/h (2 Bft) S-SW 202 0 min 0,0 UV-I 0 W/m 0,2 C 1,8 C 8,0 km/h (2 Bft)
11.02.2023 03:53 1,8 C 1,7 C 89 % 1038,0 hPa 0,0 l/m 6,4 km/h (2 Bft) S-SW 202 0 min 0,0 UV-I 0 W/m 0,2 C 1,8 C 8,0 km/h (2 Bft)
11.02.2023 03:54 1,8 C 1,7 C 89 % 1038,0 hPa 0,0 l/m 4,8 km/h (1 Bft) S-SW 202 0 min 0,0 UV-I 0 W/m 0,2 C 1,8 C 6,4 km/h (2 Bft)
11.02.2023 03:55 1,8 C 1,7 C 89 % 1038,1 hPa 0,0 l/m 4,8 km/h (1 Bft) S-SW 202 0 min 0,0 UV-I 0 W/m 0,2 C 1,8 C 6,4 km/h (2 Bft)
11.02.2023 03:56 1,8 C 1,7 C 89 % 1038,0 hPa 0,0 l/m 3,2 km/h (1 Bft) S-SW 202 0 min 0,0 UV-I 0 W/m 0,2 C 1,8 C 4,8 km/h (1 Bft)
11.02.2023 03:57 1,8 C 1,7 C 89 % 1037,9 hPa 0,0 l/m 3,2 km/h (1 Bft) S-SW 202 0 min 0,0 UV-I 0 W/m 0,2 C 1,8 C 4,8 km/h (1 Bft)
11.02.2023 03:58 1,8 C 1,7 C 89 % 1038,0 hPa 0,0 l/m 4,8 km/h (1 Bft) S-SW 202 0 min 0,0 UV-I 0 W/m 0,2 C 1,8 C 6,4 km/h (2 Bft)
11.02.2023 03:59 1,8 C 1,7 C 89 % 1038,0 hPa 0,0 l/m 4,8 km/h (1 Bft) S-SW 202 0 min 0,0 UV-I 0 W/m 0,2 C 1,8 C 6,4 km/h (2 Bft)
11.02.2023 04:00 1,8 C 1,7 C 89 % 1037,9 hPa 0,0 l/m 3,2 km/h (1 Bft) S-SW 202 0 min 0,0 UV-I 0 W/m 0,2 C 1,8 C 6,4 km/h (2 Bft)
11.02.2023 04:01 1,8 C 1,7 C 89 % 1037,9 hPa 0,0 l/m 3,2 km/h (1 Bft) S-SW 202 0 min 0,0 UV-I 0 W/m 0,2 C 1,8 C 6,4 km/h (2 Bft)
11.02.2023 04:02 1,8 C 1,7 C 89 % 1037,9 hPa 0,0 l/m 6,4 km/h (2 Bft) S-SW 202 0 min 0,0 UV-I 0 W/m 0,2 C 1,8 C 9,7 km/h (2 Bft)
11.02.2023 04:03 1,8 C 1,7 C 89 % 1037,9 hPa 0,0 l/m 4,8 km/h (1 Bft) S-SW 202 0 min 0,0 UV-I 0 W/m 0,2 C 1,8 C 6,4 km/h (2 Bft)
11.02.2023 04:04 1,8 C 1,7 C 89 % 1037,8 hPa 0,0 l/m 4,8 km/h (1 Bft) S-SW 202 0 min 0,0 UV-I 0 W/m 0,2 C 1,8 C 8,0 km/h (2 Bft)
11.02.2023 04:05 1,8 C 1,7 C 89 % 1037,8 hPa 0,0 l/m 4,8 km/h (1 Bft) S-SW 202 0 min 0,0 UV-I 0 W/m 0,2 C 1,8 C 8,0 km/h (2 Bft)
11.02.2023 04:06 1,8 C 1,7 C 89 % 1037,9 hPa 0,0 l/m 4,8 km/h (1 Bft) S-SW 202 0 min 0,0 UV-I 0 W/m 0,2 C 1,8 C 8,0 km/h (2 Bft)
11.02.2023 04:07 1,8 C 1,7 C 89 % 1037,8 hPa 0,0 l/m 8,0 km/h (2 Bft) S-SW 202 0 min 0,0 UV-I 0 W/m 0,2 C 0,2 C 9,7 km/h (2 Bft)
11.02.2023 04:08 1,8 C 1,7 C 89 % 1037,6 hPa 0,0 l/m 6,4 km/h (2 Bft) S-SW 202 0 min 0,0 UV-I 0 W/m 0,2 C 1,8 C 11,3 km/h (2 Bft)
11.02.2023 04:09 1,8 C 1,7 C 89 % 1037,7 hPa 0,0 l/m 4,8 km/h (1 Bft) S 180 0 min 0,0 UV-I 0 W/m 0,2 C 1,8 C 8,0 km/h (2 Bft)
11.02.2023 04:10 1,8 C 1,7 C 89 % 1037,6 hPa 0,0 l/m 8,0 km/h (2 Bft) S-SW 202 0 min 0,0 UV-I 0 W/m 0,2 C 0,2 C 11,3 km/h (2 Bft)
11.02.2023 04:11 1,8 C 1,7 C 89 % 1037,6 hPa 0,0 l/m 6,4 km/h (2 Bft) S-SW 202 0 min 0,0 UV-I 0 W/m 0,2 C 1,8 C 8,0 km/h (2 Bft)
11.02.2023 04:12 1,9 C 1,7 C 89 % 1037,6 hPa 0,0 l/m 6,4 km/h (2 Bft) S-SW 202 0 min 0,0 UV-I 0 W/m 0,3 C 1,9 C 8,0 km/h (2 Bft)
11.02.2023 04:13 1,8 C 1,7 C 89 % 1037,6 hPa 0,0 l/m 6,4 km/h (2 Bft) S-SW 202 0 min 0,0 UV-I 0 W/m 0,2 C 1,8 C 8,0 km/h (2 Bft)
11.02.2023 04:14 1,8 C 1,7 C 89 % 1037,6 hPa 0,0 l/m 8,0 km/h (2 Bft) S-SW 202 0 min 0,0 UV-I 0 W/m 0,2 C 0,2 C 9,7 km/h (2 Bft)
11.02.2023 04:15 1,9 C 1,7 C 89 % 1037,7 hPa 0,0 l/m 8,0 km/h (2 Bft) SW 225 0 min 0,0 UV-I 0 W/m 0,3 C 0,3 C 11,3 km/h (2 Bft)
11.02.2023 04:16 1,9 C 1,7 C 89 % 1037,6 hPa 0,0 l/m 6,4 km/h (2 Bft) S-SW 202 0 min 0,0 UV-I 0 W/m 0,3 C 1,9 C 11,3 km/h (2 Bft)
11.02.2023 04:17 1,9 C 1,7 C 89 % 1037,5 hPa 0,0 l/m 6,4 km/h (2 Bft) S-SW 202 0 min 0,0 UV-I 0 W/m 0,3 C 1,9 C 11,3 km/h (2 Bft)
11.02.2023 04:18 1,9 C 1,7 C 89 % 1037,6 hPa 0,0 l/m 8,0 km/h (2 Bft) S-SW 202 0 min 0,0 UV-I 0 W/m 0,3 C 0,3 C 11,3 km/h (2 Bft)
11.02.2023 04:19 1,9 C 1,7 C 89 % 1037,5 hPa 0,0 l/m 11,3 km/h (2 Bft) S 180 0 min 0,0 UV-I 0 W/m 0,3 C -2,3 C 14,5 km/h (3 Bft)
11.02.2023 04:20 1,9 C 1,7 C 89 % 1037,5 hPa 0,0 l/m 8,0 km/h (2 Bft) S-SW 202 0 min 0,0 UV-I 0 W/m 0,3 C 0,3 C 11,3 km/h (2 Bft)
11.02.2023 04:21 1,9 C 1,7 C 89 % 1037,6 hPa 0,0 l/m 4,8 km/h (1 Bft) S-SW 202 0 min 0,0 UV-I 0 W/m 0,3 C 1,9 C 8,0 km/h (2 Bft)
11.02.2023 04:22 2,0 C 1,7 C 89 % 1037,5 hPa 0,0 l/m 4,8 km/h (1 Bft) S 180 0 min 0,0 UV-I 0 W/m 0,4 C 2,0 C 9,7 km/h (2 Bft)
11.02.2023 04:23 1,9 C 1,7 C 89 % 1037,6 hPa 0,0 l/m 4,8 km/h (1 Bft) S 180 0 min 0,0 UV-I 0 W/m 0,3 C 1,9 C 6,4 km/h (2 Bft)
11.02.2023 04:24 1,9 C 1,7 C 89 % 1037,6 hPa 0,0 l/m 4,8 km/h (1 Bft) S-SW 202 0 min 0,0 UV-I 0 W/m 0,3 C 1,9 C 6,4 km/h (2 Bft)
11.02.2023 04:25 1,9 C 1,7 C 89 % 1037,7 hPa 0,0 l/m 3,2 km/h (1 Bft) S-SW 202 0 min 0,0 UV-I 0 W/m 0,3 C 1,9 C 4,8 km/h (1 Bft)
11.02.2023 04:26 2,0 C 1,7 C 89 % 1037,6 hPa 0,0 l/m 4,8 km/h (1 Bft) S-SW 202 0 min 0,0 UV-I 0 W/m 0,4 C 2,0 C 8,0 km/h (2 Bft)
11.02.2023 04:27 2,0 C 1,7 C 89 % 1037,7 hPa 0,0 l/m 3,2 km/h (1 Bft) S-SW 202 0 min 0,0 UV-I 0 W/m 0,4 C 2,0 C 6,4 km/h (2 Bft)
11.02.2023 04:28 1,9 C 1,7 C 89 % 1037,7 hPa 0,0 l/m 4,8 km/h (1 Bft) S-SW 202 0 min 0,0 UV-I 0 W/m 0,3 C 1,9 C 8,0 km/h (2 Bft)
11.02.2023 04:29 2,0 C 1,7 C 89 % 1037,6 hPa 0,0 l/m 4,8 km/h (1 Bft) S-SW 202 0 min 0,0 UV-I 0 W/m 0,4 C 2,0 C 6,4 km/h (2 Bft)
11.02.2023 04:30 1,9 C 1,7 C 89 % 1037,7 hPa 0,0 l/m 3,2 km/h (1 Bft) S-SW 202 0 min 0,0 UV-I 0 W/m 0,3 C 1,9 C 4,8 km/h (1 Bft)
11.02.2023 04:31 2,0 C 1,7 C 89 % 1037,7 hPa 0,0 l/m 4,8 km/h (1 Bft) S-SW 202 0 min 0,0 UV-I 0 W/m 0,4 C 2,0 C 6,4 km/h (2 Bft)
11.02.2023 04:32 2,0 C 1,7 C 89 % 1037,6 hPa 0,0 l/m 6,4 km/h (2 Bft) S-SW 202 0 min 0,0 UV-I 0 W/m 0,4 C 2,0 C 8,0 km/h (2 Bft)
11.02.2023 04:33 2,0 C 1,7 C 89 % 1037,5 hPa 0,0 l/m 6,4 km/h (2 Bft) S-SW 202 0 min 0,0 UV-I 0 W/m 0,4 C 2,0 C 9,7 km/h (2 Bft)
11.02.2023 04:34 1,9 C 1,7 C 89 % 1037,6 hPa 0,0 l/m 6,4 km/h (2 Bft) S 180 0 min 0,0 UV-I 0 W/m 0,3 C 1,9 C 9,7 km/h (2 Bft)
11.02.2023 04:35 1,9 C 1,7 C 89 % 1037,5 hPa 0,0 l/m 6,4 km/h (2 Bft) S-SW 202 0 min 0,0 UV-I 0 W/m 0,3 C 1,9 C 8,0 km/h (2 Bft)
11.02.2023 04:36 1,9 C 1,7 C 89 % 1037,5 hPa 0,0 l/m 6,4 km/h (2 Bft) S-SW 202 0 min 0,0 UV-I 0 W/m 0,3 C 1,9 C 9,7 km/h (2 Bft)
11.02.2023 04:37 1,9 C 1,7 C 89 % 1037,5 hPa 0,0 l/m 4,8 km/h (1 Bft) S-SW 202 0 min 0,0 UV-I 0 W/m 0,3 C 1,9 C 8,0 km/h (2 Bft)
11.02.2023 04:38 1,9 C 1,7 C 89 % 1037,5 hPa 0,0 l/m 4,8 km/h (1 Bft) S-SW 202 0 min 0,0 UV-I 0 W/m 0,3 C 1,9 C 4,8 km/h (1 Bft)
11.02.2023 04:39 1,9 C 1,7 C 89 % 1037,5 hPa 0,0 l/m 4,8 km/h (1 Bft) S-SW 202 0 min 0,0 UV-I 0 W/m 0,3 C 1,9 C 6,4 km/h (2 Bft)
11.02.2023 04:40 1,9 C 1,7 C 89 % 1037,4 hPa 0,0 l/m 4,8 km/h (1 Bft) S-SW 202 0 min 0,0 UV-I 0 W/m 0,3 C 1,9 C 8,0 km/h (2 Bft)
11.02.2023 04:41 1,9 C 1,7 C 89 % 1037,4 hPa 0,0 l/m 4,8 km/h (1 Bft) S-SW 202 0 min 0,0 UV-I 0 W/m 0,3 C 1,9 C 6,4 km/h (2 Bft)
11.02.2023 04:42 1,9 C 1,7 C 89 % 1037,4 hPa 0,0 l/m 6,4 km/h (2 Bft) SW 225 0 min 0,0 UV-I 0 W/m 0,3 C 1,9 C 8,0 km/h (2 Bft)
11.02.2023 04:43 1,9 C 1,7 C 89 % 1037,4 hPa 0,0 l/m 4,8 km/h (1 Bft) S-SW 202 0 min 0,0 UV-I 0 W/m 0,3 C 1,9 C 6,4 km/h (2 Bft)
11.02.2023 04:44 1,9 C 1,7 C 89 % 1037,4 hPa 0,0 l/m 6,4 km/h (2 Bft) S-SW 202 0 min 0,0 UV-I 0 W/m 0,3 C 1,9 C 9,7 km/h (2 Bft)
11.02.2023 04:45 1,9 C 1,7 C 89 % 1037,4 hPa 0,0 l/m 8,0 km/h (2 Bft) S-SW 202 0 min 0,0 UV-I 0 W/m 0,3 C 0,3 C 9,7 km/h (2 Bft)
11.02.2023 04:46 1,9 C 1,7 C 90 % 1037,3 hPa 0,0 l/m 6,4 km/h (2 Bft) S-SW 202 0 min 0,0 UV-I 0 W/m 0,4 C 1,9 C 8,0 km/h (2 Bft)
11.02.2023 04:47 1,9 C 1,7 C 90 % 1037,3 hPa 0,0 l/m 8,0 km/h (2 Bft) S-SW 202 0 min 0,0 UV-I 0 W/m 0,4 C 0,3 C 11,3 km/h (2 Bft)
11.02.2023 04:48 1,9 C 1,7 C 90 % 1037,3 hPa 0,0 l/m 8,0 km/h (2 Bft) S 180 0 min 0,0 UV-I 0 W/m 0,4 C 0,3 C 9,7 km/h (2 Bft)
11.02.2023 04:49 1,9 C 1,7 C 90 % 1037,0 hPa 0,0 l/m 6,4 km/h (2 Bft) S-SW 202 0 min 0,0 UV-I 0 W/m 0,4 C 1,9 C 9,7 km/h (2 Bft)
11.02.2023 04:50 1,9 C 1,7 C 90 % 1037,1 hPa 0,0 l/m 9,7 km/h (2 Bft) S-SW 202 0 min 0,0 UV-I 0 W/m 0,4 C -1,1 C 11,3 km/h (2 Bft)
11.02.2023 04:51 1,9 C 1,7 C 90 % 1037,0 hPa 0,0 l/m 9,7 km/h (2 Bft) S-SW 202 0 min 0,0 UV-I 0 W/m 0,4 C -1,1 C 11,3 km/h (2 Bft)
11.02.2023 04:52 1,9 C 1,7 C 90 % 1037,1 hPa 0,0 l/m 6,4 km/h (2 Bft) S-SW 202 0 min 0,0 UV-I 0 W/m 0,4 C 1,9 C 9,7 km/h (2 Bft)
11.02.2023 04:53 1,9 C 1,7 C 90 % 1037,0 hPa 0,0 l/m 8,0 km/h (2 Bft) SW 225 0 min 0,0 UV-I 0 W/m 0,4 C 0,3 C 11,3 km/h (2 Bft)
11.02.2023 04:54 1,9 C 1,7 C 90 % 1037,0 hPa 0,0 l/m 6,4 km/h (2 Bft) S-SW 202 0 min 0,0 UV-I 0 W/m 0,4 C 1,9 C 9,7 km/h (2 Bft)
11.02.2023 04:55 1,9 C 1,7 C 90 % 1037,0 hPa 0,0 l/m 6,4 km/h (2 Bft) S-SW 202 0 min 0,0 UV-I 0 W/m 0,4 C 1,9 C 8,0 km/h (2 Bft)
11.02.2023 04:56 1,9 C 1,7 C 90 % 1037,1 hPa 0,0 l/m 4,8 km/h (1 Bft) SW 225 0 min 0,0 UV-I 0 W/m 0,4 C 1,9 C 8,0 km/h (2 Bft)
11.02.2023 04:57 1,9 C 1,7 C 90 % 1037,0 hPa 0,0 l/m 6,4 km/h (2 Bft) S 180 0 min 0,0 UV-I 0 W/m 0,4 C 1,9 C 8,0 km/h (2 Bft)
11.02.2023 04:58 1,9 C 1,7 C 90 % 1037,1 hPa 0,0 l/m 8,0 km/h (2 Bft) S-SW 202 0 min 0,0 UV-I 0 W/m 0,4 C 0,3 C 9,7 km/h (2 Bft)
11.02.2023 04:59 1,9 C 1,7 C 90 % 1037,1 hPa 0,0 l/m 4,8 km/h (1 Bft) SW 225 0 min 0,0 UV-I 0 W/m 0,4 C 1,9 C 9,7 km/h (2 Bft)
11.02.2023 05:00 1,9 C 1,7 C 90 % 1037,1 hPa 0,0 l/m 6,4 km/h (2 Bft) S-SW 202 0 min 0,0 UV-I 0 W/m 0,4 C 1,9 C 11,3 km/h (2 Bft)
11.02.2023 05:01 1,9 C 1,7 C 90 % 1037,1 hPa 0,0 l/m 6,4 km/h (2 Bft) SW 225 0 min 0,0 UV-I 0 W/m 0,4 C 1,9 C 8,0 km/h (2 Bft)
11.02.2023 05:02 1,9 C 1,7 C 90 % 1037,1 hPa 0,0 l/m 4,8 km/h (1 Bft) S-SW 202 0 min 0,0 UV-I 0 W/m 0,4 C 1,9 C 8,0 km/h (2 Bft)
11.02.2023 05:03 1,9 C 1,7 C 90 % 1037,1 hPa 0,0 l/m 4,8 km/h (1 Bft) S-SW 202 0 min 0,0 UV-I 0 W/m 0,4 C 1,9 C 8,0 km/h (2 Bft)
11.02.2023 05:04 1,9 C 1,7 C 90 % 1037,1 hPa 0,0 l/m 6,4 km/h (2 Bft) SW 225 0 min 0,0 UV-I 0 W/m 0,4 C 1,9 C 9,7 km/h (2 Bft)
11.02.2023 05:05 1,9 C 1,7 C 90 % 1037,0 hPa 0,0 l/m 4,8 km/h (1 Bft) SW 225 0 min 0,0 UV-I 0 W/m 0,4 C 1,9 C 6,4 km/h (2 Bft)
11.02.2023 05:06 1,9 C 1,7 C 90 % 1037,1 hPa 0,0 l/m 3,2 km/h (1 Bft) W 270 0 min 0,0 UV-I 0 W/m 0,4 C 1,9 C 6,4 km/h (2 Bft)
11.02.2023 05:07 1,9 C 1,7 C 90 % 1037,1 hPa 0,0 l/m 4,8 km/h (1 Bft) W-SW 247 0 min 0,0 UV-I 0 W/m 0,4 C 1,9 C 8,0 km/h (2 Bft)
11.02.2023 05:08 1,9 C 1,7 C 90 % 1037,3 hPa 0,0 l/m 4,8 km/h (1 Bft) S-SW 202 0 min 0,0 UV-I 0 W/m 0,4 C 1,9 C 8,0 km/h (2 Bft)
11.02.2023 05:09 1,9 C 1,7 C 90 % 1037,1 hPa 0,0 l/m 1,6 km/h (1 Bft) S-SW 202 0 min 0,0 UV-I 0 W/m 0,4 C 1,9 C 3,2 km/h (1 Bft)
11.02.2023 05:10 1,8 C 1,1 C 90 % 1037,3 hPa 0,0 l/m 3,2 km/h (1 Bft) S-SW 202 0 min 0,0 UV-I 0 W/m 0,3 C 1,8 C 6,4 km/h (2 Bft)
11.02.2023 05:11 1,8 C 1,1 C 90 % 1037,3 hPa 0,0 l/m 4,8 km/h (1 Bft) SW 225 0 min 0,0 UV-I 0 W/m 0,3 C 1,8 C 8,0 km/h (2 Bft)
11.02.2023 05:12 1,8 C 1,1 C 90 % 1037,3 hPa 0,0 l/m 6,4 km/h (2 Bft) SW 225 0 min 0,0 UV-I 0 W/m 0,3 C 1,8 C 8,0 km/h (2 Bft)
11.02.2023 05:13 1,8 C 1,1 C 90 % 1037,3 hPa 0,0 l/m 4,8 km/h (1 Bft) W-SW 247 0 min 0,0 UV-I 0 W/m 0,3 C 1,8 C 6,4 km/h (2 Bft)
11.02.2023 05:14 1,8 C 1,1 C 90 % 1037,4 hPa 0,0 l/m 4,8 km/h (1 Bft) SW 225 0 min 0,0 UV-I 0 W/m 0,3 C 1,8 C 6,4 km/h (2 Bft)
11.02.2023 05:15 1,8 C 1,1 C 90 % 1037,4 hPa 0,0 l/m 3,2 km/h (1 Bft) SW 225 0 min 0,0 UV-I 0 W/m 0,3 C 1,8 C 6,4 km/h (2 Bft)
11.02.2023 05:16 1,8 C 1,1 C 90 % 1037,4 hPa 0,0 l/m 3,2 km/h (1 Bft) SW 225 0 min 0,0 UV-I 0 W/m 0,3 C 1,8 C 6,4 km/h (2 Bft)
11.02.2023 05:17 1,8 C 1,1 C 90 % 1037,5 hPa 0,0 l/m 4,8 km/h (1 Bft) SW 225 0 min 0,0 UV-I 0 W/m 0,3 C 1,8 C 6,4 km/h (2 Bft)
11.02.2023 05:18 1,8 C 1,1 C 90 % 1037,5 hPa 0,0 l/m 3,2 km/h (1 Bft) W-SW 247 0 min 0,0 UV-I 0 W/m 0,3 C 1,8 C 6,4 km/h (2 Bft)
11.02.2023 05:19 1,8 C 1,1 C 90 % 1037,5 hPa 0,0 l/m 3,2 km/h (1 Bft) W-SW 247 0 min 0,0 UV-I 0 W/m 0,3 C 1,8 C 4,8 km/h (1 Bft)
11.02.2023 05:20 1,8 C 1,1 C 90 % 1037,6 hPa 0,0 l/m 3,2 km/h (1 Bft) W-SW 247 0 min 0,0 UV-I 0 W/m 0,3 C 1,8 C 6,4 km/h (2 Bft)
11.02.2023 05:21 1,8 C 1,1 C 90 % 1037,5 hPa 0,0 l/m 4,8 km/h (1 Bft) W-SW 247 0 min 0,0 UV-I 0 W/m 0,3 C 1,8 C 8,0 km/h (2 Bft)
11.02.2023 05:22 1,8 C 1,1 C 90 % 1037,5 hPa 0,0 l/m 8,0 km/h (2 Bft) W 270 0 min 0,0 UV-I 0 W/m 0,3 C 0,2 C 16,1 km/h (3 Bft)
11.02.2023 05:23 1,8 C 1,1 C 90 % 1037,5 hPa 0,0 l/m 11,3 km/h (2 Bft) W-SW 247 0 min 0,0 UV-I 0 W/m 0,3 C -2,4 C 19,3 km/h (3 Bft)
11.02.2023 05:24 1,8 C 1,1 C 90 % 1037,6 hPa 0,0 l/m 8,0 km/h (2 Bft) W-SW 247 0 min 0,0 UV-I 0 W/m 0,3 C 0,2 C 14,5 km/h (3 Bft)
11.02.2023 05:25 1,8 C 1,1 C 90 % 1037,5 hPa 0,0 l/m 9,7 km/h (2 Bft) W-SW 247 0 min 0,0 UV-I 0 W/m 0,3 C -1,2 C 14,5 km/h (3 Bft)
11.02.2023 05:26 1,8 C 1,1 C 90 % 1037,6 hPa 0,0 l/m 14,5 km/h (3 Bft) SW 225 0 min 0,0 UV-I 0 W/m 0,3 C -4,5 C 24,1 km/h (4 Bft)
11.02.2023 05:27 1,8 C 1,7 C 90 % 1037,6 hPa 0,0 l/m 12,9 km/h (3 Bft) S-SW 202 0 min 0,0 UV-I 0 W/m 0,3 C -3,5 C 25,7 km/h (4 Bft)
11.02.2023 05:28 1,8 C 1,7 C 90 % 1037,5 hPa 0,0 l/m 12,9 km/h (3 Bft) W-SW 247 0 min 0,0 UV-I 0 W/m 0,3 C -3,5 C 22,5 km/h (4 Bft)
11.02.2023 05:29 1,8 C 1,7 C 90 % 1037,5 hPa 0,0 l/m 11,3 km/h (2 Bft) SW 225 0 min 0,0 UV-I 0 W/m 0,3 C -2,4 C 19,3 km/h (3 Bft)
11.02.2023 05:30 1,8 C 1,7 C 90 % 1037,5 hPa 0,0 l/m 9,7 km/h (2 Bft) S-SW 202 0 min 0,0 UV-I 0 W/m 0,3 C -1,2 C 16,1 km/h (3 Bft)
11.02.2023 05:31 1,8 C 1,7 C 90 % 1037,4 hPa 0,0 l/m 6,4 km/h (2 Bft) SW 225 0 min 0,0 UV-I 0 W/m 0,3 C 1,8 C 12,9 km/h (3 Bft)
11.02.2023 05:32 1,8 C 1,7 C 89 % 1037,4 hPa 0,0 l/m 8,0 km/h (2 Bft) W-SW 247 0 min 0,0 UV-I 0 W/m 0,2 C 0,2 C 16,1 km/h (3 Bft)
11.02.2023 05:33 1,8 C 1,7 C 89 % 1037,4 hPa 0,0 l/m 8,0 km/h (2 Bft) W-SW 247 0 min 0,0 UV-I 0 W/m 0,2 C 0,2 C 14,5 km/h (3 Bft)
11.02.2023 05:34 1,8 C 1,7 C 89 % 1037,4 hPa 0,0 l/m 8,0 km/h (2 Bft) SW 225 0 min 0,0 UV-I 0 W/m 0,2 C 0,2 C 12,9 km/h (3 Bft)
11.02.2023 05:35 1,8 C 1,7 C 89 % 1037,5 hPa 0,0 l/m 11,3 km/h (2 Bft) SW 225 0 min 0,0 UV-I 0 W/m 0,2 C -2,4 C 19,3 km/h (3 Bft)
11.02.2023 05:36 1,8 C 1,7 C 89 % 1037,4 hPa 0,0 l/m 8,0 km/h (2 Bft) SW 225 0 min 0,0 UV-I 0 W/m 0,2 C 0,2 C 17,7 km/h (3 Bft)
11.02.2023 05:37 1,8 C 1,7 C 89 % 1037,5 hPa 0,0 l/m 8,0 km/h (2 Bft) SW 225 0 min 0,0 UV-I 0 W/m 0,2 C 0,2 C 16,1 km/h (3 Bft)
11.02.2023 05:38 1,8 C 1,7 C 89 % 1037,5 hPa 0,0 l/m 8,0 km/h (2 Bft) W-SW 247 0 min 0,0 UV-I 0 W/m 0,2 C 0,2 C 14,5 km/h (3 Bft)
11.02.2023 05:39 1,8 C 1,7 C 89 % 1037,5 hPa 0,0 l/m 9,7 km/h (2 Bft) W-SW 247 0 min 0,0 UV-I 0 W/m 0,2 C -1,2 C 16,1 km/h (3 Bft)
11.02.2023 05:40 1,8 C 1,7 C 89 % 1037,6 hPa 0,0 l/m 6,4 km/h (2 Bft) SW 225 0 min 0,0 UV-I 0 W/m 0,2 C 1,8 C 14,5 km/h (3 Bft)
11.02.2023 05:41 1,9 C 1,7 C 89 % 1037,6 hPa 0,0 l/m 11,3 km/h (2 Bft) SW 225 0 min 0,0 UV-I 0 W/m 0,3 C -2,3 C 17,7 km/h (3 Bft)
11.02.2023 05:42 1,8 C 1,7 C 89 % 1037,6 hPa 0,0 l/m 8,0 km/h (2 Bft) SW 225 0 min 0,0 UV-I 0 W/m 0,2 C 0,2 C 14,5 km/h (3 Bft)
11.02.2023 05:43 1,9 C 1,7 C 89 % 1037,5 hPa 0,0 l/m 6,4 km/h (2 Bft) SW 225 0 min 0,0 UV-I 0 W/m 0,3 C 1,9 C 12,9 km/h (3 Bft)
11.02.2023 05:44 1,8 C 1,7 C 89 % 1037,5 hPa 0,0 l/m 11,3 km/h (2 Bft) SW 225 0 min 0,0 UV-I 0 W/m 0,2 C -2,4 C 14,5 km/h (3 Bft)
11.02.2023 05:45 1,9 C 1,7 C 89 % 1037,5 hPa 0,0 l/m 8,0 km/h (2 Bft) W-SW 247 0 min 0,0 UV-I 0 W/m 0,3 C 0,3 C 14,5 km/h (3 Bft)
11.02.2023 05:46 1,9 C 1,7 C 89 % 1037,4 hPa 0,0 l/m 6,4 km/h (2 Bft) SW 225 0 min 0,0 UV-I 0 W/m 0,3 C 1,9 C 11,3 km/h (2 Bft)
11.02.2023 05:47 1,9 C 1,7 C 89 % 1037,4 hPa 0,0 l/m 6,4 km/h (2 Bft) SW 225 0 min 0,0 UV-I 0 W/m 0,3 C 1,9 C 11,3 km/h (2 Bft)
11.02.2023 05:48 1,9 C 1,7 C 89 % 1037,4 hPa 0,0 l/m 6,4 km/h (2 Bft) W-SW 247 0 min 0,0 UV-I 0 W/m 0,3 C 1,9 C 11,3 km/h (2 Bft)
11.02.2023 05:49 1,9 C 1,7 C 89 % 1037,4 hPa 0,0 l/m 4,8 km/h (1 Bft) W 270 0 min 0,0 UV-I 0 W/m 0,3 C 1,9 C 9,7 km/h (2 Bft)
11.02.2023 05:50 1,9 C 1,7 C 89 % 1037,3 hPa 0,0 l/m 4,8 km/h (1 Bft) SW 225 0 min 0,0 UV-I 0 W/m 0,3 C 1,9 C 11,3 km/h (2 Bft)
11.02.2023 05:51 1,9 C 1,7 C 89 % 1037,4 hPa 0,0 l/m 4,8 km/h (1 Bft) SW 225 0 min 0,0 UV-I 0 W/m 0,3 C 1,9 C 9,7 km/h (2 Bft)
11.02.2023 05:52 1,9 C 1,7 C 89 % 1037,3 hPa 0,0 l/m 6,4 km/h (2 Bft) SW 225 0 min 0,0 UV-I 0 W/m 0,3 C 1,9 C 12,9 km/h (3 Bft)
11.02.2023 05:53 1,9 C 1,7 C 89 % 1037,4 hPa 0,0 l/m 8,0 km/h (2 Bft) W-SW 247 0 min 0,0 UV-I 0 W/m 0,3 C 0,3 C 12,9 km/h (3 Bft)
11.02.2023 05:54 1,9 C 1,7 C 89 % 1037,4 hPa 0,0 l/m 11,3 km/h (2 Bft) SW 225 0 min 0,0 UV-I 0 W/m 0,3 C -2,3 C 16,1 km/h (3 Bft)
11.02.2023 05:55 1,9 C 1,7 C 89 % 1037,3 hPa 0,0 l/m 9,7 km/h (2 Bft) SW 225 0 min 0,0 UV-I 0 W/m 0,3 C -1,1 C 19,3 km/h (3 Bft)
11.02.2023 05:56 1,9 C 1,7 C 89 % 1037,5 hPa 0,0 l/m 9,7 km/h (2 Bft) W-SW 247 0 min 0,0 UV-I 0 W/m 0,3 C -1,1 C 14,5 km/h (3 Bft)
11.02.2023 05:57 1,9 C 1,7 C 89 % 1037,5 hPa 0,0 l/m 8,0 km/h (2 Bft) S-SW 202 0 min 0,0 UV-I 0 W/m 0,3 C 0,3 C 17,7 km/h (3 Bft)
11.02.2023 05:58 1,9 C 1,7 C 89 % 1037,5 hPa 0,0 l/m 8,0 km/h (2 Bft) W 270 0 min 0,0 UV-I 0 W/m 0,3 C 0,3 C 14,5 km/h (3 Bft)
11.02.2023 05:59 1,9 C 1,7 C 89 % 1037,5 hPa 0,0 l/m 8,0 km/h (2 Bft) W-SW 247 0 min 0,0 UV-I 0 W/m 0,3 C 0,3 C 12,9 km/h (3 Bft)
11.02.2023 06:00 1,9 C 1,7 C 89 % 1037,5 hPa 0,0 l/m 8,0 km/h (2 Bft) SW 225 0 min 0,0 UV-I 0 W/m 0,3 C 0,3 C 12,9 km/h (3 Bft)
11.02.2023 06:01 1,9 C 1,7 C 89 % 1037,5 hPa 0,0 l/m 9,7 km/h (2 Bft) S-SW 202 0 min 0,0 UV-I 0 W/m 0,3 C -1,1 C 12,9 km/h (3 Bft)
11.02.2023 06:02 1,9 C 1,7 C 89 % 1037,4 hPa 0,0 l/m 8,0 km/h (2 Bft) SW 225 0 min 0,0 UV-I 0 W/m 0,3 C 0,3 C 12,9 km/h (3 Bft)
11.02.2023 06:03 1,9 C 1,7 C 89 % 1037,4 hPa 0,0 l/m 6,4 km/h (2 Bft) SW 225 0 min 0,0 UV-I 0 W/m 0,3 C 1,9 C 11,3 km/h (2 Bft)
11.02.2023 06:04 1,9 C 1,7 C 89 % 1037,4 hPa 0,0 l/m 4,8 km/h (1 Bft) SW 225 0 min 0,0 UV-I 0 W/m 0,3 C 1,9 C 8,0 km/h (2 Bft)
11.02.2023 06:05 1,9 C 1,7 C 89 % 1037,4 hPa 0,0 l/m 6,4 km/h (2 Bft) S-SW 202 0 min 0,0 UV-I 0 W/m 0,3 C 1,9 C 11,3 km/h (2 Bft)
11.02.2023 06:06 1,9 C 1,7 C 89 % 1037,3 hPa 0,0 l/m 8,0 km/h (2 Bft) SW 225 0 min 0,0 UV-I 0 W/m 0,3 C 0,3 C 11,3 km/h (2 Bft)
11.02.2023 06:07 1,9 C 1,7 C 89 % 1037,3 hPa 0,0 l/m 8,0 km/h (2 Bft) SW 225 0 min 0,0 UV-I 0 W/m 0,3 C 0,3 C 11,3 km/h (2 Bft)
11.02.2023 06:08 1,9 C 1,7 C 89 % 1037,4 hPa 0,0 l/m 9,7 km/h (2 Bft) S-SW 202 0 min 0,0 UV-I 0 W/m 0,3 C -1,1 C 16,1 km/h (3 Bft)
11.02.2023 06:09 1,9 C 1,7 C 89 % 1037,3 hPa 0,0 l/m 8,0 km/h (2 Bft) SW 225 0 min 0,0 UV-I 0 W/m 0,3 C 0,3 C 11,3 km/h (2 Bft)
11.02.2023 06:10 1,9 C 1,7 C 89 % 1037,3 hPa 0,0 l/m 9,7 km/h (2 Bft) SW 225 0 min 0,0 UV-I 0 W/m 0,3 C -1,1 C 11,3 km/h (2 Bft)
11.02.2023 06:11 1,9 C 1,7 C 89 % 1037,2 hPa 0,0 l/m 9,7 km/h (2 Bft) S-SW 202 0 min 0,0 UV-I 0 W/m 0,3 C -1,1 C 12,9 km/h (3 Bft)
11.02.2023 06:12 1,9 C 1,7 C 89 % 1037,1 hPa 0,0 l/m 11,3 km/h (2 Bft) S-SW 202 0 min 0,0 UV-I 0 W/m 0,3 C -2,3 C 14,5 km/h (3 Bft)
11.02.2023 06:13 1,9 C 1,7 C 89 % 1037,1 hPa 0,0 l/m 9,7 km/h (2 Bft) S-SW 202 0 min 0,0 UV-I 0 W/m 0,3 C -1,1 C 12,9 km/h (3 Bft)
11.02.2023 06:14 1,9 C 1,7 C 89 % 1037,0 hPa 0,0 l/m 6,4 km/h (2 Bft) SW 225 0 min 0,0 UV-I 0 W/m 0,3 C 1,9 C 12,9 km/h (3 Bft)
11.02.2023 06:15 1,9 C 1,7 C 89 % 1037,0 hPa 0,0 l/m 9,7 km/h (2 Bft) S-SW 202 0 min 0,0 UV-I 0 W/m 0,3 C -1,1 C 14,5 km/h (3 Bft)
11.02.2023 06:16 1,9 C 1,7 C 89 % 1037,0 hPa 0,0 l/m 8,0 km/h (2 Bft) SW 225 0 min 0,0 UV-I 0 W/m 0,3 C 0,3 C 14,5 km/h (3 Bft)
11.02.2023 06:17 1,9 C 1,7 C 89 % 1037,1 hPa 0,0 l/m 6,4 km/h (2 Bft) SW 225 0 min 0,0 UV-I 0 W/m 0,3 C 1,9 C 9,7 km/h (2 Bft)
11.02.2023 06:18 1,9 C 1,7 C 89 % 1037,1 hPa 0,0 l/m 8,0 km/h (2 Bft) S-SW 202 0 min 0,0 UV-I 0 W/m 0,3 C 0,3 C 11,3 km/h (2 Bft)
11.02.2023 06:19 1,8 C 1,7 C 90 % 1037,0 hPa 0,0 l/m 8,0 km/h (2 Bft) S-SW 202 0 min 0,0 UV-I 0 W/m 0,3 C 0,2 C 11,3 km/h (2 Bft)
11.02.2023 06:20 1,8 C 1,7 C 90 % 1037,1 hPa 0,0 l/m 9,7 km/h (2 Bft) S-SW 202 0 min 0,0 UV-I 0 W/m 0,3 C -1,2 C 12,9 km/h (3 Bft)
11.02.2023 06:21 1,9 C 1,7 C 90 % 1037,1 hPa 0,0 l/m 8,0 km/h (2 Bft) S-SW 202 0 min 0,0 UV-I 0 W/m 0,4 C 0,3 C 11,3 km/h (2 Bft)
11.02.2023 06:22 1,8 C 1,7 C 90 % 1037,1 hPa 0,0 l/m 6,4 km/h (2 Bft) SW 225 0 min 0,0 UV-I 0 W/m 0,3 C 1,8 C 9,7 km/h (2 Bft)
11.02.2023 06:23 1,9 C 1,7 C 90 % 1037,1 hPa 0,0 l/m 8,0 km/h (2 Bft) S-SW 202 0 min 0,0 UV-I 0 W/m 0,4 C 0,3 C 9,7 km/h (2 Bft)
11.02.2023 06:24 1,8 C 1,7 C 90 % 1037,1 hPa 0,0 l/m 8,0 km/h (2 Bft) SW 225 0 min 0,0 UV-I 0 W/m 0,3 C 0,2 C 11,3 km/h (2 Bft)
11.02.2023 06:25 1,8 C 1,7 C 90 % 1037,1 hPa 0,0 l/m 3,2 km/h (1 Bft) S-SW 202 0 min 0,0 UV-I 0 W/m 0,3 C 1,8 C 9,7 km/h (2 Bft)
11.02.2023 06:26 1,8 C 1,7 C 90 % 1037,0 hPa 0,0 l/m 4,8 km/h (1 Bft) SW 225 0 min 0,0 UV-I 0 W/m 0,3 C 1,8 C 6,4 km/h (2 Bft)
11.02.2023 06:27 1,8 C 1,7 C 90 % 1037,1 hPa 0,0 l/m 4,8 km/h (1 Bft) S-SW 202 0 min 0,0 UV-I 0 W/m 0,3 C 1,8 C 6,4 km/h (2 Bft)
11.02.2023 06:28 1,8 C 1,7 C 90 % 1037,1 hPa 0,0 l/m 8,0 km/h (2 Bft) W-SW 247 0 min 0,0 UV-I 0 W/m 0,3 C 0,2 C 12,9 km/h (3 Bft)
11.02.2023 06:29 1,8 C 1,7 C 90 % 1037,1 hPa 0,0 l/m 4,8 km/h (1 Bft) W-SW 247 0 min 0,0 UV-I 0 W/m 0,3 C 1,8 C 11,3 km/h (2 Bft)
11.02.2023 06:30 1,8 C 1,7 C 90 % 1037,1 hPa 0,0 l/m 4,8 km/h (1 Bft) S-SW 202 0 min 0,0 UV-I 0 W/m 0,3 C 1,8 C 8,0 km/h (2 Bft)
11.02.2023 06:31 1,8 C 1,7 C 90 % 1037,1 hPa 0,0 l/m 6,4 km/h (2 Bft) W-SW 247 0 min 0,0 UV-I 0 W/m 0,3 C 1,8 C 11,3 km/h (2 Bft)
11.02.2023 06:32 1,8 C 1,7 C 90 % 1037,3 hPa 0,0 l/m 6,4 km/h (2 Bft) S-SW 202 0 min 0,0 UV-I 0 W/m 0,3 C 1,8 C 11,3 km/h (2 Bft)
11.02.2023 06:33 1,8 C 1,7 C 90 % 1037,1 hPa 0,0 l/m 3,2 km/h (1 Bft) W 270 0 min 0,0 UV-I 0 W/m 0,3 C 1,8 C 6,4 km/h (2 Bft)
11.02.2023 06:34 1,9 C 1,7 C 90 % 1037,2 hPa 0,0 l/m 3,2 km/h (1 Bft) W 270 0 min 0,0 UV-I 0 W/m 0,4 C 1,9 C 6,4 km/h (2 Bft)
11.02.2023 06:35 1,8 C 1,7 C 90 % 1037,3 hPa 0,0 l/m 4,8 km/h (1 Bft) W-SW 247 0 min 0,0 UV-I 0 W/m 0,3 C 1,8 C 8,0 km/h (2 Bft)
11.02.2023 06:36 1,8 C 1,7 C 90 % 1037,2 hPa 0,0 l/m 4,8 km/h (1 Bft) SW 225 0 min 0,0 UV-I 0 W/m 0,3 C 1,8 C 8,0 km/h (2 Bft)
11.02.2023 06:37 1,8 C 1,7 C 90 % 1037,1 hPa 0,0 l/m 1,6 km/h (1 Bft) SW 225 0 min 0,0 UV-I 0 W/m 0,3 C 1,8 C 3,2 km/h (1 Bft)
11.02.2023 06:38 1,8 C 1,7 C 90 % 1037,1 hPa 0,0 l/m 1,6 km/h (1 Bft) SW 225 0 min 0,0 UV-I 0 W/m 0,3 C 1,8 C 3,2 km/h (1 Bft)
11.02.2023 06:39 1,8 C 1,7 C 90 % 1037,2 hPa 0,0 l/m 1,6 km/h (1 Bft) SW 225 0 min 0,0 UV-I 0 W/m 0,3 C 1,8 C 3,2 km/h (1 Bft)
11.02.2023 06:40 1,8 C 1,7 C 90 % 1037,1 hPa 0,0 l/m 3,2 km/h (1 Bft) SW 225 0 min 0,0 UV-I 0 W/m 0,3 C 1,8 C 4,8 km/h (1 Bft)
11.02.2023 06:41 1,8 C 1,7 C 90 % 1037,2 hPa 0,0 l/m 3,2 km/h (1 Bft) SW 225 0 min 0,0 UV-I 0 W/m 0,3 C 1,8 C 4,8 km/h (1 Bft)
11.02.2023 06:42 1,8 C 1,7 C 90 % 1037,1 hPa 0,0 l/m 1,6 km/h (1 Bft) SW 225 0 min 0,0 UV-I 0 W/m 0,3 C 1,8 C 3,2 km/h (1 Bft)
11.02.2023 06:43 1,8 C 1,7 C 91 % 1037,1 hPa 0,0 l/m 1,6 km/h (1 Bft) SW 225 0 min 0,0 UV-I 0 W/m 0,5 C 1,8 C 3,2 km/h (1 Bft)
11.02.2023 06:44 1,8 C 1,7 C 91 % 1037,0 hPa 0,0 l/m 4,8 km/h (1 Bft) SW 225 0 min 0,0 UV-I 0 W/m 0,5 C 1,8 C 9,7 km/h (2 Bft)
11.02.2023 06:45 1,8 C 1,7 C 91 % 1037,0 hPa 0,0 l/m 6,4 km/h (2 Bft) SW 225 0 min 0,0 UV-I 0 W/m 0,5 C 1,8 C 9,7 km/h (2 Bft)
11.02.2023 06:46 1,8 C 1,7 C 91 % 1037,0 hPa 0,0 l/m 6,4 km/h (2 Bft) SW 225 0 min 0,0 UV-I 0 W/m 0,5 C 1,8 C 8,0 km/h (2 Bft)
11.02.2023 06:47 1,8 C 1,7 C 91 % 1037,0 hPa 0,0 l/m 8,0 km/h (2 Bft) S-SW 202 0 min 0,0 UV-I 0 W/m 0,5 C 0,2 C 11,3 km/h (2 Bft)
11.02.2023 06:48 1,8 C 1,1 C 91 % 1037,1 hPa 0,0 l/m 6,4 km/h (2 Bft) S-SW 202 0 min 0,0 UV-I 0 W/m 0,5 C 1,8 C 8,0 km/h (2 Bft)
11.02.2023 06:49 1,8 C 1,1 C 91 % 1037,1 hPa 0,0 l/m 8,0 km/h (2 Bft) SW 225 0 min 0,0 UV-I 0 W/m 0,5 C 0,2 C 9,7 km/h (2 Bft)
11.02.2023 06:50 1,8 C 1,1 C 91 % 1037,0 hPa 0,0 l/m 4,8 km/h (1 Bft) S-SW 202 0 min 0,0 UV-I 0 W/m 0,5 C 1,8 C 8,0 km/h (2 Bft)
11.02.2023 06:51 1,8 C 1,1 C 91 % 1037,1 hPa 0,0 l/m 6,4 km/h (2 Bft) S-SW 202 0 min 0,0 UV-I 0 W/m 0,5 C 1,8 C 8,0 km/h (2 Bft)
11.02.2023 06:52 1,8 C 1,1 C 91 % 1037,1 hPa 0,0 l/m 4,8 km/h (1 Bft) S-SW 202 0 min 0,0 UV-I 0 W/m 0,5 C 1,8 C 8,0 km/h (2 Bft)
11.02.2023 06:53 1,8 C 1,1 C 91 % 1037,1 hPa 0,0 l/m 6,4 km/h (2 Bft) S-SW 202 0 min 0,0 UV-I 0 W/m 0,5 C 1,8 C 11,3 km/h (2 Bft)
11.02.2023 06:54 1,8 C 1,1 C 91 % 1037,2 hPa 0,0 l/m 6,4 km/h (2 Bft) S-SW 202 0 min 0,0 UV-I 0 W/m 0,5 C 1,8 C 9,7 km/h (2 Bft)
11.02.2023 06:55 1,8 C 1,1 C 91 % 1037,2 hPa 0,0 l/m 6,4 km/h (2 Bft) S 180 0 min 0,0 UV-I 0 W/m 0,5 C 1,8 C 9,7 km/h (2 Bft)
11.02.2023 06:56 1,8 C 1,1 C 91 % 1037,1 hPa 0,0 l/m 4,8 km/h (1 Bft) S-SW 202 0 min 0,0 UV-I 0 W/m 0,5 C 1,8 C 8,0 km/h (2 Bft)
11.02.2023 06:57 1,8 C 1,1 C 91 % 1037,2 hPa 0,0 l/m 8,0 km/h (2 Bft) S-SW 202 0 min 0,0 UV-I 0 W/m 0,5 C 0,2 C 9,7 km/h (2 Bft)
11.02.2023 06:58 1,7 C 1,1 C 91 % 1037,3 hPa 0,0 l/m 8,0 km/h (2 Bft) S-SW 202 0 min 0,0 UV-I 0 W/m 0,4 C 0,1 C 9,7 km/h (2 Bft)
11.02.2023 06:59 1,7 C 1,1 C 91 % 1037,1 hPa 0,0 l/m 9,7 km/h (2 Bft) SW 225 0 min 0,0 UV-I 0 W/m 0,4 C -1,3 C 14,5 km/h (3 Bft)
11.02.2023 07:00 1,8 C 1,1 C 91 % 1037,2 hPa 0,0 l/m 6,4 km/h (2 Bft) S-SW 202 0 min 0,0 UV-I 0 W/m 0,5 C 1,8 C 8,0 km/h (2 Bft)
11.02.2023 07:01 1,7 C 1,1 C 91 % 1037,1 hPa 0,0 l/m 4,8 km/h (1 Bft) SW 225 0 min 0,0 UV-I 0 W/m 0,4 C 1,7 C 6,4 km/h (2 Bft)
11.02.2023 07:02 1,8 C 1,1 C 91 % 1037,1 hPa 0,0 l/m 8,0 km/h (2 Bft) S-SW 202 0 min 0,0 UV-I 0 W/m 0,5 C 0,2 C 9,7 km/h (2 Bft)
11.02.2023 07:03 1,7 C 1,1 C 91 % 1037,0 hPa 0,0 l/m 4,8 km/h (1 Bft) SW 225 0 min 0,0 UV-I 0 W/m 0,4 C 1,7 C 8,0 km/h (2 Bft)
11.02.2023 07:04 1,7 C 1,1 C 91 % 1037,0 hPa 0,0 l/m 8,0 km/h (2 Bft) S-SW 202 0 min 0,0 UV-I 0 W/m 0,4 C 0,1 C 11,3 km/h (2 Bft)
11.02.2023 07:05 1,7 C 1,1 C 91 % 1037,1 hPa 0,0 l/m 4,8 km/h (1 Bft) S-SW 202 0 min 0,0 UV-I 0 W/m 0,4 C 1,7 C 9,7 km/h (2 Bft)
11.02.2023 07:06 1,7 C 1,1 C 91 % 1037,1 hPa 0,0 l/m 4,8 km/h (1 Bft) S-SW 202 0 min 0,0 UV-I 0 W/m 0,4 C 1,7 C 6,4 km/h (2 Bft)
11.02.2023 07:07 1,7 C 1,1 C 91 % 1037,1 hPa 0,0 l/m 3,2 km/h (1 Bft) SW 225 0 min 0,0 UV-I 0 W/m 0,4 C 1,7 C 4,8 km/h (1 Bft)
11.02.2023 07:08 1,7 C 1,1 C 91 % 1037,1 hPa 0,0 l/m 3,2 km/h (1 Bft) SW 225 0 min 0,0 UV-I 0 W/m 0,4 C 1,7 C 6,4 km/h (2 Bft)
11.02.2023 07:09 1,7 C 1,1 C 91 % 1037,1 hPa 0,0 l/m 3,2 km/h (1 Bft) S-SW 202 0 min 0,0 UV-I 0 W/m 0,4 C 1,7 C 8,0 km/h (2 Bft)
11.02.2023 07:10 1,7 C 1,1 C 91 % 1037,2 hPa 0,0 l/m 3,2 km/h (1 Bft) SW 225 0 min 0,0 UV-I 0 W/m 0,4 C 1,7 C 6,4 km/h (2 Bft)
11.02.2023 07:11 1,7 C 1,1 C 91 % 1037,1 hPa 0,0 l/m 4,8 km/h (1 Bft) SW 225 0 min 0,0 UV-I 0 W/m 0,4 C 1,7 C 6,4 km/h (2 Bft)
11.02.2023 07:12 1,7 C 1,1 C 91 % 1037,2 hPa 0,0 l/m 8,0 km/h (2 Bft) S-SW 202 0 min 0,0 UV-I 0 W/m 0,4 C 0,1 C 14,5 km/h (3 Bft)
11.02.2023 07:13 1,7 C 1,1 C 91 % 1037,0 hPa 0,0 l/m 8,0 km/h (2 Bft) S-SW 202 0 min 0,0 UV-I 0 W/m 0,4 C 0,1 C 12,9 km/h (3 Bft)
11.02.2023 07:14 1,7 C 1,1 C 91 % 1037,0 hPa 0,0 l/m 6,4 km/h (2 Bft) S-SW 202 0 min 0,0 UV-I 0 W/m 0,4 C 1,7 C 11,3 km/h (2 Bft)
11.02.2023 07:15 1,7 C 1,1 C 91 % 1037,0 hPa 0,0 l/m 6,4 km/h (2 Bft) SW 225 0 min 0,0 UV-I 0 W/m 0,4 C 1,7 C 11,3 km/h (2 Bft)
11.02.2023 07:16 1,7 C 1,1 C 92 % 1037,0 hPa 0,0 l/m 8,0 km/h (2 Bft) W-SW 247 0 min 0,0 UV-I 0 W/m 0,5 C 0,1 C 12,9 km/h (3 Bft)
11.02.2023 07:17 1,7 C 1,1 C 92 % 1037,0 hPa 0,0 l/m 9,7 km/h (2 Bft) S-SW 202 0 min 0,0 UV-I 0 W/m 0,5 C -1,3 C 12,9 km/h (3 Bft)
11.02.2023 07:18 1,7 C 1,1 C 92 % 1037,0 hPa 0,0 l/m 6,4 km/h (2 Bft) SW 225 0 min 0,0 UV-I 0 W/m 0,5 C 1,7 C 11,3 km/h (2 Bft)
11.02.2023 07:19 1,7 C 1,1 C 92 % 1037,0 hPa 0,0 l/m 4,8 km/h (1 Bft) SW 225 0 min 0,0 UV-I 0 W/m 0,5 C 1,7 C 11,3 km/h (2 Bft)
11.02.2023 07:20 1,7 C 1,1 C 92 % 1037,0 hPa 0,0 l/m 8,0 km/h (2 Bft) SW 225 0 min 0,0 UV-I 0 W/m 0,5 C 0,1 C 12,9 km/h (3 Bft)
11.02.2023 07:21 1,7 C 1,1 C 92 % 1037,0 hPa 0,0 l/m 6,4 km/h (2 Bft) SW 225 0 min 0,0 UV-I 0 W/m 0,5 C 1,7 C 9,7 km/h (2 Bft)
11.02.2023 07:22 1,7 C 1,1 C 92 % 1037,0 hPa 0,0 l/m 3,2 km/h (1 Bft) W-SW 247 0 min 0,0 UV-I 0 W/m 0,5 C 1,7 C 4,8 km/h (1 Bft)
11.02.2023 07:23 1,7 C 1,1 C 92 % 1037,0 hPa 0,0 l/m 3,2 km/h (1 Bft) SW 225 0 min 0,0 UV-I 0 W/m 0,5 C 1,7 C 8,0 km/h (2 Bft)
11.02.2023 07:24 1,7 C 1,1 C 92 % 1037,0 hPa 0,0 l/m 6,4 km/h (2 Bft) W-SW 247 0 min 0,0 UV-I 0 W/m 0,5 C 1,7 C 8,0 km/h (2 Bft)
11.02.2023 07:25 1,7 C 1,1 C 92 % 1037,0 hPa 0,0 l/m 8,0 km/h (2 Bft) S-SW 202 0 min 0,0 UV-I 0 W/m 0,5 C 0,1 C 11,3 km/h (2 Bft)
11.02.2023 07:26 1,7 C 1,1 C 92 % 1037,0 hPa 0,0 l/m 4,8 km/h (1 Bft) W-SW 247 0 min 0,0 UV-I 0 W/m 0,5 C 1,7 C 9,7 km/h (2 Bft)
11.02.2023 07:27 1,8 C 1,1 C 92 % 1037,0 hPa 0,0 l/m 4,8 km/h (1 Bft) W-SW 247 0 min 0,0 UV-I 0 W/m 0,6 C 1,8 C 9,7 km/h (2 Bft)
11.02.2023 07:28 1,7 C 1,1 C 92 % 1037,0 hPa 0,0 l/m 4,8 km/h (1 Bft) SW 225 0 min 0,0 UV-I 0 W/m 0,5 C 1,7 C 8,0 km/h (2 Bft)
11.02.2023 07:29 1,8 C 1,1 C 92 % 1037,1 hPa 0,0 l/m 4,8 km/h (1 Bft) S-SW 202 0 min 0,0 UV-I 0 W/m 0,6 C 1,8 C 8,0 km/h (2 Bft)
11.02.2023 07:30 1,7 C 1,1 C 92 % 1037,1 hPa 0,0 l/m 4,8 km/h (1 Bft) SW 225 0 min 0,0 UV-I 0 W/m 0,5 C 1,7 C 8,0 km/h (2 Bft)
11.02.2023 07:31 1,7 C 1,1 C 92 % 1037,1 hPa 0,0 l/m 4,8 km/h (1 Bft) S-SW 202 0 min 0,0 UV-I 0 W/m 0,5 C 1,7 C 9,7 km/h (2 Bft)
11.02.2023 07:32 1,7 C 1,1 C 92 % 1037,0 hPa 0,0 l/m 3,2 km/h (1 Bft) S-SW 202 0 min 0,0 UV-I 0 W/m 0,5 C 1,7 C 6,4 km/h (2 Bft)
11.02.2023 07:33 1,7 C 1,1 C 92 % 1037,0 hPa 0,0 l/m 4,8 km/h (1 Bft) SW 225 0 min 0,0 UV-I 0 W/m 0,5 C 1,7 C 8,0 km/h (2 Bft)
11.02.2023 07:34 1,7 C 1,1 C 92 % 1037,1 hPa 0,0 l/m 6,4 km/h (2 Bft) S-SW 202 0 min 0,0 UV-I 0 W/m 0,5 C 1,7 C 8,0 km/h (2 Bft)
11.02.2023 07:35 1,7 C 1,1 C 92 % 1037,0 hPa 0,0 l/m 4,8 km/h (1 Bft) SW 225 0 min 0,0 UV-I 0 W/m 0,5 C 1,7 C 6,4 km/h (2 Bft)
11.02.2023 07:36 1,7 C 1,1 C 92 % 1037,1 hPa 0,0 l/m 1,6 km/h (1 Bft) SW 225 0 min 0,0 UV-I 0 W/m 0,5 C 1,7 C 4,8 km/h (1 Bft)
11.02.2023 07:37 1,7 C 1,1 C 92 % 1037,0 hPa 0,0 l/m 0,0 km/h (0 Bft) SW 225 0 min 0,0 UV-I 0 W/m 0,5 C 1,7 C 1,6 km/h (1 Bft)
11.02.2023 07:38 1,7 C 1,1 C 92 % 1037,1 hPa 0,0 l/m 3,2 km/h (1 Bft) W-SW 247 0 min 0,0 UV-I 0 W/m 0,5 C 1,7 C 6,4 km/h (2 Bft)
11.02.2023 07:39 1,7 C 1,1 C 92 % 1037,0 hPa 0,0 l/m 1,6 km/h (1 Bft) W-SW 247 0 min 0,0 UV-I 0 W/m 0,5 C 1,7 C 8,0 km/h (2 Bft)
11.02.2023 07:40 1,7 C 1,1 C 92 % 1037,1 hPa 0,0 l/m 6,4 km/h (2 Bft) SW 225 0 min 0,0 UV-I 0 W/m 0,5 C 1,7 C 8,0 km/h (2 Bft)
11.02.2023 07:41 1,7 C 1,1 C 92 % 1037,1 hPa 0,0 l/m 4,8 km/h (1 Bft) S-SW 202 0 min 0,0 UV-I 0 W/m 0,5 C 1,7 C 11,3 km/h (2 Bft)
11.02.2023 07:42 1,7 C 1,1 C 92 % 1037,0 hPa 0,0 l/m 3,2 km/h (1 Bft) SW 225 0 min 0,0 UV-I 0 W/m 0,5 C 1,7 C 6,4 km/h (2 Bft)
11.02.2023 07:43 1,7 C 1,1 C 92 % 1037,0 hPa 0,0 l/m 8,0 km/h (2 Bft) S-SW 202 0 min 0,0 UV-I 0 W/m 0,5 C 0,1 C 11,3 km/h (2 Bft)
11.02.2023 07:44 1,7 C 1,1 C 92 % 1037,0 hPa 0,0 l/m 6,4 km/h (2 Bft) S 180 0 min 0,0 UV-I 0 W/m 0,5 C 1,7 C 9,7 km/h (2 Bft)
11.02.2023 07:45 1,7 C 1,1 C 92 % 1037,0 hPa 0,0 l/m 4,8 km/h (1 Bft) S-SW 202 0 min 0,0 UV-I 0 W/m 0,5 C 1,7 C 8,0 km/h (2 Bft)
11.02.2023 07:46 1,7 C 1,1 C 92 % 1036,9 hPa 0,0 l/m 6,4 km/h (2 Bft) S 180 0 min 0,0 UV-I 0 W/m 0,5 C 1,7 C 9,7 km/h (2 Bft)
11.02.2023 07:47 1,7 C 1,1 C 92 % 1036,9 hPa 0,0 l/m 8,0 km/h (2 Bft) S-SW 202 0 min 0,0 UV-I 0 W/m 0,5 C 0,1 C 9,7 km/h (2 Bft)
11.02.2023 07:48 1,7 C 1,1 C 92 % 1036,9 hPa 0,0 l/m 6,4 km/h (2 Bft) S-SW 202 0 min 0,0 UV-I 0 W/m 0,5 C 1,7 C 11,3 km/h (2 Bft)
11.02.2023 07:49 1,7 C 1,1 C 92 % 1036,9 hPa 0,0 l/m 8,0 km/h (2 Bft) S-SW 202 0 min 0,0 UV-I 0 W/m 0,5 C 0,1 C 9,7 km/h (2 Bft)
11.02.2023 07:50 1,7 C 1,1 C 92 % 1036,8 hPa 0,0 l/m 4,8 km/h (1 Bft) S-SW 202 0 min 0,0 UV-I 0 W/m 0,5 C 1,7 C 8,0 km/h (2 Bft)
11.02.2023 07:51 1,7 C 1,1 C 92 % 1036,8 hPa 0,0 l/m 8,0 km/h (2 Bft) S-SW 202 0 min 0,0 UV-I 0 W/m 0,5 C 0,1 C 14,5 km/h (3 Bft)
11.02.2023 07:52 1,7 C 1,1 C 92 % 1036,8 hPa 0,0 l/m 8,0 km/h (2 Bft) S 180 0 min 0,0 UV-I 0 W/m 0,5 C 0,1 C 11,3 km/h (2 Bft)
11.02.2023 07:53 1,7 C 1,1 C 92 % 1036,8 hPa 0,0 l/m 6,4 km/h (2 Bft) S-SW 202 0 min 0,0 UV-I 0 W/m 0,5 C 1,7 C 11,3 km/h (2 Bft)
11.02.2023 07:54 1,7 C 1,1 C 92 % 1036,8 hPa 0,0 l/m 4,8 km/h (1 Bft) S 180 0 min 0,0 UV-I 0 W/m 0,5 C 1,7 C 8,0 km/h (2 Bft)
11.02.2023 07:55 1,7 C 1,1 C 92 % 1036,9 hPa 0,0 l/m 3,2 km/h (1 Bft) S 180 0 min 0,0 UV-I 0 W/m 0,5 C 1,7 C 9,7 km/h (2 Bft)
11.02.2023 07:56 1,7 C 1,1 C 92 % 1036,9 hPa 0,0 l/m 3,2 km/h (1 Bft) S-SW 202 0 min 0,0 UV-I 0 W/m 0,5 C 1,7 C 4,8 km/h (1 Bft)
11.02.2023 07:57 1,7 C 1,1 C 92 % 1036,8 hPa 0,0 l/m 3,2 km/h (1 Bft) SW 225 0 min 0,0 UV-I 0 W/m 0,5 C 1,7 C 6,4 km/h (2 Bft)
11.02.2023 07:58 1,7 C 1,1 C 92 % 1036,8 hPa 0,0 l/m 4,8 km/h (1 Bft) SW 225 0 min 0,0 UV-I 0 W/m 0,5 C 1,7 C 12,9 km/h (3 Bft)
11.02.2023 07:59 1,7 C 1,1 C 92 % 1036,9 hPa 0,0 l/m 9,7 km/h (2 Bft) S-SW 202 0 min 0,0 UV-I 0 W/m 0,5 C -1,3 C 12,9 km/h (3 Bft)
11.02.2023 08:00 1,7 C 1,1 C 92 % 1037,0 hPa 0,0 l/m 9,7 km/h (2 Bft) SW 225 0 min 0,0 UV-I 0 W/m 0,5 C -1,3 C 12,9 km/h (3 Bft)
11.02.2023 08:01 1,6 C 1,1 C 92 % 1037,0 hPa 0,0 l/m 8,0 km/h (2 Bft) S-SW 202 0 min 0,0 UV-I 0 W/m 0,4 C 0,0 C 9,7 km/h (2 Bft)
11.02.2023 08:02 1,7 C 1,1 C 92 % 1037,0 hPa 0,0 l/m 6,4 km/h (2 Bft) S 180 0 min 0,0 UV-I 0 W/m 0,5 C 1,7 C 11,3 km/h (2 Bft)
11.02.2023 08:03 1,7 C 1,1 C 92 % 1036,9 hPa 0,0 l/m 9,7 km/h (2 Bft) SW 225 0 min 0,0 UV-I 0 W/m 0,5 C -1,3 C 12,9 km/h (3 Bft)
11.02.2023 08:04 1,7 C 1,1 C 92 % 1036,9 hPa 0,0 l/m 11,3 km/h (2 Bft) S-SW 202 0 min 0,0 UV-I 0 W/m 0,5 C -2,6 C 12,9 km/h (3 Bft)
11.02.2023 08:05 1,7 C 1,1 C 92 % 1037,0 hPa 0,0 l/m 8,0 km/h (2 Bft) SW 225 0 min 0,0 UV-I 0 W/m 0,5 C 0,1 C 11,3 km/h (2 Bft)
11.02.2023 08:06 1,7 C 1,1 C 92 % 1036,9 hPa 0,0 l/m 9,7 km/h (2 Bft) S-SW 202 0 min 0,0 UV-I 5 W/m 0,5 C -1,3 C 12,9 km/h (3 Bft)
11.02.2023 08:07 1,7 C 1,1 C 92 % 1036,9 hPa 0,0 l/m 8,0 km/h (2 Bft) S-SW 202 0 min 0,0 UV-I 5 W/m 0,5 C 0,1 C 11,3 km/h (2 Bft)
11.02.2023 08:08 1,7 C 1,1 C 92 % 1036,9 hPa 0,0 l/m 9,7 km/h (2 Bft) S-SW 202 0 min 0,0 UV-I 5 W/m 0,5 C -1,3 C 12,9 km/h (3 Bft)
11.02.2023 08:09 1,7 C 1,1 C 92 % 1037,0 hPa 0,0 l/m 11,3 km/h (2 Bft) S-SW 202 0 min 0,0 UV-I 5 W/m 0,5 C -2,6 C 16,1 km/h (3 Bft)
11.02.2023 08:10 1,7 C 1,1 C 92 % 1036,9 hPa 0,0 l/m 9,7 km/h (2 Bft) SW 225 0 min 0,0 UV-I 5 W/m 0,5 C -1,3 C 12,9 km/h (3 Bft)
11.02.2023 08:11 1,7 C 1,1 C 92 % 1036,9 hPa 0,0 l/m 8,0 km/h (2 Bft) S-SW 202 0 min 0,0 UV-I 5 W/m 0,5 C 0,1 C 12,9 km/h (3 Bft)
11.02.2023 08:12 1,7 C 1,1 C 92 % 1037,0 hPa 0,0 l/m 9,7 km/h (2 Bft) S-SW 202 0 min 0,0 UV-I 5 W/m 0,5 C -1,3 C 14,5 km/h (3 Bft)
11.02.2023 08:13 1,7 C 1,7 C 92 % 1037,0 hPa 0,0 l/m 9,7 km/h (2 Bft) S-SW 202 0 min 0,0 UV-I 7 W/m 0,5 C -1,3 C 12,9 km/h (3 Bft)
11.02.2023 08:14 1,7 C 1,7 C 92 % 1037,1 hPa 0,0 l/m 9,7 km/h (2 Bft) S-SW 202 0 min 0,0 UV-I 7 W/m 0,5 C -1,3 C 14,5 km/h (3 Bft)
11.02.2023 08:15 1,7 C 1,7 C 92 % 1037,0 hPa 0,0 l/m 11,3 km/h (2 Bft) S-SW 202 0 min 0,0 UV-I 7 W/m 0,5 C -2,6 C 14,5 km/h (3 Bft)
11.02.2023 08:16 1,7 C 1,7 C 92 % 1037,0 hPa 0,0 l/m 9,7 km/h (2 Bft) S-SW 202 0 min 0,0 UV-I 7 W/m 0,5 C -1,3 C 14,5 km/h (3 Bft)
11.02.2023 08:17 1,7 C 1,7 C 92 % 1037,0 hPa 0,0 l/m 8,0 km/h (2 Bft) S-SW 202 0 min 0,0 UV-I 7 W/m 0,5 C 0,1 C 11,3 km/h (2 Bft)
11.02.2023 08:18 1,7 C 1,7 C 93 % 1037,0 hPa 0,0 l/m 9,7 km/h (2 Bft) SW 225 0 min 0,0 UV-I 9 W/m 0,7 C -1,3 C 12,9 km/h (3 Bft)
11.02.2023 08:19 1,7 C 1,7 C 92 % 1037,1 hPa 0,0 l/m 9,7 km/h (2 Bft) S-SW 202 0 min 0,0 UV-I 9 W/m 0,5 C -1,3 C 16,1 km/h (3 Bft)
11.02.2023 08:20 1,7 C 1,7 C 93 % 1037,1 hPa 0,0 l/m 8,0 km/h (2 Bft) S-SW 202 0 min 0,0 UV-I 9 W/m 0,7 C 0,1 C 12,9 km/h (3 Bft)
11.02.2023 08:21 1,7 C 1,7 C 92 % 1037,2 hPa 0,0 l/m 8,0 km/h (2 Bft) S-SW 202 0 min 0,0 UV-I 9 W/m 0,5 C 0,1 C 12,9 km/h (3 Bft)
11.02.2023 08:22 1,7 C 1,7 C 92 % 1037,3 hPa 0,0 l/m 6,4 km/h (2 Bft) S-SW 202 0 min 0,0 UV-I 9 W/m 0,5 C 1,7 C 14,5 km/h (3 Bft)
11.02.2023 08:23 1,7 C 1,7 C 92 % 1037,3 hPa 0,0 l/m 6,4 km/h (2 Bft) S-SW 202 0 min 0,0 UV-I 9 W/m 0,5 C 1,7 C 11,3 km/h (2 Bft)
11.02.2023 08:24 1,8 C 1,7 C 92 % 1037,3 hPa 0,0 l/m 6,4 km/h (2 Bft) S-SW 202 0 min 0,0 UV-I 9 W/m 0,6 C 1,8 C 8,0 km/h (2 Bft)
11.02.2023 08:25 1,7 C 1,7 C 92 % 1037,4 hPa 0,0 l/m 8,0 km/h (2 Bft) S-SW 202 0 min 0,0 UV-I 11 W/m 0,5 C 0,1 C 14,5 km/h (3 Bft)
11.02.2023 08:26 1,8 C 1,7 C 92 % 1037,4 hPa 0,0 l/m 9,7 km/h (2 Bft) S-SW 202 0 min 0,0 UV-I 12 W/m 0,6 C -1,2 C 14,5 km/h (3 Bft)
11.02.2023 08:27 1,7 C 1,7 C 92 % 1037,3 hPa 0,0 l/m 9,7 km/h (2 Bft) SW 225 0 min 0,0 UV-I 12 W/m 0,5 C -1,3 C 16,1 km/h (3 Bft)
11.02.2023 08:28 1,7 C 1,7 C 93 % 1037,3 hPa 0,0 l/m 6,4 km/h (2 Bft) S-SW 202 0 min 0,0 UV-I 12 W/m 0,7 C 1,7 C 9,7 km/h (2 Bft)
11.02.2023 08:29 1,7 C 1,7 C 93 % 1037,4 hPa 0,0 l/m 8,0 km/h (2 Bft) S-SW 202 0 min 0,0 UV-I 12 W/m 0,7 C 0,1 C 11,3 km/h (2 Bft)
11.02.2023 08:30 1,8 C 1,7 C 93 % 1037,3 hPa 0,0 l/m 8,0 km/h (2 Bft) S-SW 202 0 min 0,0 UV-I 12 W/m 0,8 C 0,2 C 11,3 km/h (2 Bft)
11.02.2023 08:31 1,8 C 1,7 C 93 % 1037,4 hPa 0,0 l/m 9,7 km/h (2 Bft) S-SW 202 0 min 0,0 UV-I 12 W/m 0,8 C -1,2 C 12,9 km/h (3 Bft)
11.02.2023 08:32 1,8 C 1,7 C 93 % 1037,3 hPa 0,0 l/m 11,3 km/h (2 Bft) S-SW 202 0 min 0,0 UV-I 12 W/m 0,8 C -2,4 C 14,5 km/h (3 Bft)
11.02.2023 08:33 1,8 C 1,7 C 93 % 1037,4 hPa 0,0 l/m 8,0 km/h (2 Bft) S-SW 202 0 min 0,0 UV-I 12 W/m 0,8 C 0,2 C 12,9 km/h (3 Bft)
11.02.2023 08:34 1,8 C 1,7 C 93 % 1037,4 hPa 0,0 l/m 8,0 km/h (2 Bft) S 180 0 min 0,0 UV-I 14 W/m 0,8 C 0,2 C 9,7 km/h (2 Bft)
11.02.2023 08:35 1,8 C 1,7 C 93 % 1037,3 hPa 0,0 l/m 9,7 km/h (2 Bft) S-SW 202 0 min 0,0 UV-I 12 W/m 0,8 C -1,2 C 14,5 km/h (3 Bft)
11.02.2023 08:36 1,8 C 1,7 C 93 % 1037,4 hPa 0,0 l/m 9,7 km/h (2 Bft) S-SW 202 0 min 0,0 UV-I 16 W/m 0,8 C -1,2 C 14,5 km/h (3 Bft)
11.02.2023 08:37 1,8 C 1,7 C 93 % 1037,4 hPa 0,0 l/m 9,7 km/h (2 Bft) S-SW 202 0 min 0,0 UV-I 14 W/m 0,8 C -1,2 C 12,9 km/h (3 Bft)
11.02.2023 08:38 1,8 C 1,7 C 93 % 1037,3 hPa 0,0 l/m 8,0 km/h (2 Bft) S 180 0 min 0,0 UV-I 14 W/m 0,8 C 0,2 C 11,3 km/h (2 Bft)
11.02.2023 08:39 1,8 C 1,7 C 93 % 1037,4 hPa 0,0 l/m 9,7 km/h (2 Bft) S-SW 202 0 min 0,0 UV-I 12 W/m 0,8 C -1,2 C 14,5 km/h (3 Bft)
11.02.2023 08:40 1,8 C 1,7 C 93 % 1037,4 hPa 0,0 l/m 9,7 km/h (2 Bft) S 180 0 min 0,0 UV-I 12 W/m 0,8 C -1,2 C 16,1 km/h (3 Bft)
11.02.2023 08:41 1,8 C 1,7 C 93 % 1037,5 hPa 0,0 l/m 8,0 km/h (2 Bft) S-SW 202 0 min 0,0 UV-I 12 W/m 0,8 C 0,2 C 11,3 km/h (2 Bft)
11.02.2023 08:42 1,8 C 1,7 C 93 % 1037,5 hPa 0,0 l/m 9,7 km/h (2 Bft) S-SW 202 0 min 0,0 UV-I 14 W/m 0,8 C -1,2 C 14,5 km/h (3 Bft)
11.02.2023 08:43 1,8 C 1,7 C 93 % 1037,5 hPa 0,0 l/m 9,7 km/h (2 Bft) S 180 0 min 0,0 UV-I 12 W/m 0,8 C -1,2 C 14,5 km/h (3 Bft)
11.02.2023 08:44 1,8 C 1,7 C 93 % 1037,5 hPa 0,0 l/m 8,0 km/h (2 Bft) S-SW 202 0 min 0,0 UV-I 14 W/m 0,8 C 0,2 C 12,9 km/h (3 Bft)
11.02.2023 08:45 1,8 C 1,7 C 93 % 1037,4 hPa 0,0 l/m 8,0 km/h (2 Bft) S 180 0 min 0,0 UV-I 14 W/m 0,8 C 0,2 C 12,9 km/h (3 Bft)
11.02.2023 08:46 1,8 C 1,7 C 93 % 1037,5 hPa 0,0 l/m 9,7 km/h (2 Bft) S-SW 202 0 min 0,0 UV-I 16 W/m 0,8 C -1,2 C 14,5 km/h (3 Bft)
11.02.2023 08:47 1,8 C 1,7 C 93 % 1037,5 hPa 0,0 l/m 11,3 km/h (2 Bft) S-SW 202 0 min 0,0 UV-I 16 W/m 0,8 C -2,4 C 14,5 km/h (3 Bft)
11.02.2023 08:48 1,8 C 1,7 C 93 % 1037,4 hPa 0,0 l/m 8,0 km/h (2 Bft) S-SW 202 0 min 0,0 UV-I 16 W/m 0,8 C 0,2 C 12,9 km/h (3 Bft)
11.02.2023 08:49 1,8 C 1,7 C 93 % 1037,5 hPa 0,0 l/m 8,0 km/h (2 Bft) SW 225 0 min 0,0 UV-I 16 W/m 0,8 C 0,2 C 11,3 km/h (2 Bft)
11.02.2023 08:50 1,8 C 1,7 C 93 % 1037,5 hPa 0,0 l/m 9,7 km/h (2 Bft) SW 225 0 min 0,0 UV-I 18 W/m 0,8 C -1,2 C 12,9 km/h (3 Bft)
11.02.2023 08:51 1,8 C 1,7 C 93 % 1037,4 hPa 0,0 l/m 8,0 km/h (2 Bft) S-SW 202 0 min 0,0 UV-I 18 W/m 0,8 C 0,2 C 12,9 km/h (3 Bft)
11.02.2023 08:52 1,8 C 1,7 C 93 % 1037,4 hPa 0,0 l/m 8,0 km/h (2 Bft) S-SW 202 0 min 0,0 UV-I 19 W/m 0,8 C 0,2 C 12,9 km/h (3 Bft)
11.02.2023 08:53 1,8 C 1,7 C 93 % 1037,5 hPa 0,0 l/m 11,3 km/h (2 Bft) S-SW 202 0 min 0,0 UV-I 21 W/m 0,8 C -2,4 C 14,5 km/h (3 Bft)
11.02.2023 08:54 1,8 C 1,7 C 93 % 1037,4 hPa 0,0 l/m 9,7 km/h (2 Bft) S-SW 202 0 min 0,0 UV-I 20 W/m 0,8 C -1,2 C 14,5 km/h (3 Bft)
11.02.2023 08:55 1,8 C 1,7 C 93 % 1037,5 hPa 0,0 l/m 9,7 km/h (2 Bft) S-SW 202 0 min 0,0 UV-I 21 W/m 0,8 C -1,2 C 14,5 km/h (3 Bft)
11.02.2023 08:56 1,8 C 1,7 C 93 % 1037,5 hPa 0,0 l/m 11,3 km/h (2 Bft) S-SW 202 0 min 0,0 UV-I 23 W/m 0,8 C -2,4 C 12,9 km/h (3 Bft)
11.02.2023 08:57 1,8 C 1,7 C 93 % 1037,4 hPa 0,0 l/m 9,7 km/h (2 Bft) S-SW 202 0 min 0,0 UV-I 21 W/m 0,8 C -1,2 C 12,9 km/h (3 Bft)
11.02.2023 08:58 1,8 C 1,7 C 93 % 1037,5 hPa 0,0 l/m 11,3 km/h (2 Bft) S-SW 202 0 min 0,0 UV-I 21 W/m 0,8 C -2,4 C 12,9 km/h (3 Bft)
11.02.2023 08:59 1,8 C 1,7 C 93 % 1037,5 hPa 0,0 l/m 11,3 km/h (2 Bft) S 180 0 min 0,0 UV-I 28 W/m 0,8 C -2,4 C 14,5 km/h (3 Bft)
11.02.2023 09:00 1,9 C 1,7 C 93 % 1037,5 hPa 0,0 l/m 8,0 km/h (2 Bft) S 180 0 min 0,0 UV-I 27 W/m 0,9 C 0,3 C 11,3 km/h (2 Bft)
11.02.2023 09:01 1,8 C 1,7 C 93 % 1037,5 hPa 0,0 l/m 8,0 km/h (2 Bft) S-SW 202 0 min 0,0 UV-I 25 W/m 0,8 C 0,2 C 11,3 km/h (2 Bft)
11.02.2023 09:02 1,9 C 1,7 C 93 % 1037,5 hPa 0,0 l/m 8,0 km/h (2 Bft) S-SW 202 0 min 0,0 UV-I 28 W/m 0,9 C 0,3 C 11,3 km/h (2 Bft)
11.02.2023 09:03 1,9 C 1,7 C 93 % 1037,5 hPa 0,0 l/m 6,4 km/h (2 Bft) S-SW 202 0 min 0,0 UV-I 32 W/m 0,9 C 1,9 C 11,3 km/h (2 Bft)
11.02.2023 09:04 1,9 C 1,7 C 93 % 1037,5 hPa 0,0 l/m 9,7 km/h (2 Bft) S-SW 202 0 min 0,0 UV-I 30 W/m 0,9 C -1,1 C 12,9 km/h (3 Bft)
11.02.2023 09:05 1,9 C 1,7 C 93 % 1037,5 hPa 0,0 l/m 8,0 km/h (2 Bft) S-SW 202 0 min 0,0 UV-I 26 W/m 0,9 C 0,3 C 11,3 km/h (2 Bft)
11.02.2023 09:06 1,9 C 1,7 C 93 % 1037,6 hPa 0,0 l/m 9,7 km/h (2 Bft) S-SW 202 0 min 0,0 UV-I 30 W/m 0,9 C -1,1 C 11,3 km/h (2 Bft)
11.02.2023 09:07 1,9 C 1,7 C 93 % 1037,5 hPa 0,0 l/m 9,7 km/h (2 Bft) S-SW 202 0 min 0,0 UV-I 26 W/m 0,9 C -1,1 C 14,5 km/h (3 Bft)
11.02.2023 09:08 1,9 C 1,7 C 93 % 1037,5 hPa 0,0 l/m 9,7 km/h (2 Bft) SW 225 0 min 0,0 UV-I 32 W/m 0,9 C -1,1 C 12,9 km/h (3 Bft)
11.02.2023 09:09 1,9 C 1,7 C 93 % 1037,5 hPa 0,0 l/m 6,4 km/h (2 Bft) S-SW 202 0 min 0,0 UV-I 35 W/m 0,9 C 1,9 C 11,3 km/h (2 Bft)
11.02.2023 09:10 1,9 C 1,7 C 93 % 1037,6 hPa 0,0 l/m 9,7 km/h (2 Bft) S-SW 202 0 min 0,0 UV-I 35 W/m 0,9 C -1,1 C 16,1 km/h (3 Bft)
11.02.2023 09:11 1,9 C 1,7 C 93 % 1037,6 hPa 0,0 l/m 8,0 km/h (2 Bft) S-SW 202 0 min 0,0 UV-I 39 W/m 0,9 C 0,3 C 11,3 km/h (2 Bft)
11.02.2023 09:12 1,9 C 1,7 C 93 % 1037,6 hPa 0,0 l/m 9,7 km/h (2 Bft) S-SW 202 0 min 0,0 UV-I 35 W/m 0,9 C -1,1 C 14,5 km/h (3 Bft)
11.02.2023 09:13 1,9 C 1,7 C 93 % 1037,6 hPa 0,0 l/m 9,7 km/h (2 Bft) SW 225 0 min 0,0 UV-I 32 W/m 0,9 C -1,1 C 14,5 km/h (3 Bft)
11.02.2023 09:14 1,9 C 1,7 C 93 % 1037,6 hPa 0,0 l/m 9,7 km/h (2 Bft) S-SW 202 0 min 0,0 UV-I 39 W/m 0,9 C -1,1 C 14,5 km/h (3 Bft)
11.02.2023 09:15 1,9 C 1,7 C 93 % 1037,5 hPa 0,0 l/m 9,7 km/h (2 Bft) S-SW 202 0 min 0,0 UV-I 37 W/m 0,9 C -1,1 C 12,9 km/h (3 Bft)
11.02.2023 09:16 2,0 C 1,7 C 93 % 1037,6 hPa 0,0 l/m 9,7 km/h (2 Bft) S-SW 202 0 min 0,0 UV-I 35 W/m 1,0 C -1,0 C 14,5 km/h (3 Bft)
11.02.2023 09:17 2,0 C 1,7 C 93 % 1037,6 hPa 0,0 l/m 9,7 km/h (2 Bft) S-SW 202 0 min 0,0 UV-I 39 W/m 1,0 C -1,0 C 12,9 km/h (3 Bft)
11.02.2023 09:18 2,0 C 1,7 C 93 % 1037,6 hPa 0,0 l/m 9,7 km/h (2 Bft) S-SW 202 0 min 0,0 UV-I 33 W/m 1,0 C -1,0 C 12,9 km/h (3 Bft)
11.02.2023 09:19 2,0 C 1,7 C 93 % 1037,7 hPa 0,0 l/m 8,0 km/h (2 Bft) S-SW 202 0 min 0,0 UV-I 40 W/m 1,0 C 0,5 C 11,3 km/h (2 Bft)
11.02.2023 09:20 2,0 C 2,2 C 93 % 1037,6 hPa 0,0 l/m 6,4 km/h (2 Bft) S-SW 202 0 min 0,0 UV-I 40 W/m 1,0 C 2,0 C 9,7 km/h (2 Bft)
11.02.2023 09:21 2,0 C 2,2 C 93 % 1037,6 hPa 0,0 l/m 9,7 km/h (2 Bft) S-SW 202 0 min 0,0 UV-I 37 W/m 1,0 C -1,0 C 11,3 km/h (2 Bft)
11.02.2023 09:22 2,0 C 2,2 C 93 % 1037,5 hPa 0,0 l/m 6,4 km/h (2 Bft) S-SW 202 0 min 0,0 UV-I 39 W/m 1,0 C 2,0 C 11,3 km/h (2 Bft)
11.02.2023 09:23 2,1 C 2,2 C 93 % 1037,6 hPa 0,0 l/m 6,4 km/h (2 Bft) S 180 0 min 0,0 UV-I 34 W/m 1,1 C 2,1 C 9,7 km/h (2 Bft)
11.02.2023 09:24 2,1 C 2,2 C 93 % 1037,6 hPa 0,0 l/m 8,0 km/h (2 Bft) S 180 0 min 0,0 UV-I 35 W/m 1,1 C 0,6 C 11,3 km/h (2 Bft)
11.02.2023 09:25 2,1 C 2,2 C 93 % 1037,5 hPa 0,0 l/m 9,7 km/h (2 Bft) S-SW 202 0 min 0,0 UV-I 40 W/m 1,1 C -0,9 C 16,1 km/h (3 Bft)
11.02.2023 09:26 2,1 C 2,2 C 93 % 1037,6 hPa 0,0 l/m 9,7 km/h (2 Bft) S-SW 202 0 min 0,0 UV-I 39 W/m 1,1 C -0,9 C 14,5 km/h (3 Bft)
11.02.2023 09:27 2,0 C 2,2 C 93 % 1037,5 hPa 0,0 l/m 11,3 km/h (2 Bft) S-SW 202 0 min 0,0 UV-I 37 W/m 1,0 C -2,2 C 16,1 km/h (3 Bft)
11.02.2023 09:28 2,0 C 1,7 C 93 % 1037,5 hPa 0,0 l/m 8,0 km/h (2 Bft) S-SW 202 0 min 0,0 UV-I 37 W/m 1,0 C 0,5 C 12,9 km/h (3 Bft)
11.02.2023 09:29 2,1 C 2,2 C 93 % 1037,6 hPa 0,0 l/m 11,3 km/h (2 Bft) S-SW 202 0 min 0,0 UV-I 38 W/m 1,1 C -2,1 C 14,5 km/h (3 Bft)
11.02.2023 09:30 2,0 C 2,2 C 93 % 1037,6 hPa 0,0 l/m 11,3 km/h (2 Bft) S-SW 202 0 min 0,0 UV-I 42 W/m 1,0 C -2,2 C 16,1 km/h (3 Bft)
11.02.2023 09:31 2,0 C 2,2 C 93 % 1037,5 hPa 0,0 l/m 11,3 km/h (2 Bft) S-SW 202 0 min 0,0 UV-I 39 W/m 1,0 C -2,2 C 14,5 km/h (3 Bft)
11.02.2023 09:32 2,0 C 2,2 C 93 % 1037,6 hPa 0,0 l/m 9,7 km/h (2 Bft) S 180 0 min 0,0 UV-I 42 W/m 1,0 C -1,0 C 12,9 km/h (3 Bft)
11.02.2023 09:33 2,1 C 2,2 C 93 % 1037,6 hPa 0,0 l/m 8,0 km/h (2 Bft) S-SW 202 0 min 0,0 UV-I 42 W/m 1,1 C 0,6 C 11,3 km/h (2 Bft)
11.02.2023 09:34 2,1 C 2,2 C 93 % 1037,6 hPa 0,0 l/m 11,3 km/h (2 Bft) S-SW 202 0 min 0,0 UV-I 42 W/m 1,1 C -2,1 C 14,5 km/h (3 Bft)
11.02.2023 09:35 2,1 C 2,2 C 93 % 1037,6 hPa 0,0 l/m 8,0 km/h (2 Bft) S-SW 202 0 min 0,0 UV-I 42 W/m 1,1 C 0,6 C 11,3 km/h (2 Bft)
11.02.2023 09:36 2,1 C 2,2 C 93 % 1037,6 hPa 0,0 l/m 11,3 km/h (2 Bft) S-SW 202 0 min 0,0 UV-I 40 W/m 1,1 C -2,1 C 14,5 km/h (3 Bft)
11.02.2023 09:37 2,1 C 2,2 C 93 % 1037,6 hPa 0,0 l/m 9,7 km/h (2 Bft) S-SW 202 0 min 0,0 UV-I 42 W/m 1,1 C -0,9 C 12,9 km/h (3 Bft)
11.02.2023 09:38 2,1 C 2,2 C 93 % 1037,7 hPa 0,0 l/m 8,0 km/h (2 Bft) S-SW 202 0 min 0,0 UV-I 42 W/m 1,1 C 0,6 C 11,3 km/h (2 Bft)
11.02.2023 09:39 2,1 C 2,2 C 93 % 1037,6 hPa 0,0 l/m 11,3 km/h (2 Bft) S-SW 202 0 min 0,0 UV-I 40 W/m 1,1 C -2,1 C 12,9 km/h (3 Bft)
11.02.2023 09:40 2,2 C 2,2 C 93 % 1037,6 hPa 0,0 l/m 8,0 km/h (2 Bft) S-SW 202 0 min 0,0 UV-I 47 W/m 1,2 C 0,7 C 16,1 km/h (3 Bft)
11.02.2023 09:41 2,1 C 2,2 C 93 % 1037,5 hPa 0,0 l/m 14,5 km/h (3 Bft) S-SW 202 0 min 0,0 UV-I 46 W/m 1,1 C -4,2 C 16,1 km/h (3 Bft)
11.02.2023 09:42 2,1 C 2,2 C 93 % 1037,6 hPa 0,0 l/m 11,3 km/h (2 Bft) S-SW 202 0 min 0,0 UV-I 40 W/m 1,1 C -2,1 C 14,5 km/h (3 Bft)
11.02.2023 09:43 2,1 C 2,2 C 93 % 1037,6 hPa 0,0 l/m 8,0 km/h (2 Bft) S 180 0 min 0,0 UV-I 47 W/m 1,1 C 0,6 C 12,9 km/h (3 Bft)
11.02.2023 09:44 2,1 C 2,2 C 93 % 1037,5 hPa 0,0 l/m 9,7 km/h (2 Bft) S-SW 202 0 min 0,0 UV-I 56 W/m 1,1 C -0,9 C 14,5 km/h (3 Bft)
11.02.2023 09:45 2,1 C 2,2 C 93 % 1037,7 hPa 0,0 l/m 11,3 km/h (2 Bft) S-SW 202 0 min 0,0 UV-I 47 W/m 1,1 C -2,1 C 14,5 km/h (3 Bft)
11.02.2023 09:46 2,1 C 2,2 C 93 % 1037,7 hPa 0,0 l/m 11,3 km/h (2 Bft) S-SW 202 0 min 0,0 UV-I 51 W/m 1,1 C -2,1 C 14,5 km/h (3 Bft)
11.02.2023 09:47 2,1 C 2,2 C 93 % 1037,7 hPa 0,0 l/m 11,3 km/h (2 Bft) S-SW 202 0 min 0,0 UV-I 52 W/m 1,1 C -2,1 C 12,9 km/h (3 Bft)
11.02.2023 09:48 2,1 C 2,2 C 93 % 1037,7 hPa 0,0 l/m 9,7 km/h (2 Bft) S-SW 202 0 min 0,0 UV-I 53 W/m 1,1 C -0,9 C 12,9 km/h (3 Bft)
11.02.2023 09:49 2,1 C 2,2 C 93 % 1037,6 hPa 0,0 l/m 11,3 km/h (2 Bft) S-SW 202 0 min 0,0 UV-I 51 W/m 1,1 C -2,1 C 16,1 km/h (3 Bft)
11.02.2023 09:50 2,1 C 2,2 C 93 % 1037,6 hPa 0,0 l/m 11,3 km/h (2 Bft) S-SW 202 0 min 0,0 UV-I 54 W/m 1,1 C -2,1 C 14,5 km/h (3 Bft)
11.02.2023 09:51 2,1 C 2,2 C 93 % 1037,7 hPa 0,0 l/m 11,3 km/h (2 Bft) S-SW 202 0 min 0,0 UV-I 54 W/m 1,1 C -2,1 C 16,1 km/h (3 Bft)
11.02.2023 09:52 2,2 C 2,2 C 93 % 1037,7 hPa 0,0 l/m 11,3 km/h (2 Bft) S-SW 202 0 min 0,0 UV-I 54 W/m 1,2 C -2,0 C 14,5 km/h (3 Bft)
11.02.2023 09:53 2,2 C 2,2 C 93 % 1037,7 hPa 0,0 l/m 11,3 km/h (2 Bft) S-SW 202 0 min 0,0 UV-I 49 W/m 1,2 C -2,0 C 16,1 km/h (3 Bft)
11.02.2023 09:54 2,2 C 2,2 C 93 % 1037,6 hPa 0,0 l/m 11,3 km/h (2 Bft) S-SW 202 0 min 0,0 UV-I 54 W/m 1,2 C -2,0 C 16,1 km/h (3 Bft)
11.02.2023 09:55 2,2 C 2,2 C 93 % 1037,7 hPa 0,0 l/m 9,7 km/h (2 Bft) S-SW 202 0 min 0,0 UV-I 53 W/m 1,2 C -0,8 C 14,5 km/h (3 Bft)
11.02.2023 09:56 2,2 C 2,2 C 93 % 1037,6 hPa 0,0 l/m 9,7 km/h (2 Bft) S-SW 202 0 min 0,0 UV-I 58 W/m 1,2 C -0,8 C 14,5 km/h (3 Bft)
11.02.2023 09:57 2,2 C 2,2 C 93 % 1037,7 hPa 0,0 l/m 11,3 km/h (2 Bft) S-SW 202 0 min 0,0 UV-I 58 W/m 1,2 C -2,0 C 14,5 km/h (3 Bft)
11.02.2023 09:58 2,2 C 2,2 C 93 % 1037,6 hPa 0,0 l/m 11,3 km/h (2 Bft) S-SW 202 0 min 0,0 UV-I 63 W/m 1,2 C -2,0 C 16,1 km/h (3 Bft)
11.02.2023 09:59 2,2 C 2,2 C 93 % 1037,7 hPa 0,0 l/m 12,9 km/h (3 Bft) S-SW 202 0 min 0,0 UV-I 62 W/m 1,2 C -3,1 C 17,7 km/h (3 Bft)
11.02.2023 10:00 2,2 C 2,2 C 93 % 1037,7 hPa 0,0 l/m 11,3 km/h (2 Bft) S-SW 202 0 min 0,0 UV-I 58 W/m 1,2 C -2,0 C 14,5 km/h (3 Bft)
11.02.2023 10:01 2,2 C 2,2 C 93 % 1037,6 hPa 0,0 l/m 11,3 km/h (2 Bft) S-SW 202 0 min 0,0 UV-I 53 W/m 1,2 C -2,0 C 16,1 km/h (3 Bft)
11.02.2023 10:02 2,2 C 2,2 C 93 % 1037,6 hPa 0,0 l/m 9,7 km/h (2 Bft) S-SW 202 0 min 0,0 UV-I 51 W/m 1,2 C -0,8 C 17,7 km/h (3 Bft)
11.02.2023 10:03 2,3 C 2,2 C 93 % 1037,6 hPa 0,0 l/m 8,0 km/h (2 Bft) S 180 0 min 0,0 UV-I 62 W/m 1,3 C 0,8 C 12,9 km/h (3 Bft)
11.02.2023 10:04 2,3 C 2,2 C 93 % 1037,7 hPa 0,0 l/m 9,7 km/h (2 Bft) S 180 0 min 0,0 UV-I 61 W/m 1,3 C -0,7 C 16,1 km/h (3 Bft)
11.02.2023 10:05 2,3 C 2,2 C 93 % 1037,7 hPa 0,0 l/m 11,3 km/h (2 Bft) S-SW 202 0 min 0,3 UV-I 67 W/m 1,3 C -1,9 C 14,5 km/h (3 Bft)
11.02.2023 10:06 2,3 C 2,2 C 93 % 1037,6 hPa 0,0 l/m 12,9 km/h (3 Bft) S-SW 202 0 min 0,5 UV-I 65 W/m 1,3 C -2,9 C 16,1 km/h (3 Bft)
11.02.2023 10:07 2,2 C 2,2 C 93 % 1037,7 hPa 0,0 l/m 9,7 km/h (2 Bft) S-SW 202 0 min 0,5 UV-I 70 W/m 1,2 C -0,8 C 14,5 km/h (3 Bft)
11.02.2023 10:08 2,3 C 2,2 C 93 % 1037,7 hPa 0,0 l/m 9,7 km/h (2 Bft) S 180 0 min 0,5 UV-I 74 W/m 1,3 C -0,7 C 14,5 km/h (3 Bft)
11.02.2023 10:09 2,3 C 2,2 C 93 % 1037,7 hPa 0,0 l/m 9,7 km/h (2 Bft) S 180 0 min 0,0 UV-I 70 W/m 1,3 C -0,7 C 16,1 km/h (3 Bft)
11.02.2023 10:10 2,3 C 2,8 C 93 % 1037,7 hPa 0,0 l/m 12,9 km/h (3 Bft) S 180 0 min 0,0 UV-I 69 W/m 1,3 C -2,9 C 14,5 km/h (3 Bft)
11.02.2023 10:11 2,3 C 2,8 C 93 % 1037,7 hPa 0,0 l/m 9,7 km/h (2 Bft) S-SW 202 0 min 0,5 UV-I 74 W/m 1,3 C -0,7 C 12,9 km/h (3 Bft)
11.02.2023 10:12 2,4 C 2,8 C 93 % 1037,7 hPa 0,0 l/m 11,3 km/h (2 Bft) S-SW 202 0 min 0,5 UV-I 72 W/m 1,4 C -1,8 C 14,5 km/h (3 Bft)
11.02.2023 10:13 2,4 C 2,8 C 93 % 1037,7 hPa 0,0 l/m 9,7 km/h (2 Bft) S-SW 202 0 min 0,5 UV-I 67 W/m 1,4 C -0,6 C 14,5 km/h (3 Bft)
11.02.2023 10:14 2,4 C 2,8 C 93 % 1037,7 hPa 0,0 l/m 9,7 km/h (2 Bft) S 180 0 min 0,5 UV-I 72 W/m 1,4 C -0,6 C 16,1 km/h (3 Bft)
11.02.2023 10:15 2,4 C 2,8 C 93 % 1037,7 hPa 0,0 l/m 11,3 km/h (2 Bft) S-SW 202 0 min 0,5 UV-I 72 W/m 1,4 C -1,8 C 16,1 km/h (3 Bft)
11.02.2023 10:16 2,4 C 2,8 C 93 % 1037,7 hPa 0,0 l/m 12,9 km/h (3 Bft) S-SW 202 0 min 0,5 UV-I 74 W/m 1,4 C -2,8 C 14,5 km/h (3 Bft)
11.02.2023 10:17 2,4 C 2,8 C 93 % 1037,7 hPa 0,0 l/m 9,7 km/h (2 Bft) S-SW 202 0 min 0,5 UV-I 74 W/m 1,4 C -0,6 C 12,9 km/h (3 Bft)
11.02.2023 10:18 2,4 C 2,8 C 93 % 1037,7 hPa 0,0 l/m 6,4 km/h (2 Bft) S-SW 202 0 min 0,5 UV-I 72 W/m 1,4 C 2,4 C 9,7 km/h (2 Bft)
11.02.2023 10:19 2,4 C 2,8 C 93 % 1037,7 hPa 0,0 l/m 9,7 km/h (2 Bft) S 180 0 min 0,5 UV-I 79 W/m 1,4 C -0,6 C 12,9 km/h (3 Bft)
11.02.2023 10:20 2,4 C 2,8 C 94 % 1037,8 hPa 0,0 l/m 11,3 km/h (2 Bft) S-SW 202 0 min 0,5 UV-I 83 W/m 1,5 C -1,8 C 16,1 km/h (3 Bft)
11.02.2023 10:21 2,4 C 2,8 C 93 % 1037,8 hPa 0,0 l/m 11,3 km/h (2 Bft) S-SW 202 0 min 0,5 UV-I 81 W/m 1,4 C -1,8 C 14,5 km/h (3 Bft)
11.02.2023 10:22 2,4 C 2,8 C 93 % 1037,7 hPa 0,0 l/m 8,0 km/h (2 Bft) S-SW 202 0 min 0,5 UV-I 90 W/m 1,4 C 0,9 C 11,3 km/h (2 Bft)
11.02.2023 10:23 2,5 C 2,8 C 94 % 1037,7 hPa 0,0 l/m 9,7 km/h (2 Bft) S-SW 202 0 min 0,5 UV-I 88 W/m 1,6 C -0,5 C 12,9 km/h (3 Bft)
11.02.2023 10:24 2,5 C 2,8 C 94 % 1037,8 hPa 0,0 l/m 8,0 km/h (2 Bft) S-SW 202 0 min 0,5 UV-I 83 W/m 1,6 C 1,0 C 9,7 km/h (2 Bft)
11.02.2023 10:25 2,6 C 2,8 C 94 % 1037,7 hPa 0,0 l/m 9,7 km/h (2 Bft) S-SW 202 0 min 0,5 UV-I 90 W/m 1,7 C -0,3 C 12,9 km/h (3 Bft)
11.02.2023 10:26 2,6 C 2,8 C 94 % 1037,8 hPa 0,0 l/m 8,0 km/h (2 Bft) SW 225 0 min 0,5 UV-I 90 W/m 1,7 C 1,1 C 12,9 km/h (3 Bft)
11.02.2023 10:27 2,6 C 2,8 C 94 % 1037,8 hPa 0,0 l/m 6,4 km/h (2 Bft) SW 225 0 min 0,5 UV-I 90 W/m 1,7 C 2,6 C 8,0 km/h (2 Bft)
11.02.2023 10:28 2,6 C 2,8 C 94 % 1037,8 hPa 0,0 l/m 6,4 km/h (2 Bft) SW 225 0 min 0,5 UV-I 100 W/m 1,7 C 2,6 C 9,7 km/h (2 Bft)
11.02.2023 10:29 2,7 C 2,8 C 94 % 1037,7 hPa 0,0 l/m 8,0 km/h (2 Bft) SW 225 0 min 0,6 UV-I 109 W/m 1,8 C 1,2 C 12,9 km/h (3 Bft)
11.02.2023 10:30 2,7 C 3,3 C 94 % 1037,7 hPa 0,0 l/m 9,7 km/h (2 Bft) SW 225 0 min 0,6 UV-I 113 W/m 1,8 C -0,2 C 14,5 km/h (3 Bft)
11.02.2023 10:31 2,7 C 3,3 C 93 % 1037,8 hPa 0,0 l/m 6,4 km/h (2 Bft) S 180 0 min 0,6 UV-I 113 W/m 1,7 C 2,7 C 9,7 km/h (2 Bft)
11.02.2023 10:32 2,7 C 3,3 C 93 % 1037,8 hPa 0,0 l/m 9,7 km/h (2 Bft) SW 225 0 min 0,6 UV-I 128 W/m 1,7 C -0,2 C 12,9 km/h (3 Bft)
11.02.2023 10:33 2,7 C 3,3 C 93 % 1037,8 hPa 0,0 l/m 8,0 km/h (2 Bft) S-SW 202 0 min 0,6 UV-I 122 W/m 1,7 C 1,2 C 11,3 km/h (2 Bft)
11.02.2023 10:34 2,8 C 3,3 C 94 % 1037,8 hPa 0,0 l/m 8,0 km/h (2 Bft) S-SW 202 0 min 0,6 UV-I 128 W/m 1,9 C 1,3 C 12,9 km/h (3 Bft)
11.02.2023 10:35 2,7 C 3,3 C 94 % 1037,7 hPa 0,0 l/m 9,7 km/h (2 Bft) S-SW 202 0 min 0,6 UV-I 116 W/m 1,8 C -0,2 C 12,9 km/h (3 Bft)
11.02.2023 10:36 2,8 C 3,3 C 93 % 1037,8 hPa 0,0 l/m 8,0 km/h (2 Bft) S-SW 202 0 min 0,6 UV-I 111 W/m 1,8 C 1,3 C 11,3 km/h (2 Bft)
11.02.2023 10:37 2,8 C 3,3 C 93 % 1037,8 hPa 0,0 l/m 6,4 km/h (2 Bft) S-SW 202 0 min 0,6 UV-I 107 W/m 1,8 C 2,8 C 12,9 km/h (3 Bft)
11.02.2023 10:38 2,8 C 3,3 C 93 % 1037,9 hPa 0,0 l/m 9,7 km/h (2 Bft) S-SW 202 0 min 0,6 UV-I 116 W/m 1,8 C -0,1 C 14,5 km/h (3 Bft)
11.02.2023 10:39 2,8 C 3,3 C 93 % 1037,8 hPa 0,0 l/m 8,0 km/h (2 Bft) S 180 0 min 0,6 UV-I 110 W/m 1,8 C 1,3 C 12,9 km/h (3 Bft)
11.02.2023 10:40 2,8 C 3,3 C 93 % 1037,8 hPa 0,0 l/m 8,0 km/h (2 Bft) S-SW 202 0 min 0,6 UV-I 105 W/m 1,8 C 1,3 C 12,9 km/h (3 Bft)
11.02.2023 10:41 2,8 C 3,3 C 93 % 1037,8 hPa 0,0 l/m 4,8 km/h (1 Bft) W-SW 247 0 min 0,5 UV-I 104 W/m 1,8 C 2,8 C 8,0 km/h (2 Bft)
11.02.2023 10:42 2,8 C 3,3 C 93 % 1037,9 hPa 0,0 l/m 8,0 km/h (2 Bft) SW 225 0 min 0,6 UV-I 111 W/m 1,8 C 1,3 C 9,7 km/h (2 Bft)
11.02.2023 10:43 2,8 C 3,3 C 94 % 1037,9 hPa 0,0 l/m 4,8 km/h (1 Bft) W 270 0 min 0,6 UV-I 111 W/m 1,9 C 2,8 C 6,4 km/h (2 Bft)
11.02.2023 10:45 2,9 C 3,3 C 94 % 1038,0 hPa 0,0 l/m 5,4 km/h (1 Bft) S-SW 203 0 min 0,6 UV-I 113 W/m 2,0 C 2,9 C 9,7 km/h (2 Bft)
11.02.2023 10:48 2,8 C 3,3 C 94 % 1038,0 hPa 0,0 l/m 6,4 km/h (2 Bft) S-SW 202 0 min 0,5 UV-I 105 W/m 1,9 C 2,8 C 12,9 km/h (3 Bft)
11.02.2023 10:51 2,9 C 3,3 C 94 % 1038,0 hPa 0,0 l/m 3,9 km/h (1 Bft) W-SW 248 0 min 0,5 UV-I 97 W/m 2,0 C 2,9 C 9,7 km/h (2 Bft)
11.02.2023 10:54 2,9 C 3,3 C 94 % 1038,1 hPa 0,0 l/m 5,7 km/h (1 Bft) S-SW 210 0 min 0,5 UV-I 100 W/m 2,0 C 2,9 C 9,7 km/h (2 Bft)
11.02.2023 10:57 2,8 C 3,3 C 94 % 1038,2 hPa 0,0 l/m 4,4 km/h (1 Bft) SW 215 0 min 0,5 UV-I 90 W/m 1,9 C 2,8 C 9,7 km/h (2 Bft)
11.02.2023 11:00 2,9 C 3,3 C 94 % 1038,2 hPa 0,0 l/m 2,9 km/h (1 Bft) SW 215 0 min 0,1 UV-I 81 W/m 2,0 C 2,9 C 4,8 km/h (1 Bft)
11.02.2023 11:03 3,0 C 3,3 C 94 % 1038,4 hPa 0,0 l/m 3,1 km/h (1 Bft) S-SW 213 0 min 0,0 UV-I 79 W/m 2,1 C 3,0 C 4,8 km/h (1 Bft)
11.02.2023 11:06 2,9 C 3,3 C 94 % 1038,4 hPa 0,0 l/m 3,7 km/h (1 Bft) W-SW 249 0 min 0,0 UV-I 72 W/m 2,0 C 2,9 C 9,7 km/h (2 Bft)
11.02.2023 11:09 3,0 C 3,3 C 94 % 1038,4 hPa 0,0 l/m 3,8 km/h (1 Bft) W-SW 245 0 min 0,0 UV-I 67 W/m 2,1 C 3,0 C 6,4 km/h (2 Bft)
11.02.2023 11:12 3,1 C 3,3 C 94 % 1038,3 hPa 0,0 l/m 2,2 km/h (1 Bft) W-SW 245 0 min 0,0 UV-I 63 W/m 2,2 C 3,1 C 4,8 km/h (1 Bft)
11.02.2023 11:15 3,2 C 3,3 C 94 % 1038,4 hPa 0,0 l/m 2,8 km/h (1 Bft) W-SW 244 0 min 0,0 UV-I 63 W/m 2,3 C 3,2 C 4,8 km/h (1 Bft)
11.02.2023 11:18 3,2 C 3,3 C 94 % 1038,5 hPa 0,0 l/m 3,4 km/h (1 Bft) SW 218 0 min 0,0 UV-I 62 W/m 2,3 C 3,2 C 6,4 km/h (2 Bft)
11.02.2023 11:21 3,2 C 3,3 C 94 % 1038,4 hPa 0,0 l/m 3,5 km/h (1 Bft) SW 217 0 min 0,0 UV-I 66 W/m 2,3 C 3,2 C 6,4 km/h (2 Bft)
11.02.2023 11:24 3,2 C 3,3 C 94 % 1038,5 hPa 0,0 l/m 3,8 km/h (1 Bft) S-SW 198 0 min 0,0 UV-I 67 W/m 2,3 C 3,2 C 8,0 km/h (2 Bft)
11.02.2023 11:27 3,2 C 3,3 C 94 % 1038,6 hPa 0,0 l/m 4,6 km/h (1 Bft) S-SW 198 0 min 0,0 UV-I 71 W/m 2,3 C 3,2 C 8,0 km/h (2 Bft)
11.02.2023 11:30 3,3 C 3,9 C 94 % 1038,5 hPa 0,0 l/m 2,4 km/h (1 Bft) S-SW 198 0 min 0,1 UV-I 78 W/m 2,4 C 3,3 C 3,2 km/h (1 Bft)
11.02.2023 11:33 3,3 C 3,9 C 94 % 1038,6 hPa 0,0 l/m 3,6 km/h (1 Bft) S-SW 200 0 min 0,3 UV-I 80 W/m 2,4 C 3,3 C 8,0 km/h (2 Bft)
11.02.2023 11:36 3,3 C 3,9 C 94 % 1038,6 hPa 0,0 l/m 4,5 km/h (1 Bft) S-SW 207 0 min 0,0 UV-I 77 W/m 2,4 C 3,3 C 6,4 km/h (2 Bft)
11.02.2023 11:39 3,4 C 3,9 C 94 % 1038,7 hPa 0,0 l/m 4,9 km/h (1 Bft) SW 216 0 min 0,3 UV-I 81 W/m 2,5 C 3,4 C 8,0 km/h (2 Bft)
11.02.2023 11:42 3,3 C 3,9 C 94 % 1038,6 hPa 0,0 l/m 5,3 km/h (1 Bft) S-SW 200 0 min 0,3 UV-I 81 W/m 2,4 C 3,3 C 8,0 km/h (2 Bft)
11.02.2023 11:45 3,4 C 3,9 C 94 % 1038,7 hPa 0,0 l/m 4,6 km/h (1 Bft) S-SW 200 0 min 0,3 UV-I 81 W/m 2,5 C 3,4 C 6,4 km/h (2 Bft)
11.02.2023 11:48 3,4 C 3,9 C 94 % 1038,5 hPa 0,0 l/m 3,1 km/h (1 Bft) S-SW 204 0 min 0,5 UV-I 87 W/m 2,5 C 3,4 C 6,4 km/h (2 Bft)
11.02.2023 11:51 3,6 C 4,4 C 94 % 1038,7 hPa 0,0 l/m 2,3 km/h (1 Bft) S-SW 203 0 min 0,5 UV-I 91 W/m 2,7 C 3,6 C 6,4 km/h (2 Bft)
11.02.2023 11:54 3,7 C 4,4 C 94 % 1038,7 hPa 0,0 l/m 4,9 km/h (1 Bft) S-SW 205 0 min 0,6 UV-I 98 W/m 2,8 C 3,7 C 8,0 km/h (2 Bft)
11.02.2023 11:57 3,7 C 4,4 C 94 % 1038,6 hPa 0,0 l/m 4,8 km/h (1 Bft) S-SW 205 0 min 0,5 UV-I 90 W/m 2,8 C 3,7 C 8,0 km/h (2 Bft)
11.02.2023 12:00 3,8 C 4,4 C 94 % 1038,6 hPa 0,0 l/m 1,9 km/h (1 Bft) S-SW 206 0 min 0,5 UV-I 87 W/m 2,9 C 3,8 C 4,8 km/h (1 Bft)
11.02.2023 12:03 3,7 C 4,4 C 94 % 1038,6 hPa 0,0 l/m 5,4 km/h (1 Bft) S 189 0 min 0,5 UV-I 83 W/m 2,8 C 3,7 C 9,7 km/h (2 Bft)
11.02.2023 12:06 3,7 C 3,9 C 94 % 1038,6 hPa 0,0 l/m 5,2 km/h (1 Bft) S 188 0 min 0,4 UV-I 80 W/m 2,8 C 3,7 C 8,0 km/h (2 Bft)
11.02.2023 12:09 3,7 C 3,9 C 94 % 1038,5 hPa 0,0 l/m 5,6 km/h (1 Bft) S-SW 202 0 min 0,5 UV-I 84 W/m 2,8 C 3,7 C 9,7 km/h (2 Bft)
11.02.2023 12:12 3,7 C 4,4 C 94 % 1038,5 hPa 0,0 l/m 4,6 km/h (1 Bft) S-SW 202 0 min 0,5 UV-I 91 W/m 2,8 C 3,7 C 8,0 km/h (2 Bft)
11.02.2023 12:15 3,7 C 4,4 C 94 % 1038,5 hPa 0,0 l/m 4,9 km/h (1 Bft) S-SW 203 0 min 0,5 UV-I 87 W/m 2,8 C 3,7 C 8,0 km/h (2 Bft)
11.02.2023 12:18 3,8 C 4,4 C 94 % 1038,5 hPa 0,0 l/m 3,7 km/h (1 Bft) S-SW 204 0 min 0,5 UV-I 90 W/m 2,9 C 3,8 C 6,4 km/h (2 Bft)
11.02.2023 12:21 3,8 C 4,4 C 94 % 1038,5 hPa 0,0 l/m 4,8 km/h (1 Bft) S-SW 198 0 min 0,6 UV-I 105 W/m 2,9 C 3,8 C 8,0 km/h (2 Bft)
11.02.2023 12:24 3,9 C 4,4 C 94 % 1038,5 hPa 0,0 l/m 4,6 km/h (1 Bft) SW 227 0 min 0,5 UV-I 99 W/m 3,0 C 3,9 C 6,4 km/h (2 Bft)
11.02.2023 12:27 3,8 C 4,4 C 94 % 1038,5 hPa 0,0 l/m 5,0 km/h (1 Bft) SW 221 0 min 0,5 UV-I 84 W/m 2,9 C 3,8 C 8,0 km/h (2 Bft)
11.02.2023 12:30 3,8 C 4,4 C 94 % 1038,5 hPa 0,0 l/m 4,6 km/h (1 Bft) S-SW 213 0 min 0,4 UV-I 77 W/m 2,9 C 3,8 C 8,0 km/h (2 Bft)
11.02.2023 12:33 3,9 C 4,4 C 94 % 1038,4 hPa 0,0 l/m 4,1 km/h (1 Bft) S-SW 212 0 min 0,4 UV-I 76 W/m 3,0 C 3,9 C 8,0 km/h (2 Bft)
11.02.2023 12:36 3,9 C 4,4 C 94 % 1038,4 hPa 0,0 l/m 4,3 km/h (1 Bft) S-SW 209 0 min 0,2 UV-I 74 W/m 3,0 C 3,9 C 8,0 km/h (2 Bft)
11.02.2023 12:39 4,0 C 4,4 C 94 % 1038,4 hPa 0,0 l/m 5,0 km/h (1 Bft) S-SW 207 0 min 0,2 UV-I 76 W/m 3,1 C 4,0 C 8,0 km/h (2 Bft)
11.02.2023 12:42 4,0 C 4,4 C 94 % 1038,4 hPa 0,0 l/m 4,4 km/h (1 Bft) S-SW 195 0 min 0,5 UV-I 79 W/m 3,1 C 4,0 C 8,0 km/h (2 Bft)
11.02.2023 12:45 4,0 C 4,4 C 94 % 1038,3 hPa 0,0 l/m 4,8 km/h (1 Bft) S-SW 212 0 min 0,5 UV-I 81 W/m 3,1 C 4,0 C 6,4 km/h (2 Bft)
11.02.2023 12:48 4,1 C 4,4 C 94 % 1038,3 hPa 0,0 l/m 4,9 km/h (1 Bft) SW 221 0 min 0,5 UV-I 84 W/m 3,2 C 4,1 C 8,0 km/h (2 Bft)
11.02.2023 12:51 4,1 C 4,4 C 94 % 1038,2 hPa 0,0 l/m 3,6 km/h (1 Bft) SW 221 0 min 0,5 UV-I 82 W/m 3,2 C 4,1 C 4,8 km/h (1 Bft)
11.02.2023 12:54 4,2 C 4,4 C 94 % 1038,3 hPa 0,0 l/m 4,7 km/h (1 Bft) S-SW 205 0 min 0,5 UV-I 90 W/m 3,3 C 4,2 C 9,7 km/h (2 Bft)
11.02.2023 12:57 4,2 C 4,4 C 94 % 1038,2 hPa 0,0 l/m 6,4 km/h (2 Bft) S-SW 199 0 min 0,5 UV-I 93 W/m 3,3 C 4,2 C 8,0 km/h (2 Bft)
11.02.2023 13:00 4,2 C 4,4 C 94 % 1038,3 hPa 0,0 l/m 5,8 km/h (2 Bft) S-SW 202 0 min 0,5 UV-I 91 W/m 3,3 C 4,2 C 9,7 km/h (2 Bft)
11.02.2023 13:03 4,2 C 4,4 C 94 % 1038,3 hPa 0,0 l/m 5,7 km/h (1 Bft) S-SW 207 0 min 0,5 UV-I 89 W/m 3,3 C 4,2 C 8,0 km/h (2 Bft)
11.02.2023 13:06 4,1 C 4,4 C 94 % 1038,3 hPa 0,0 l/m 8,2 km/h (2 Bft) S-SW 207 0 min 0,5 UV-I 85 W/m 3,2 C 2,5 C 12,9 km/h (3 Bft)
11.02.2023 13:09 4,1 C 4,4 C 94 % 1038,2 hPa 0,0 l/m 8,5 km/h (2 Bft) SW 234 0 min 0,5 UV-I 91 W/m 3,2 C 2,2 C 11,3 km/h (2 Bft)
11.02.2023 13:12 4,2 C 4,4 C 94 % 1038,2 hPa 0,0 l/m 6,6 km/h (2 Bft) SW 225 0 min 0,5 UV-I 94 W/m 3,3 C 4,0 C 9,7 km/h (2 Bft)
11.02.2023 13:15 4,2 C 4,4 C 94 % 1038,2 hPa 0,0 l/m 7,6 km/h (2 Bft) S-SW 210 0 min 0,5 UV-I 90 W/m 3,3 C 3,1 C 9,7 km/h (2 Bft)
11.02.2023 13:18 4,2 C 4,4 C 94 % 1038,2 hPa 0,0 l/m 5,9 km/h (2 Bft) S-SW 209 0 min 0,5 UV-I 93 W/m 3,3 C 4,2 C 9,7 km/h (2 Bft)
11.02.2023 13:21 4,3 C 4,4 C 94 % 1038,3 hPa 0,0 l/m 5,8 km/h (2 Bft) S-SW 195 0 min 0,5 UV-I 91 W/m 3,4 C 4,3 C 9,7 km/h (2 Bft)
11.02.2023 13:24 4,3 C 5,0 C 94 % 1038,1 hPa 0,0 l/m 4,5 km/h (1 Bft) S-SW 207 0 min 0,5 UV-I 86 W/m 3,4 C 4,3 C 6,4 km/h (2 Bft)
11.02.2023 13:27 4,3 C 5,0 C 94 % 1038,3 hPa 0,0 l/m 4,1 km/h (1 Bft) S-SW 200 0 min 0,5 UV-I 85 W/m 3,4 C 4,3 C 8,0 km/h (2 Bft)
11.02.2023 13:30 4,3 C 5,0 C 94 % 1038,3 hPa 0,0 l/m 5,3 km/h (1 Bft) W-SW 242 0 min 0,5 UV-I 90 W/m 3,4 C 4,3 C 8,0 km/h (2 Bft)
11.02.2023 13:33 4,4 C 5,0 C 94 % 1038,2 hPa 0,0 l/m 4,8 km/h (1 Bft) S-SW 211 0 min 0,5 UV-I 93 W/m 3,5 C 4,4 C 8,0 km/h (2 Bft)
11.02.2023 13:36 4,4 C 5,0 C 94 % 1038,3 hPa 0,0 l/m 4,8 km/h (1 Bft) W 260 0 min 0,5 UV-I 88 W/m 3,5 C 4,4 C 11,3 km/h (2 Bft)
11.02.2023 13:39 4,4 C 5,0 C 94 % 1038,3 hPa 0,0 l/m 6,2 km/h (2 Bft) SW 227 0 min 0,5 UV-I 87 W/m 3,5 C 4,4 C 12,9 km/h (3 Bft)
11.02.2023 13:42 4,5 C 5,0 C 94 % 1038,3 hPa 0,0 l/m 6,2 km/h (2 Bft) W-SW 257 0 min 0,2 UV-I 78 W/m 3,6 C 4,5 C 11,3 km/h (2 Bft)
11.02.2023 13:45 4,5 C 5,0 C 94 % 1038,4 hPa 0,0 l/m 3,7 km/h (1 Bft) SW 220 0 min 0,0 UV-I 72 W/m 3,6 C 4,5 C 9,7 km/h (2 Bft)
11.02.2023 13:48 4,6 C 5,0 C 94 % 1038,3 hPa 0,0 l/m 3,9 km/h (1 Bft) W-SW 237 0 min 0,0 UV-I 71 W/m 3,7 C 4,6 C 11,3 km/h (2 Bft)
11.02.2023 13:51 4,6 C 5,0 C 94 % 1038,3 hPa 0,0 l/m 4,5 km/h (1 Bft) SW 234 0 min 0,0 UV-I 75 W/m 3,7 C 4,6 C 8,0 km/h (2 Bft)
11.02.2023 13:54 4,6 C 5,0 C 94 % 1038,3 hPa 0,0 l/m 4,5 km/h (1 Bft) SW 236 0 min 0,0 UV-I 76 W/m 3,7 C 4,6 C 6,4 km/h (2 Bft)
11.02.2023 13:57 4,6 C 5,0 C 94 % 1038,2 hPa 0,0 l/m 4,1 km/h (1 Bft) W-SW 242 0 min 0,0 UV-I 74 W/m 3,7 C 4,6 C 6,4 km/h (2 Bft)
11.02.2023 14:00 4,6 C 5,0 C 94 % 1038,3 hPa 0,0 l/m 5,7 km/h (1 Bft) S-SW 205 0 min 0,0 UV-I 68 W/m 3,7 C 4,6 C 8,0 km/h (2 Bft)
11.02.2023 14:03 4,6 C 5,0 C 94 % 1038,1 hPa 0,0 l/m 5,0 km/h (1 Bft) SW 217 0 min 0,1 UV-I 73 W/m 3,7 C 4,6 C 8,0 km/h (2 Bft)
11.02.2023 14:06 4,6 C 5,0 C 94 % 1038,1 hPa 0,0 l/m 5,5 km/h (1 Bft) SW 225 0 min 0,2 UV-I 71 W/m 3,7 C 4,6 C 9,7 km/h (2 Bft)
11.02.2023 14:09 4,6 C 5,0 C 94 % 1038,2 hPa 0,0 l/m 5,1 km/h (1 Bft) S-SW 207 0 min 0,0 UV-I 64 W/m 3,7 C 4,6 C 8,0 km/h (2 Bft)
11.02.2023 14:12 4,7 C 5,0 C 94 % 1038,1 hPa 0,0 l/m 5,1 km/h (1 Bft) S-SW 209 0 min 0,0 UV-I 73 W/m 3,8 C 4,7 C 6,4 km/h (2 Bft)
11.02.2023 14:15 4,7 C 5,0 C 94 % 1038,1 hPa 0,0 l/m 4,2 km/h (1 Bft) S-SW 211 0 min 0,0 UV-I 75 W/m 3,8 C 4,7 C 8,0 km/h (2 Bft)
11.02.2023 14:18 4,7 C 5,0 C 94 % 1038,0 hPa 0,0 l/m 3,8 km/h (1 Bft) SW 234 0 min 0,0 UV-I 78 W/m 3,8 C 4,7 C 6,4 km/h (2 Bft)
11.02.2023 14:21 4,8 C 5,0 C 94 % 1038,0 hPa 0,0 l/m 3,6 km/h (1 Bft) W 268 0 min 0,1 UV-I 84 W/m 3,9 C 4,8 C 6,4 km/h (2 Bft)
11.02.2023 14:24 4,8 C 5,0 C 94 % 1038,0 hPa 0,0 l/m 5,8 km/h (2 Bft) W-SW 245 0 min 0,0 UV-I 87 W/m 3,9 C 4,8 C 11,3 km/h (2 Bft)
11.02.2023 14:27 4,8 C 5,0 C 94 % 1038,1 hPa 0,0 l/m 4,1 km/h (1 Bft) S-SW 211 0 min 0,1 UV-I 88 W/m 3,9 C 4,8 C 6,4 km/h (2 Bft)
11.02.2023 14:30 4,8 C 5,0 C 94 % 1037,9 hPa 0,0 l/m 4,6 km/h (1 Bft) SW 232 0 min 0,0 UV-I 76 W/m 3,9 C 4,8 C 8,0 km/h (2 Bft)
11.02.2023 14:33 4,8 C 5,0 C 94 % 1038,0 hPa 0,0 l/m 3,6 km/h (1 Bft) SW 229 0 min 0,0 UV-I 79 W/m 3,9 C 4,8 C 9,7 km/h (2 Bft)
11.02.2023 14:36 4,9 C 5,6 C 94 % 1037,9 hPa 0,0 l/m 4,5 km/h (1 Bft) W-SW 246 0 min 0,0 UV-I 79 W/m 4,0 C 4,9 C 9,7 km/h (2 Bft)
11.02.2023 14:39 4,9 C 5,6 C 94 % 1037,9 hPa 0,0 l/m 5,3 km/h (1 Bft) W 262 0 min 0,0 UV-I 68 W/m 4,0 C 4,9 C 11,3 km/h (2 Bft)
11.02.2023 14:42 4,9 C 5,6 C 94 % 1037,9 hPa 0,0 l/m 5,7 km/h (1 Bft) SW 236 0 min 0,2 UV-I 76 W/m 4,0 C 4,9 C 9,7 km/h (2 Bft)
11.02.2023 14:45 4,9 C 5,6 C 94 % 1037,9 hPa 0,0 l/m 6,9 km/h (2 Bft) W-SW 244 0 min 0,6 UV-I 104 W/m 4,0 C 4,5 C 14,5 km/h (3 Bft)
11.02.2023 14:48 5,0 C 5,6 C 94 % 1038,0 hPa 0,0 l/m 5,1 km/h (1 Bft) S-SW 209 0 min 0,6 UV-I 127 W/m 4,1 C 5,0 C 8,0 km/h (2 Bft)
11.02.2023 14:51 5,1 C 5,6 C 94 % 1037,9 hPa 0,0 l/m 5,9 km/h (2 Bft) S-SW 207 0 min 0,6 UV-I 121 W/m 4,2 C 5,1 C 11,3 km/h (2 Bft)
11.02.2023 14:54 5,1 C 5,6 C 94 % 1037,9 hPa 0,0 l/m 5,9 km/h (2 Bft) SW 225 0 min 0,6 UV-I 113 W/m 4,2 C 5,1 C 9,7 km/h (2 Bft)
11.02.2023 14:57 5,1 C 5,6 C 94 % 1038,0 hPa 0,0 l/m 5,6 km/h (1 Bft) SW 215 0 min 0,6 UV-I 106 W/m 4,2 C 5,1 C 9,7 km/h (2 Bft)
11.02.2023 15:00 5,1 C 5,6 C 94 % 1037,9 hPa 0,0 l/m 5,7 km/h (1 Bft) W-SW 255 0 min 0,5 UV-I 91 W/m 4,2 C 5,1 C 12,9 km/h (3 Bft)
11.02.2023 15:03 5,1 C 5,6 C 94 % 1037,9 hPa 0,0 l/m 2,6 km/h (1 Bft) W-SW 254 0 min 0,2 UV-I 83 W/m 4,2 C 5,1 C 8,0 km/h (2 Bft)
11.02.2023 15:06 5,2 C 5,6 C 94 % 1037,9 hPa 0,0 l/m 5,4 km/h (1 Bft) W-SW 240 0 min 0,0 UV-I 80 W/m 4,3 C 5,2 C 11,3 km/h (2 Bft)
11.02.2023 15:09 5,2 C 5,6 C 94 % 1037,9 hPa 0,0 l/m 5,7 km/h (1 Bft) W-SW 240 0 min 0,4 UV-I 94 W/m 4,3 C 5,2 C 11,3 km/h (2 Bft)
11.02.2023 15:12 5,2 C 5,6 C 94 % 1038,0 hPa 0,0 l/m 5,9 km/h (2 Bft) SW 235 0 min 0,5 UV-I 97 W/m 4,3 C 5,2 C 9,7 km/h (2 Bft)
11.02.2023 15:15 5,2 C 5,6 C 94 % 1038,0 hPa 0,0 l/m 5,9 km/h (2 Bft) W 266 0 min 0,2 UV-I 92 W/m 4,3 C 5,2 C 11,3 km/h (2 Bft)
11.02.2023 15:18 5,2 C 5,6 C 94 % 1038,0 hPa 0,0 l/m 3,4 km/h (1 Bft) W 268 0 min 0,0 UV-I 89 W/m 4,3 C 5,2 C 6,4 km/h (2 Bft)
11.02.2023 15:21 5,3 C 5,6 C 94 % 1038,0 hPa 0,0 l/m 3,6 km/h (1 Bft) W 279 0 min 0,2 UV-I 90 W/m 4,4 C 5,3 C 11,3 km/h (2 Bft)
11.02.2023 15:24 5,3 C 5,6 C 94 % 1037,9 hPa 0,0 l/m 4,0 km/h (1 Bft) W-SW 257 0 min 0,1 UV-I 93 W/m 4,4 C 5,3 C 11,3 km/h (2 Bft)
11.02.2023 15:27 5,3 C 5,6 C 94 % 1037,9 hPa 0,0 l/m 4,7 km/h (1 Bft) W-SW 257 0 min 0,5 UV-I 102 W/m 4,4 C 5,3 C 9,7 km/h (2 Bft)
11.02.2023 15:30 5,3 C 5,6 C 94 % 1037,9 hPa 0,0 l/m 6,8 km/h (2 Bft) SW 225 0 min 0,0 UV-I 83 W/m 4,4 C 5,0 C 11,3 km/h (2 Bft)
11.02.2023 15:33 5,3 C 5,6 C 94 % 1037,8 hPa 0,0 l/m 5,7 km/h (1 Bft) SW 233 0 min 0,0 UV-I 80 W/m 4,4 C 5,3 C 12,9 km/h (3 Bft)
11.02.2023 15:36 5,3 C 5,6 C 94 % 1037,8 hPa 0,0 l/m 2,6 km/h (1 Bft) W 268 0 min 0,0 UV-I 73 W/m 4,4 C 5,3 C 9,7 km/h (2 Bft)
11.02.2023 15:39 5,3 C 5,6 C 94 % 1037,8 hPa 0,0 l/m 5,0 km/h (1 Bft) W-SW 248 0 min 0,0 UV-I 73 W/m 4,4 C 5,3 C 11,3 km/h (2 Bft)
11.02.2023 15:42 5,3 C 5,6 C 93 % 1037,8 hPa 0,0 l/m 4,7 km/h (1 Bft) W 275 0 min 0,0 UV-I 65 W/m 4,3 C 5,3 C 11,3 km/h (2 Bft)
11.02.2023 15:45 5,3 C 5,6 C 93 % 1037,8 hPa 0,0 l/m 5,1 km/h (1 Bft) W 266 0 min 0,0 UV-I 57 W/m 4,3 C 5,3 C 11,3 km/h (2 Bft)
11.02.2023 15:48 5,2 C 5,6 C 93 % 1037,8 hPa 0,0 l/m 4,6 km/h (1 Bft) W 271 0 min 0,0 UV-I 56 W/m 4,2 C 5,2 C 11,3 km/h (2 Bft)
11.02.2023 15:51 5,2 C 5,6 C 93 % 1037,8 hPa 0,0 l/m 3,8 km/h (1 Bft) W-NW 298 0 min 0,0 UV-I 55 W/m 4,2 C 5,2 C 9,7 km/h (2 Bft)
11.02.2023 15:54 5,2 C 5,0 C 93 % 1038,0 hPa 0,0 l/m 1,0 km/h (0 Bft) W-NW 296 0 min 0,0 UV-I 55 W/m 4,2 C 5,2 C 3,2 km/h (1 Bft)
11.02.2023 15:57 5,2 C 5,0 C 93 % 1037,9 hPa 0,0 l/m 4,9 km/h (1 Bft) W 265 0 min 0,0 UV-I 47 W/m 4,2 C 5,2 C 9,7 km/h (2 Bft)
11.02.2023 16:00 5,2 C 5,0 C 93 % 1038,0 hPa 0,0 l/m 2,9 km/h (1 Bft) W-SW 240 0 min 0,0 UV-I 50 W/m 4,2 C 5,2 C 6,4 km/h (2 Bft)
11.02.2023 16:03 5,2 C 5,0 C 93 % 1038,0 hPa 0,0 l/m 3,8 km/h (1 Bft) W 269 0 min 0,0 UV-I 47 W/m 4,2 C 5,2 C 9,7 km/h (2 Bft)
11.02.2023 16:06 5,2 C 5,0 C 93 % 1038,1 hPa 0,0 l/m 1,9 km/h (1 Bft) W 269 0 min 0,0 UV-I 41 W/m 4,2 C 5,2 C 4,8 km/h (1 Bft)
11.02.2023 16:09 5,2 C 5,0 C 93 % 1038,0 hPa 0,0 l/m 3,9 km/h (1 Bft) W 263 0 min 0,0 UV-I 39 W/m 4,2 C 5,2 C 9,7 km/h (2 Bft)
11.02.2023 16:12 5,2 C 5,0 C 93 % 1037,9 hPa 0,0 l/m 2,6 km/h (1 Bft) W 262 0 min 0,0 UV-I 43 W/m 4,2 C 5,2 C 4,8 km/h (1 Bft)
11.02.2023 16:15 5,2 C 5,0 C 93 % 1038,0 hPa 0,0 l/m 1,5 km/h (1 Bft) W-SW 256 0 min 0,0 UV-I 36 W/m 4,2 C 5,2 C 6,4 km/h (2 Bft)
11.02.2023 16:18 5,2 C 5,0 C 93 % 1038,0 hPa 0,0 l/m 0,2 km/h (0 Bft) W-SW 256 0 min 0,0 UV-I 36 W/m 4,2 C 5,2 C 3,2 km/h (1 Bft)
11.02.2023 16:21 5,1 C 5,0 C 93 % 1038,0 hPa 0,0 l/m 0,5 km/h (0 Bft) W-SW 256 0 min 0,0 UV-I 34 W/m 4,1 C 5,1 C 3,2 km/h (1 Bft)
11.02.2023 16:24 5,1 C 5,0 C 93 % 1038,1 hPa 0,0 l/m 1,8 km/h (1 Bft) W-SW 255 0 min 0,0 UV-I 30 W/m 4,1 C 5,1 C 4,8 km/h (1 Bft)
11.02.2023 16:27 5,1 C 5,0 C 93 % 1038,1 hPa 0,0 l/m 2,5 km/h (1 Bft) W 262 0 min 0,0 UV-I 30 W/m 4,1 C 5,1 C 6,4 km/h (2 Bft)
11.02.2023 16:30 5,1 C 5,0 C 93 % 1038,1 hPa 0,0 l/m 3,0 km/h (1 Bft) W 267 0 min 0,0 UV-I 27 W/m 4,1 C 5,1 C 9,7 km/h (2 Bft)
11.02.2023 16:33 5,1 C 5,0 C 93 % 1038,1 hPa 0,0 l/m 3,3 km/h (1 Bft) W 276 0 min 0,0 UV-I 27 W/m 4,1 C 5,1 C 6,4 km/h (2 Bft)
11.02.2023 16:39 5,1 C 5,0 C 93 % 1038,0 hPa 0,0 l/m 1,0 km/h (0 Bft) W 274 0 min 0,0 UV-I 27 W/m 4,1 C 5,1 C 6,4 km/h (2 Bft)
11.02.2023 16:42 5,1 C 5,0 C 93 % 1038,1 hPa 0,0 l/m 3,2 km/h (1 Bft) W 263 0 min 0,0 UV-I 25 W/m 4,1 C 5,1 C 6,4 km/h (2 Bft)
11.02.2023 16:45 5,1 C 5,0 C 93 % 1038,1 hPa 0,0 l/m 3,3 km/h (1 Bft) W 260 0 min 0,0 UV-I 22 W/m 4,1 C 5,1 C 6,4 km/h (2 Bft)
11.02.2023 16:48 5,0 C 5,0 C 93 % 1038,1 hPa 0,0 l/m 2,1 km/h (1 Bft) W 259 0 min 0,0 UV-I 21 W/m 4,0 C 5,0 C 4,8 km/h (1 Bft)
11.02.2023 16:51 5,0 C 5,0 C 93 % 1038,1 hPa 0,0 l/m 3,9 km/h (1 Bft) W-SW 256 0 min 0,0 UV-I 18 W/m 4,0 C 5,0 C 11,3 km/h (2 Bft)
11.02.2023 16:54 4,9 C 4,4 C 93 % 1038,2 hPa 0,0 l/m 3,7 km/h (1 Bft) W 260 0 min 0,0 UV-I 19 W/m 3,9 C 4,9 C 9,7 km/h (2 Bft)
11.02.2023 16:57 4,9 C 4,4 C 93 % 1038,1 hPa 0,0 l/m 2,5 km/h (1 Bft) W 262 0 min 0,0 UV-I 18 W/m 3,9 C 4,9 C 9,7 km/h (2 Bft)
11.02.2023 17:00 4,9 C 4,4 C 93 % 1038,2 hPa 0,0 l/m 2,4 km/h (1 Bft) W 262 0 min 0,0 UV-I 15 W/m 3,9 C 4,9 C 4,8 km/h (1 Bft)
11.02.2023 17:03 4,9 C 4,4 C 93 % 1038,1 hPa 0,0 l/m 3,1 km/h (1 Bft) W 262 0 min 0,0 UV-I 16 W/m 3,9 C 4,9 C 6,4 km/h (2 Bft)
11.02.2023 17:06 4,9 C 4,4 C 93 % 1038,2 hPa 0,0 l/m 1,0 km/h (0 Bft) W 261 0 min 0,0 UV-I 13 W/m 3,9 C 4,9 C 4,8 km/h (1 Bft)
11.02.2023 17:09 4,9 C 4,4 C 93 % 1038,1 hPa 0,0 l/m 3,8 km/h (1 Bft) W-SW 246 0 min 0,0 UV-I 11 W/m 3,9 C 4,9 C 6,4 km/h (2 Bft)
11.02.2023 17:12 4,9 C 4,4 C 93 % 1038,1 hPa 0,0 l/m 1,5 km/h (1 Bft) W-SW 246 0 min 0,0 UV-I 10 W/m 3,9 C 4,9 C 3,2 km/h (1 Bft)
11.02.2023 17:15 4,8 C 4,4 C 93 % 1038,1 hPa 0,0 l/m 2,0 km/h (1 Bft) W-SW 257 0 min 0,0 UV-I 8 W/m 3,8 C 4,8 C 8,0 km/h (2 Bft)
11.02.2023 17:18 4,8 C 4,4 C 93 % 1038,2 hPa 0,0 l/m 0,1 km/h (0 Bft) W-SW 257 0 min 0,0 UV-I 6 W/m 3,8 C 4,8 C 1,6 km/h (1 Bft)
11.02.2023 17:21 4,8 C 4,4 C 93 % 1038,3 hPa 0,0 l/m 0,1 km/h (0 Bft) W-SW 257 0 min 0,0 UV-I 5 W/m 3,8 C 4,8 C 1,6 km/h (1 Bft)
11.02.2023 17:24 4,8 C 4,4 C 93 % 1038,3 hPa 0,0 l/m 0,0 km/h (0 Bft) W-SW 257 0 min 0,0 UV-I 3 W/m 3,8 C 4,8 C 1,6 km/h (1 Bft)
11.02.2023 17:27 4,8 C 4,4 C 93 % 1038,3 hPa 0,0 l/m 0,8 km/h (0 Bft) W-SW 257 0 min 0,0 UV-I 1 W/m 3,8 C 4,8 C 4,8 km/h (1 Bft)
11.02.2023 17:30 4,8 C 4,4 C 93 % 1038,3 hPa 0,0 l/m 1,6 km/h (1 Bft) W-SW 257 0 min 0,0 UV-I 0 W/m 3,8 C 4,8 C 4,8 km/h (1 Bft)
11.02.2023 17:33 4,8 C 4,4 C 93 % 1038,2 hPa 0,0 l/m 0,8 km/h (0 Bft) W-SW 257 0 min 0,0 UV-I 0 W/m 3,8 C 4,8 C 3,2 km/h (1 Bft)
11.02.2023 17:36 4,7 C 4,4 C 93 % 1038,2 hPa 0,0 l/m 3,0 km/h (1 Bft) W 267 0 min 0,0 UV-I 0 W/m 3,7 C 4,7 C 9,7 km/h (2 Bft)
11.02.2023 17:39 4,7 C 4,4 C 93 % 1038,3 hPa 0,0 l/m 0,9 km/h (0 Bft) W 266 0 min 0,0 UV-I 0 W/m 3,7 C 4,7 C 3,2 km/h (1 Bft)
11.02.2023 17:42 4,7 C 4,4 C 93 % 1038,3 hPa 0,0 l/m 1,4 km/h (1 Bft) W 263 0 min 0,0 UV-I 0 W/m 3,7 C 4,7 C 4,8 km/h (1 Bft)
11.02.2023 17:45 4,7 C 4,4 C 93 % 1038,3 hPa 0,0 l/m 1,9 km/h (1 Bft) W 261 0 min 0,0 UV-I 0 W/m 3,7 C 4,7 C 4,8 km/h (1 Bft)
11.02.2023 17:48 4,7 C 4,4 C 93 % 1038,3 hPa 0,0 l/m 0,4 km/h (0 Bft) W 261 0 min 0,0 UV-I 0 W/m 3,7 C 4,7 C 1,6 km/h (1 Bft)
11.02.2023 17:51 4,7 C 4,4 C 93 % 1038,3 hPa 0,0 l/m 0,1 km/h (0 Bft) W 261 0 min 0,0 UV-I 0 W/m 3,7 C 4,7 C 1,6 km/h (1 Bft)
11.02.2023 17:54 4,7 C 4,4 C 93 % 1038,4 hPa 0,0 l/m 0,0 km/h (0 Bft) W 261 0 min 0,0 UV-I 0 W/m 3,7 C 4,7 C 0,0 km/h (0 Bft)
11.02.2023 17:57 4,7 C 4,4 C 93 % 1038,4 hPa 0,0 l/m 0,2 km/h (0 Bft) W 261 0 min 0,0 UV-I 0 W/m 3,7 C 4,7 C 1,6 km/h (1 Bft)
11.02.2023 18:00 4,6 C 4,4 C 93 % 1038,5 hPa 0,0 l/m 0,1 km/h (0 Bft) W 261 0 min 0,0 UV-I 0 W/m 3,6 C 4,6 C 1,6 km/h (1 Bft)
11.02.2023 18:03 4,6 C 3,9 C 93 % 1038,5 hPa 0,0 l/m 0,0 km/h (0 Bft) W 261 0 min 0,0 UV-I 0 W/m 3,6 C 4,6 C 1,6 km/h (1 Bft)
11.02.2023 18:06 4,6 C 3,9 C 93 % 1038,5 hPa 0,0 l/m 0,0 km/h (0 Bft) W 261 0 min 0,0 UV-I 0 W/m 3,6 C 4,6 C 0,0 km/h (0 Bft)
11.02.2023 18:09 4,6 C 3,9 C 93 % 1038,6 hPa 0,0 l/m 0,0 km/h (0 Bft) W 261 0 min 0,0 UV-I 0 W/m 3,6 C 4,6 C 0,0 km/h (0 Bft)
11.02.2023 18:12 4,6 C 3,9 C 93 % 1038,6 hPa 0,0 l/m 0,0 km/h (0 Bft) W 261 0 min 0,0 UV-I 0 W/m 3,6 C 4,6 C 0,0 km/h (0 Bft)
11.02.2023 18:15 4,6 C 3,9 C 93 % 1038,8 hPa 0,0 l/m 0,0 km/h (0 Bft) W 261 0 min 0,0 UV-I 0 W/m 3,6 C 4,6 C 0,0 km/h (0 Bft)
11.02.2023 18:18 4,6 C 3,9 C 93 % 1038,8 hPa 0,0 l/m 0,0 km/h (0 Bft) W 261 0 min 0,0 UV-I 0 W/m 3,6 C 4,6 C 0,0 km/h (0 Bft)
11.02.2023 18:21 4,6 C 3,9 C 93 % 1038,9 hPa 0,0 l/m 0,0 km/h (0 Bft) W 261 0 min 0,0 UV-I 0 W/m 3,6 C 4,6 C 0,0 km/h (0 Bft)
11.02.2023 18:24 4,6 C 3,9 C 93 % 1038,9 hPa 0,0 l/m 0,0 km/h (0 Bft) W 261 0 min 0,0 UV-I 0 W/m 3,6 C 4,6 C 0,0 km/h (0 Bft)
11.02.2023 18:27 4,4 C 3,9 C 93 % 1039,0 hPa 0,0 l/m 0,0 km/h (0 Bft) W 261 0 min 0,0 UV-I 0 W/m 3,4 C 4,4 C 0,0 km/h (0 Bft)
11.02.2023 18:30 4,5 C 3,9 C 93 % 1039,0 hPa 0,0 l/m 0,0 km/h (0 Bft) W 261 0 min 0,0 UV-I 0 W/m 3,5 C 4,5 C 0,0 km/h (0 Bft)
11.02.2023 18:33 4,4 C 3,9 C 93 % 1039,0 hPa 0,0 l/m 0,0 km/h (0 Bft) W 261 0 min 0,0 UV-I 0 W/m 3,4 C 4,4 C 0,0 km/h (0 Bft)
11.02.2023 18:36 4,5 C 3,9 C 93 % 1039,1 hPa 0,0 l/m 0,0 km/h (0 Bft) W 261 0 min 0,0 UV-I 0 W/m 3,5 C 4,5 C 0,0 km/h (0 Bft)
11.02.2023 18:39 4,5 C 3,9 C 93 % 1039,1 hPa 0,0 l/m 0,0 km/h (0 Bft) W 261 0 min 0,0 UV-I 0 W/m 3,5 C 4,5 C 0,0 km/h (0 Bft)
11.02.2023 18:42 4,5 C 3,9 C 93 % 1039,0 hPa 0,0 l/m 0,0 km/h (0 Bft) W 261 0 min 0,0 UV-I 0 W/m 3,5 C 4,5 C 0,0 km/h (0 Bft)
11.02.2023 18:45 4,4 C 3,9 C 93 % 1039,1 hPa 0,0 l/m 0,0 km/h (0 Bft) W 261 0 min 0,0 UV-I 0 W/m 3,4 C 4,4 C 0,0 km/h (0 Bft)
11.02.2023 18:48 4,4 C 3,9 C 93 % 1039,1 hPa 0,0 l/m 0,0 km/h (0 Bft) W 261 0 min 0,0 UV-I 0 W/m 3,4 C 4,4 C 0,0 km/h (0 Bft)
11.02.2023 18:51 4,4 C 3,9 C 93 % 1039,1 hPa 0,0 l/m 0,0 km/h (0 Bft) W 261 0 min 0,0 UV-I 0 W/m 3,4 C 4,4 C 0,0 km/h (0 Bft)
11.02.2023 18:54 4,4 C 3,9 C 93 % 1039,3 hPa 0,0 l/m 0,2 km/h (0 Bft) W 261 0 min 0,0 UV-I 0 W/m 3,4 C 4,4 C 1,6 km/h (1 Bft)
11.02.2023 18:57 4,4 C 3,9 C 93 % 1039,2 hPa 0,0 l/m 0,0 km/h (0 Bft) W 261 0 min 0,0 UV-I 0 W/m 3,4 C 4,4 C 0,0 km/h (0 Bft)
11.02.2023 19:00 4,4 C 3,9 C 93 % 1039,1 hPa 0,0 l/m 0,6 km/h (0 Bft) W 261 0 min 0,0 UV-I 0 W/m 3,4 C 4,4 C 3,2 km/h (1 Bft)
11.02.2023 19:03 4,4 C 3,9 C 93 % 1039,1 hPa 0,0 l/m 0,9 km/h (0 Bft) W 261 0 min 0,0 UV-I 0 W/m 3,4 C 4,4 C 3,2 km/h (1 Bft)
11.02.2023 19:06 4,3 C 3,9 C 93 % 1039,2 hPa 0,0 l/m 0,0 km/h (0 Bft) W 261 0 min 0,0 UV-I 0 W/m 3,3 C 4,3 C 0,0 km/h (0 Bft)
11.02.2023 19:09 4,3 C 3,9 C 93 % 1039,3 hPa 0,0 l/m 0,0 km/h (0 Bft) W 261 0 min 0,0 UV-I 0 W/m 3,3 C 4,3 C 1,6 km/h (1 Bft)
11.02.2023 19:12 4,3 C 3,9 C 93 % 1039,2 hPa 0,0 l/m 0,4 km/h (0 Bft) W 261 0 min 0,0 UV-I 0 W/m 3,3 C 4,3 C 3,2 km/h (1 Bft)
11.02.2023 19:15 4,3 C 3,9 C 93 % 1039,2 hPa 0,0 l/m 0,2 km/h (0 Bft) W 261 0 min 0,0 UV-I 0 W/m 3,3 C 4,3 C 1,6 km/h (1 Bft)
11.02.2023 19:18 4,3 C 3,9 C 93 % 1039,2 hPa 0,0 l/m 0,0 km/h (0 Bft) W 261 0 min 0,0 UV-I 0 W/m 3,3 C 4,3 C 0,0 km/h (0 Bft)
11.02.2023 19:21 4,3 C 3,9 C 93 % 1039,3 hPa 0,0 l/m 0,0 km/h (0 Bft) W 261 0 min 0,0 UV-I 0 W/m 3,3 C 4,3 C 0,0 km/h (0 Bft)
11.02.2023 19:24 4,2 C 3,9 C 93 % 1039,2 hPa 0,0 l/m 0,0 km/h (0 Bft) W 261 0 min 0,0 UV-I 0 W/m 3,2 C 4,2 C 0,0 km/h (0 Bft)
11.02.2023 19:27 4,2 C 3,3 C 93 % 1039,2 hPa 0,0 l/m 0,0 km/h (0 Bft) W 261 0 min 0,0 UV-I 0 W/m 3,2 C 4,2 C 0,0 km/h (0 Bft)
11.02.2023 19:30 4,1 C 3,3 C 93 % 1039,2 hPa 0,0 l/m 0,0 km/h (0 Bft) W 261 0 min 0,0 UV-I 0 W/m 3,1 C 4,1 C 0,0 km/h (0 Bft)
11.02.2023 19:33 4,0 C 3,3 C 93 % 1039,5 hPa 0,0 l/m 0,0 km/h (0 Bft) W 261 0 min 0,0 UV-I 0 W/m 3,0 C 4,0 C 0,0 km/h (0 Bft)
11.02.2023 19:36 3,9 C 3,3 C 93 % 1039,5 hPa 0,0 l/m 0,0 km/h (0 Bft) W 261 0 min 0,0 UV-I 0 W/m 2,9 C 3,9 C 0,0 km/h (0 Bft)
11.02.2023 19:39 3,9 C 3,3 C 93 % 1039,5 hPa 0,0 l/m 0,0 km/h (0 Bft) W 261 0 min 0,0 UV-I 0 W/m 2,9 C 3,9 C 0,0 km/h (0 Bft)
11.02.2023 19:42 4,0 C 3,3 C 94 % 1039,6 hPa 0,0 l/m 0,0 km/h (0 Bft) W 261 0 min 0,0 UV-I 0 W/m 3,1 C 4,0 C 0,0 km/h (0 Bft)
11.02.2023 19:45 4,0 C 3,3 C 94 % 1039,6 hPa 0,0 l/m 0,0 km/h (0 Bft) W 261 0 min 0,0 UV-I 0 W/m 3,1 C 4,0 C 0,0 km/h (0 Bft)
11.02.2023 19:48 4,0 C 3,3 C 93 % 1039,4 hPa 0,0 l/m 0,0 km/h (0 Bft) W 261 0 min 0,0 UV-I 0 W/m 3,0 C 4,0 C 0,0 km/h (0 Bft)
11.02.2023 19:51 4,1 C 3,3 C 93 % 1039,5 hPa 0,0 l/m 0,0 km/h (0 Bft) W 261 0 min 0,0 UV-I 0 W/m 3,1 C 4,1 C 0,0 km/h (0 Bft)
11.02.2023 19:54 4,1 C 3,3 C 93 % 1039,5 hPa 0,0 l/m 1,0 km/h (0 Bft) W 261 0 min 0,0 UV-I 0 W/m 3,1 C 4,1 C 3,2 km/h (1 Bft)
11.02.2023 19:57 4,0 C 3,3 C 93 % 1039,4 hPa 0,0 l/m 4,0 km/h (1 Bft) W-SW 252 0 min 0,0 UV-I 0 W/m 3,0 C 4,0 C 6,4 km/h (2 Bft)
11.02.2023 20:00 3,9 C 3,3 C 93 % 1039,4 hPa 0,0 l/m 3,3 km/h (1 Bft) W-SW 252 0 min 0,0 UV-I 0 W/m 2,9 C 3,9 C 4,8 km/h (1 Bft)
11.02.2023 20:03 4,1 C 3,3 C 93 % 1039,4 hPa 0,0 l/m 2,5 km/h (1 Bft) W-SW 248 0 min 0,0 UV-I 0 W/m 3,1 C 4,1 C 6,4 km/h (2 Bft)
11.02.2023 20:06 4,1 C 3,3 C 94 % 1039,5 hPa 0,0 l/m 2,1 km/h (1 Bft) W-NW 292 0 min 0,0 UV-I 0 W/m 3,2 C 4,1 C 6,4 km/h (2 Bft)
11.02.2023 20:09 4,0 C 3,3 C 93 % 1039,6 hPa 0,0 l/m 0,5 km/h (0 Bft) W-NW 292 0 min 0,0 UV-I 0 W/m 3,0 C 4,0 C 1,6 km/h (1 Bft)
11.02.2023 20:12 3,9 C 3,3 C 93 % 1039,6 hPa 0,0 l/m 0,0 km/h (0 Bft) W-NW 292 0 min 0,0 UV-I 0 W/m 2,9 C 3,9 C 0,0 km/h (0 Bft)
11.02.2023 20:15 3,9 C 3,3 C 94 % 1039,5 hPa 0,0 l/m 0,0 km/h (0 Bft) W-NW 292 0 min 0,0 UV-I 0 W/m 3,0 C 3,9 C 0,0 km/h (0 Bft)
11.02.2023 20:18 3,9 C 3,3 C 94 % 1039,5 hPa 0,0 l/m 0,0 km/h (0 Bft) W-NW 292 0 min 0,0 UV-I 0 W/m 3,0 C 3,9 C 0,0 km/h (0 Bft)
11.02.2023 20:19 3,8 C 3,3 C 94 % 1039,6 hPa 0,0 l/m 0,0 km/h (0 Bft) N 0 0 min 0,0 UV-I 0 W/m 2,9 C 3,8 C 0,0 km/h (0 Bft)
11.02.2023 20:20 3,9 C 3,3 C 94 % 1039,5 hPa 0,0 l/m 0,0 km/h (0 Bft) N 0 0 min 0,0 UV-I 0 W/m 3,0 C 3,9 C 0,0 km/h (0 Bft)
11.02.2023 20:21 3,8 C 3,3 C 94 % 1039,5 hPa 0,0 l/m 0,0 km/h (0 Bft) N 0 0 min 0,0 UV-I 0 W/m 2,9 C 3,8 C 0,0 km/h (0 Bft)
11.02.2023 20:22 3,9 C 3,3 C 93 % 1039,5 hPa 0,0 l/m 0,0 km/h (0 Bft) N 0 0 min 0,0 UV-I 0 W/m 2,9 C 3,9 C 0,0 km/h (0 Bft)
11.02.2023 20:23 3,9 C 3,3 C 93 % 1039,6 hPa 0,0 l/m 0,0 km/h (0 Bft) N 0 0 min 0,0 UV-I 0 W/m 2,9 C 3,9 C 0,0 km/h (0 Bft)
11.02.2023 20:24 3,9 C 3,3 C 93 % 1039,6 hPa 0,0 l/m 0,0 km/h (0 Bft) N 0 0 min 0,0 UV-I 0 W/m 2,9 C 3,9 C 0,0 km/h (0 Bft)
11.02.2023 20:25 3,8 C 3,3 C 93 % 1039,6 hPa 0,0 l/m 0,0 km/h (0 Bft) N 0 0 min 0,0 UV-I 0 W/m 2,8 C 3,8 C 0,0 km/h (0 Bft)
11.02.2023 20:26 3,8 C 3,3 C 94 % 1039,6 hPa 0,0 l/m 0,0 km/h (0 Bft) W-NW 292 0 min 0,0 UV-I 0 W/m 2,9 C 3,8 C 1,6 km/h (1 Bft)
11.02.2023 20:27 3,8 C 3,3 C 94 % 1039,6 hPa 0,0 l/m 0,0 km/h (0 Bft) W-NW 292 0 min 0,0 UV-I 0 W/m 2,9 C 3,8 C 1,6 km/h (1 Bft)
11.02.2023 20:28 3,8 C 3,3 C 93 % 1039,7 hPa 0,0 l/m 1,6 km/h (1 Bft) W-NW 292 0 min 0,0 UV-I 0 W/m 2,8 C 3,8 C 3,2 km/h (1 Bft)
11.02.2023 20:29 3,8 C 3,3 C 93 % 1039,6 hPa 0,0 l/m 0,0 km/h (0 Bft) W-NW 292 0 min 0,0 UV-I 0 W/m 2,8 C 3,8 C 1,6 km/h (1 Bft)
11.02.2023 20:30 3,9 C 3,3 C 93 % 1039,7 hPa 0,0 l/m 0,0 km/h (0 Bft) W-NW 292 0 min 0,0 UV-I 0 W/m 2,9 C 3,9 C 1,6 km/h (1 Bft)
11.02.2023 20:31 3,9 C 3,3 C 93 % 1039,6 hPa 0,0 l/m 0,0 km/h (0 Bft) N 0 0 min 0,0 UV-I 0 W/m 2,9 C 3,9 C 0,0 km/h (0 Bft)
11.02.2023 20:32 3,9 C 3,3 C 93 % 1039,7 hPa 0,0 l/m 0,0 km/h (0 Bft) N 0 0 min 0,0 UV-I 0 W/m 2,9 C 3,9 C 0,0 km/h (0 Bft)
11.02.2023 20:33 3,9 C 3,3 C 94 % 1039,7 hPa 0,0 l/m 0,0 km/h (0 Bft) W-NW 292 0 min 0,0 UV-I 0 W/m 3,0 C 3,9 C 1,6 km/h (1 Bft)
11.02.2023 20:34 3,9 C 3,3 C 94 % 1039,6 hPa 0,0 l/m 0,0 km/h (0 Bft) W-NW 292 0 min 0,0 UV-I 0 W/m 3,0 C 3,9 C 1,6 km/h (1 Bft)
11.02.2023 20:35 3,9 C 3,3 C 94 % 1039,7 hPa 0,0 l/m 0,0 km/h (0 Bft) N 0 0 min 0,0 UV-I 0 W/m 3,0 C 3,9 C 0,0 km/h (0 Bft)
11.02.2023 20:36 3,9 C 3,3 C 94 % 1039,7 hPa 0,0 l/m 0,0 km/h (0 Bft) W-NW 292 0 min 0,0 UV-I 0 W/m 3,0 C 3,9 C 1,6 km/h (1 Bft)
11.02.2023 20:37 3,9 C 3,3 C 94 % 1039,6 hPa 0,0 l/m 3,2 km/h (1 Bft) W-NW 292 0 min 0,0 UV-I 0 W/m 3,0 C 3,9 C 4,8 km/h (1 Bft)
11.02.2023 20:38 3,9 C 3,3 C 94 % 1039,6 hPa 0,0 l/m 6,4 km/h (2 Bft) W-SW 247 0 min 0,0 UV-I 0 W/m 3,0 C 3,9 C 6,4 km/h (2 Bft)
11.02.2023 20:39 4,1 C 3,3 C 94 % 1039,6 hPa 0,0 l/m 4,8 km/h (1 Bft) W-SW 247 0 min 0,0 UV-I 0 W/m 3,2 C 4,1 C 6,4 km/h (2 Bft)
11.02.2023 20:40 4,1 C 3,3 C 94 % 1039,6 hPa 0,0 l/m 3,2 km/h (1 Bft) W-SW 247 0 min 0,0 UV-I 0 W/m 3,2 C 4,1 C 4,8 km/h (1 Bft)
11.02.2023 20:41 4,1 C 3,3 C 94 % 1039,6 hPa 0,0 l/m 0,0 km/h (0 Bft) W-SW 247 0 min 0,0 UV-I 0 W/m 3,2 C 4,1 C 3,2 km/h (1 Bft)
11.02.2023 20:42 4,1 C 3,3 C 94 % 1039,6 hPa 0,0 l/m 1,6 km/h (1 Bft) W-SW 247 0 min 0,0 UV-I 0 W/m 3,2 C 4,1 C 3,2 km/h (1 Bft)
11.02.2023 20:43 4,0 C 3,3 C 94 % 1039,6 hPa 0,0 l/m 0,0 km/h (0 Bft) W-SW 247 0 min 0,0 UV-I 0 W/m 3,1 C 4,0 C 1,6 km/h (1 Bft)
11.02.2023 20:44 4,0 C 3,3 C 94 % 1039,6 hPa 0,0 l/m 0,0 km/h (0 Bft) W-SW 247 0 min 0,0 UV-I 0 W/m 3,1 C 4,0 C 1,6 km/h (1 Bft)
11.02.2023 20:45 3,9 C 3,3 C 94 % 1039,7 hPa 0,0 l/m 3,2 km/h (1 Bft) W-SW 247 0 min 0,0 UV-I 0 W/m 3,0 C 3,9 C 3,2 km/h (1 Bft)
11.02.2023 20:46 3,9 C 3,3 C 94 % 1039,5 hPa 0,0 l/m 1,6 km/h (1 Bft) W-SW 247 0 min 0,0 UV-I 0 W/m 3,0 C 3,9 C 3,2 km/h (1 Bft)
11.02.2023 20:47 3,8 C 3,3 C 94 % 1039,5 hPa 0,0 l/m 1,6 km/h (1 Bft) W-SW 247 0 min 0,0 UV-I 0 W/m 2,9 C 3,8 C 4,8 km/h (1 Bft)
11.02.2023 20:48 3,8 C 3,3 C 93 % 1039,6 hPa 0,0 l/m 1,6 km/h (1 Bft) W-SW 247 0 min 0,0 UV-I 0 W/m 2,8 C 3,8 C 3,2 km/h (1 Bft)
11.02.2023 20:49 3,9 C 3,3 C 93 % 1039,6 hPa 0,0 l/m 1,6 km/h (1 Bft) W-SW 247 0 min 0,0 UV-I 0 W/m 2,9 C 3,9 C 3,2 km/h (1 Bft)
11.02.2023 20:50 3,8 C 3,3 C 94 % 1039,6 hPa 0,0 l/m 1,6 km/h (1 Bft) W-SW 247 0 min 0,0 UV-I 0 W/m 2,9 C 3,8 C 3,2 km/h (1 Bft)
11.02.2023 20:51 3,8 C 3,3 C 93 % 1039,5 hPa 0,0 l/m 3,2 km/h (1 Bft) W-SW 247 0 min 0,0 UV-I 0 W/m 2,8 C 3,8 C 4,8 km/h (1 Bft)
11.02.2023 20:52 3,8 C 3,3 C 94 % 1039,5 hPa 0,0 l/m 4,8 km/h (1 Bft) W-SW 247 0 min 0,0 UV-I 0 W/m 2,9 C 3,8 C 6,4 km/h (2 Bft)
11.02.2023 20:53 3,9 C 3,3 C 94 % 1039,5 hPa 0,0 l/m 3,2 km/h (1 Bft) W-SW 247 0 min 0,0 UV-I 0 W/m 3,0 C 3,9 C 4,8 km/h (1 Bft)
11.02.2023 20:54 3,9 C 3,3 C 94 % 1039,5 hPa 0,0 l/m 3,2 km/h (1 Bft) W-SW 247 0 min 0,0 UV-I 0 W/m 3,0 C 3,9 C 6,4 km/h (2 Bft)
11.02.2023 20:55 4,0 C 3,3 C 94 % 1039,6 hPa 0,0 l/m 3,2 km/h (1 Bft) W-SW 247 0 min 0,0 UV-I 0 W/m 3,1 C 4,0 C 4,8 km/h (1 Bft)
11.02.2023 20:56 4,0 C 3,3 C 94 % 1039,6 hPa 0,0 l/m 3,2 km/h (1 Bft) W-SW 247 0 min 0,0 UV-I 0 W/m 3,1 C 4,0 C 4,8 km/h (1 Bft)
11.02.2023 20:57 4,1 C 3,3 C 94 % 1039,6 hPa 0,0 l/m 1,6 km/h (1 Bft) W-SW 247 0 min 0,0 UV-I 0 W/m 3,2 C 4,1 C 3,2 km/h (1 Bft)
11.02.2023 20:58 4,1 C 3,9 C 94 % 1039,6 hPa 0,0 l/m 4,8 km/h (1 Bft) W-SW 247 0 min 0,0 UV-I 0 W/m 3,2 C 4,1 C 4,8 km/h (1 Bft)
11.02.2023 20:59 4,1 C 3,9 C 94 % 1039,5 hPa 0,0 l/m 3,2 km/h (1 Bft) W-SW 247 0 min 0,0 UV-I 0 W/m 3,2 C 4,1 C 4,8 km/h (1 Bft)
11.02.2023 21:00 4,1 C 3,9 C 94 % 1039,6 hPa 0,0 l/m 1,6 km/h (1 Bft) W-SW 247 0 min 0,0 UV-I 0 W/m 3,2 C 4,1 C 4,8 km/h (1 Bft)
11.02.2023 21:01 4,1 C 3,9 C 94 % 1039,6 hPa 0,0 l/m 0,0 km/h (0 Bft) W-SW 247 0 min 0,0 UV-I 0 W/m 3,2 C 4,1 C 1,6 km/h (1 Bft)
11.02.2023 21:02 4,1 C 3,9 C 94 % 1039,7 hPa 0,0 l/m 0,0 km/h (0 Bft) N 0 0 min 0,0 UV-I 0 W/m 3,2 C 4,1 C 0,0 km/h (0 Bft)
11.02.2023 21:03 4,1 C 3,3 C 94 % 1039,6 hPa 0,0 l/m 0,0 km/h (0 Bft) N 0 0 min 0,0 UV-I 0 W/m 3,2 C 4,1 C 0,0 km/h (0 Bft)
11.02.2023 21:04 4,1 C 3,3 C 94 % 1039,6 hPa 0,0 l/m 0,0 km/h (0 Bft) N 0 0 min 0,0 UV-I 0 W/m 3,2 C 4,1 C 0,0 km/h (0 Bft)
11.02.2023 21:05 4,0 C 3,3 C 94 % 1039,6 hPa 0,0 l/m 0,0 km/h (0 Bft) N 0 0 min 0,0 UV-I 0 W/m 3,1 C 4,0 C 0,0 km/h (0 Bft)
11.02.2023 21:06 4,0 C 3,3 C 94 % 1039,6 hPa 0,0 l/m 0,0 km/h (0 Bft) N 0 0 min 0,0 UV-I 0 W/m 3,1 C 4,0 C 0,0 km/h (0 Bft)
11.02.2023 21:07 4,0 C 3,3 C 94 % 1039,6 hPa 0,0 l/m 0,0 km/h (0 Bft) N 0 0 min 0,0 UV-I 0 W/m 3,1 C 4,0 C 0,0 km/h (0 Bft)
11.02.2023 21:08 3,9 C 3,3 C 94 % 1039,7 hPa 0,0 l/m 0,0 km/h (0 Bft) N 0 0 min 0,0 UV-I 0 W/m 3,0 C 3,9 C 0,0 km/h (0 Bft)
11.02.2023 21:09 3,9 C 3,3 C 94 % 1039,7 hPa 0,0 l/m 0,0 km/h (0 Bft) N 0 0 min 0,0 UV-I 0 W/m 3,0 C 3,9 C 0,0 km/h (0 Bft)
11.02.2023 21:10 3,9 C 3,3 C 94 % 1039,7 hPa 0,0 l/m 0,0 km/h (0 Bft) N 0 0 min 0,0 UV-I 0 W/m 3,0 C 3,9 C 0,0 km/h (0 Bft)
11.02.2023 21:11 3,9 C 3,3 C 94 % 1039,6 hPa 0,0 l/m 0,0 km/h (0 Bft) N 0 0 min 0,0 UV-I 0 W/m 3,0 C 3,9 C 0,0 km/h (0 Bft)
11.02.2023 21:12 3,9 C 3,3 C 94 % 1039,6 hPa 0,0 l/m 0,0 km/h (0 Bft) N 0 0 min 0,0 UV-I 0 W/m 3,0 C 3,9 C 0,0 km/h (0 Bft)
11.02.2023 21:13 3,9 C 3,3 C 94 % 1039,7 hPa 0,0 l/m 0,0 km/h (0 Bft) N 0 0 min 0,0 UV-I 0 W/m 3,0 C 3,9 C 0,0 km/h (0 Bft)
11.02.2023 21:14 3,9 C 3,3 C 93 % 1039,7 hPa 0,0 l/m 0,0 km/h (0 Bft) N 0 0 min 0,0 UV-I 0 W/m 2,9 C 3,9 C 0,0 km/h (0 Bft)
11.02.2023 21:15 3,8 C 3,3 C 93 % 1039,6 hPa 0,0 l/m 0,0 km/h (0 Bft) N 0 0 min 0,0 UV-I 0 W/m 2,8 C 3,8 C 0,0 km/h (0 Bft)
11.02.2023 21:16 3,8 C 3,3 C 93 % 1039,6 hPa 0,0 l/m 0,0 km/h (0 Bft) N 0 0 min 0,0 UV-I 0 W/m 2,8 C 3,8 C 0,0 km/h (0 Bft)
11.02.2023 21:17 3,8 C 3,3 C 93 % 1039,7 hPa 0,0 l/m 0,0 km/h (0 Bft) N 0 0 min 0,0 UV-I 0 W/m 2,8 C 3,8 C 0,0 km/h (0 Bft)
11.02.2023 21:18 3,8 C 3,3 C 93 % 1039,7 hPa 0,0 l/m 0,0 km/h (0 Bft) N 0 0 min 0,0 UV-I 0 W/m 2,8 C 3,8 C 0,0 km/h (0 Bft)
11.02.2023 21:19 3,8 C 3,3 C 93 % 1039,6 hPa 0,0 l/m 0,0 km/h (0 Bft) N 0 0 min 0,0 UV-I 0 W/m 2,8 C 3,8 C 0,0 km/h (0 Bft)
11.02.2023 21:20 3,8 C 3,3 C 94 % 1039,6 hPa 0,0 l/m 0,0 km/h (0 Bft) N 0 0 min 0,0 UV-I 0 W/m 2,9 C 3,8 C 0,0 km/h (0 Bft)
11.02.2023 21:21 3,8 C 3,3 C 94 % 1039,6 hPa 0,0 l/m 0,0 km/h (0 Bft) N 0 0 min 0,0 UV-I 0 W/m 2,9 C 3,8 C 0,0 km/h (0 Bft)
11.02.2023 21:22 3,8 C 3,3 C 94 % 1039,5 hPa 0,0 l/m 0,0 km/h (0 Bft) N 0 0 min 0,0 UV-I 0 W/m 2,9 C 3,8 C 0,0 km/h (0 Bft)
11.02.2023 21:23 3,8 C 3,3 C 94 % 1039,7 hPa 0,0 l/m 0,0 km/h (0 Bft) N 0 0 min 0,0 UV-I 0 W/m 2,9 C 3,8 C 0,0 km/h (0 Bft)
11.02.2023 21:24 3,8 C 3,3 C 94 % 1039,6 hPa 0,0 l/m 0,0 km/h (0 Bft) N 0 0 min 0,0 UV-I 0 W/m 2,9 C 3,8 C 0,0 km/h (0 Bft)
11.02.2023 21:25 3,8 C 3,3 C 94 % 1039,6 hPa 0,0 l/m 0,0 km/h (0 Bft) N 0 0 min 0,0 UV-I 0 W/m 2,9 C 3,8 C 0,0 km/h (0 Bft)
11.02.2023 21:26 3,8 C 3,3 C 94 % 1039,7 hPa 0,0 l/m 0,0 km/h (0 Bft) N 0 0 min 0,0 UV-I 0 W/m 2,9 C 3,8 C 0,0 km/h (0 Bft)
11.02.2023 21:27 3,8 C 3,3 C 94 % 1039,7 hPa 0,0 l/m 0,0 km/h (0 Bft) N 0 0 min 0,0 UV-I 0 W/m 2,9 C 3,8 C 0,0 km/h (0 Bft)
11.02.2023 21:28 3,8 C 3,3 C 94 % 1039,6 hPa 0,0 l/m 0,0 km/h (0 Bft) N 0 0 min 0,0 UV-I 0 W/m 2,9 C 3,8 C 0,0 km/h (0 Bft)
11.02.2023 21:29 3,7 C 3,3 C 94 % 1039,6 hPa 0,0 l/m 0,0 km/h (0 Bft) N 0 0 min 0,0 UV-I 0 W/m 2,8 C 3,7 C 0,0 km/h (0 Bft)
11.02.2023 21:30 3,7 C 3,3 C 94 % 1039,7 hPa 0,0 l/m 0,0 km/h (0 Bft) N 0 0 min 0,0 UV-I 0 W/m 2,8 C 3,7 C 0,0 km/h (0 Bft)
11.02.2023 21:31 3,7 C 3,3 C 94 % 1039,6 hPa 0,0 l/m 0,0 km/h (0 Bft) N 0 0 min 0,0 UV-I 0 W/m 2,8 C 3,7 C 0,0 km/h (0 Bft)
11.02.2023 21:32 3,7 C 3,3 C 94 % 1039,6 hPa 0,0 l/m 0,0 km/h (0 Bft) N 0 0 min 0,0 UV-I 0 W/m 2,8 C 3,7 C 0,0 km/h (0 Bft)
11.02.2023 21:33 3,7 C 3,3 C 94 % 1039,7 hPa 0,0 l/m 0,0 km/h (0 Bft) N 0 0 min 0,0 UV-I 0 W/m 2,8 C 3,7 C 0,0 km/h (0 Bft)
11.02.2023 21:34 3,7 C 3,3 C 94 % 1039,7 hPa 0,0 l/m 0,0 km/h (0 Bft) N 0 0 min 0,0 UV-I 0 W/m 2,8 C 3,7 C 0,0 km/h (0 Bft)
11.02.2023 21:35 3,7 C 3,3 C 94 % 1039,7 hPa 0,0 l/m 0,0 km/h (0 Bft) N 0 0 min 0,0 UV-I 0 W/m 2,8 C 3,7 C 0,0 km/h (0 Bft)
11.02.2023 21:36 3,7 C 3,3 C 94 % 1039,7 hPa 0,0 l/m 0,0 km/h (0 Bft) N 0 0 min 0,0 UV-I 0 W/m 2,8 C 3,7 C 0,0 km/h (0 Bft)
11.02.2023 21:37 3,7 C 3,3 C 94 % 1039,7 hPa 0,0 l/m 0,0 km/h (0 Bft) N 0 0 min 0,0 UV-I 0 W/m 2,8 C 3,7 C 0,0 km/h (0 Bft)
11.02.2023 21:38 3,7 C 3,3 C 94 % 1039,8 hPa 0,0 l/m 0,0 km/h (0 Bft) N 0 0 min 0,0 UV-I 0 W/m 2,8 C 3,7 C 0,0 km/h (0 Bft)
11.02.2023 21:39 3,8 C 3,3 C 94 % 1039,8 hPa 0,0 l/m 0,0 km/h (0 Bft) N 0 0 min 0,0 UV-I 0 W/m 2,9 C 3,8 C 0,0 km/h (0 Bft)
11.02.2023 21:40 3,7 C 3,3 C 94 % 1039,8 hPa 0,0 l/m 0,0 km/h (0 Bft) N 0 0 min 0,0 UV-I 0 W/m 2,8 C 3,7 C 0,0 km/h (0 Bft)
11.02.2023 21:41 3,8 C 3,3 C 94 % 1039,9 hPa 0,0 l/m 0,0 km/h (0 Bft) N 0 0 min 0,0 UV-I 0 W/m 2,9 C 3,8 C 0,0 km/h (0 Bft)
11.02.2023 21:42 3,8 C 3,3 C 94 % 1039,8 hPa 0,0 l/m 0,0 km/h (0 Bft) N 0 0 min 0,0 UV-I 0 W/m 2,9 C 3,8 C 0,0 km/h (0 Bft)
11.02.2023 21:43 3,8 C 3,3 C 94 % 1039,9 hPa 0,0 l/m 0,0 km/h (0 Bft) N 0 0 min 0,0 UV-I 0 W/m 2,9 C 3,8 C 0,0 km/h (0 Bft)
11.02.2023 21:44 3,8 C 3,3 C 94 % 1039,9 hPa 0,0 l/m 0,0 km/h (0 Bft) N 0 0 min 0,0 UV-I 0 W/m 2,9 C 3,8 C 0,0 km/h (0 Bft)
11.02.2023 21:45 3,8 C 3,3 C 94 % 1039,7 hPa 0,0 l/m 0,0 km/h (0 Bft) N 0 0 min 0,0 UV-I 0 W/m 2,9 C 3,8 C 0,0 km/h (0 Bft)
11.02.2023 21:46 3,8 C 3,3 C 94 % 1039,9 hPa 0,0 l/m 0,0 km/h (0 Bft) N 0 0 min 0,0 UV-I 0 W/m 2,9 C 3,8 C 0,0 km/h (0 Bft)
11.02.2023 21:47 3,8 C 3,3 C 94 % 1039,9 hPa 0,0 l/m 0,0 km/h (0 Bft) N 0 0 min 0,0 UV-I 0 W/m 2,9 C 3,8 C 0,0 km/h (0 Bft)
11.02.2023 21:48 3,8 C 3,3 C 94 % 1039,8 hPa 0,0 l/m 0,0 km/h (0 Bft) N 0 0 min 0,0 UV-I 0 W/m 2,9 C 3,8 C 0,0 km/h (0 Bft)
11.02.2023 21:49 3,8 C 3,3 C 94 % 1039,9 hPa 0,0 l/m 0,0 km/h (0 Bft) N 0 0 min 0,0 UV-I 0 W/m 2,9 C 3,8 C 0,0 km/h (0 Bft)
11.02.2023 21:50 3,8 C 3,3 C 94 % 1039,9 hPa 0,0 l/m 0,0 km/h (0 Bft) N 0 0 min 0,0 UV-I 0 W/m 2,9 C 3,8 C 0,0 km/h (0 Bft)
11.02.2023 21:51 3,8 C 3,3 C 94 % 1039,8 hPa 0,0 l/m 0,0 km/h (0 Bft) N 0 0 min 0,0 UV-I 0 W/m 2,9 C 3,8 C 0,0 km/h (0 Bft)
11.02.2023 21:52 3,8 C 3,3 C 94 % 1039,8 hPa 0,0 l/m 0,0 km/h (0 Bft) N 0 0 min 0,0 UV-I 0 W/m 2,9 C 3,8 C 0,0 km/h (0 Bft)
11.02.2023 21:53 3,8 C 3,3 C 94 % 1039,9 hPa 0,0 l/m 0,0 km/h (0 Bft) N 0 0 min 0,0 UV-I 0 W/m 2,9 C 3,8 C 0,0 km/h (0 Bft)
11.02.2023 21:54 3,8 C 3,3 C 94 % 1039,9 hPa 0,0 l/m 0,0 km/h (0 Bft) N 0 0 min 0,0 UV-I 0 W/m 2,9 C 3,8 C 0,0 km/h (0 Bft)
11.02.2023 21:57 3,7 C 3,3 C 94 % 1039,9 hPa 0,0 l/m 0,0 km/h (0 Bft) W-SW 250 0 min 0,0 UV-I 0 W/m 2,8 C 3,7 C 0,0 km/h (0 Bft)
11.02.2023 22:00 3,7 C 3,3 C 94 % 1040,1 hPa 0,0 l/m 0,0 km/h (0 Bft) W-SW 250 0 min 0,0 UV-I 0 W/m 2,8 C 3,7 C 0,0 km/h (0 Bft)
11.02.2023 22:03 3,6 C 3,3 C 94 % 1039,9 hPa 0,0 l/m 0,0 km/h (0 Bft) W-SW 250 0 min 0,0 UV-I 0 W/m 2,7 C 3,6 C 0,0 km/h (0 Bft)
11.02.2023 22:06 3,6 C 2,8 C 94 % 1039,9 hPa 0,0 l/m 0,0 km/h (0 Bft) W-SW 250 0 min 0,0 UV-I 0 W/m 2,7 C 3,6 C 0,0 km/h (0 Bft)
11.02.2023 22:09 3,6 C 2,8 C 94 % 1039,9 hPa 0,0 l/m 0,0 km/h (0 Bft) W-SW 250 0 min 0,0 UV-I 0 W/m 2,7 C 3,6 C 0,0 km/h (0 Bft)
11.02.2023 22:12 3,6 C 2,8 C 94 % 1039,9 hPa 0,0 l/m 0,0 km/h (0 Bft) W-SW 250 0 min 0,0 UV-I 0 W/m 2,7 C 3,6 C 0,0 km/h (0 Bft)
11.02.2023 22:15 3,6 C 2,8 C 94 % 1039,9 hPa 0,0 l/m 0,0 km/h (0 Bft) W-SW 250 0 min 0,0 UV-I 0 W/m 2,7 C 3,6 C 0,0 km/h (0 Bft)
11.02.2023 22:18 3,6 C 2,8 C 94 % 1039,8 hPa 0,0 l/m 0,0 km/h (0 Bft) W-SW 250 0 min 0,0 UV-I 0 W/m 2,7 C 3,6 C 0,0 km/h (0 Bft)
11.02.2023 22:21 3,5 C 2,8 C 94 % 1039,9 hPa 0,0 l/m 0,0 km/h (0 Bft) W-SW 250 0 min 0,0 UV-I 0 W/m 2,6 C 3,5 C 0,0 km/h (0 Bft)
11.02.2023 22:24 3,5 C 2,8 C 94 % 1039,9 hPa 0,0 l/m 0,0 km/h (0 Bft) W-SW 250 0 min 0,0 UV-I 0 W/m 2,6 C 3,5 C 0,0 km/h (0 Bft)
11.02.2023 22:27 3,4 C 2,8 C 94 % 1040,0 hPa 0,0 l/m 0,0 km/h (0 Bft) W-SW 250 0 min 0,0 UV-I 0 W/m 2,5 C 3,4 C 1,6 km/h (1 Bft)
11.02.2023 22:30 3,4 C 2,8 C 94 % 1039,9 hPa 0,0 l/m 0,0 km/h (0 Bft) W-SW 250 0 min 0,0 UV-I 0 W/m 2,5 C 3,4 C 0,0 km/h (0 Bft)
11.02.2023 22:33 3,5 C 2,8 C 94 % 1040,1 hPa 0,0 l/m 0,0 km/h (0 Bft) W-SW 250 0 min 0,0 UV-I 0 W/m 2,6 C 3,5 C 0,0 km/h (0 Bft)
11.02.2023 22:36 3,4 C 2,8 C 94 % 1040,1 hPa 0,0 l/m 0,0 km/h (0 Bft) W-SW 250 0 min 0,0 UV-I 0 W/m 2,5 C 3,4 C 0,0 km/h (0 Bft)
11.02.2023 22:39 3,4 C 2,8 C 94 % 1040,1 hPa 0,0 l/m 0,0 km/h (0 Bft) W-SW 250 0 min 0,0 UV-I 0 W/m 2,5 C 3,4 C 0,0 km/h (0 Bft)
11.02.2023 22:42 3,4 C 2,8 C 94 % 1040,1 hPa 0,0 l/m 0,0 km/h (0 Bft) W-SW 250 0 min 0,0 UV-I 0 W/m 2,5 C 3,4 C 0,0 km/h (0 Bft)
11.02.2023 22:45 3,4 C 2,8 C 94 % 1040,1 hPa 0,0 l/m 0,0 km/h (0 Bft) W-SW 250 0 min 0,0 UV-I 0 W/m 2,5 C 3,4 C 0,0 km/h (0 Bft)
11.02.2023 22:48 3,4 C 2,8 C 94 % 1040,1 hPa 0,0 l/m 0,0 km/h (0 Bft) W-SW 250 0 min 0,0 UV-I 0 W/m 2,5 C 3,4 C 0,0 km/h (0 Bft)
11.02.2023 22:51 3,4 C 2,8 C 94 % 1040,2 hPa 0,0 l/m 0,0 km/h (0 Bft) W-SW 250 0 min 0,0 UV-I 0 W/m 2,5 C 3,4 C 0,0 km/h (0 Bft)
11.02.2023 22:54 3,4 C 2,8 C 94 % 1040,1 hPa 0,0 l/m 0,0 km/h (0 Bft) W-SW 250 0 min 0,0 UV-I 0 W/m 2,5 C 3,4 C 0,0 km/h (0 Bft)
11.02.2023 22:57 3,4 C 2,8 C 94 % 1040,1 hPa 0,0 l/m 0,0 km/h (0 Bft) W-SW 250 0 min 0,0 UV-I 0 W/m 2,5 C 3,4 C 0,0 km/h (0 Bft)
11.02.2023 23:00 3,4 C 2,8 C 94 % 1040,0 hPa 0,0 l/m 0,0 km/h (0 Bft) W-SW 250 0 min 0,0 UV-I 0 W/m 2,5 C 3,4 C 0,0 km/h (0 Bft)
11.02.2023 23:03 3,4 C 2,8 C 94 % 1040,0 hPa 0,0 l/m 0,0 km/h (0 Bft) W-SW 250 0 min 0,0 UV-I 0 W/m 2,5 C 3,4 C 0,0 km/h (0 Bft)
11.02.2023 23:06 3,4 C 2,8 C 94 % 1040,0 hPa 0,0 l/m 0,0 km/h (0 Bft) W-SW 250 0 min 0,0 UV-I 0 W/m 2,5 C 3,4 C 0,0 km/h (0 Bft)
11.02.2023 23:09 3,4 C 2,8 C 94 % 1040,1 hPa 0,0 l/m 0,0 km/h (0 Bft) W-SW 250 0 min 0,0 UV-I 0 W/m 2,5 C 3,4 C 0,0 km/h (0 Bft)
11.02.2023 23:12 3,3 C 2,8 C 94 % 1040,1 hPa 0,0 l/m 0,0 km/h (0 Bft) W-SW 250 0 min 0,0 UV-I 0 W/m 2,4 C 3,3 C 0,0 km/h (0 Bft)
11.02.2023 23:15 3,4 C 2,8 C 94 % 1039,9 hPa 0,0 l/m 0,0 km/h (0 Bft) W-SW 250 0 min 0,0 UV-I 0 W/m 2,5 C 3,4 C 0,0 km/h (0 Bft)
11.02.2023 23:18 3,4 C 2,8 C 94 % 1040,0 hPa 0,0 l/m 0,0 km/h (0 Bft) W-SW 250 0 min 0,0 UV-I 0 W/m 2,5 C 3,4 C 0,0 km/h (0 Bft)
11.02.2023 23:24 3,3 C 2,8 C 94 % 1040,1 hPa 0,0 l/m 0,0 km/h (0 Bft) W-SW 250 0 min 0,0 UV-I 0 W/m 2,4 C 3,3 C 0,0 km/h (0 Bft)
11.02.2023 23:27 3,2 C 2,8 C 94 % 1040,1 hPa 0,0 l/m 0,0 km/h (0 Bft) W-SW 250 0 min 0,0 UV-I 0 W/m 2,3 C 3,2 C 0,0 km/h (0 Bft)
11.02.2023 23:30 3,2 C 2,8 C 94 % 1040,1 hPa 0,0 l/m 0,0 km/h (0 Bft) W-SW 250 0 min 0,0 UV-I 0 W/m 2,3 C 3,2 C 0,0 km/h (0 Bft)
11.02.2023 23:33 3,2 C 2,8 C 94 % 1040,1 hPa 0,0 l/m 0,0 km/h (0 Bft) W-SW 250 0 min 0,0 UV-I 0 W/m 2,3 C 3,2 C 0,0 km/h (0 Bft)
11.02.2023 23:36 3,2 C 2,8 C 94 % 1040,0 hPa 0,0 l/m 0,0 km/h (0 Bft) W-SW 250 0 min 0,0 UV-I 0 W/m 2,3 C 3,2 C 0,0 km/h (0 Bft)
11.02.2023 23:39 3,2 C 2,8 C 94 % 1040,0 hPa 0,0 l/m 0,0 km/h (0 Bft) W-SW 250 0 min 0,0 UV-I 0 W/m 2,3 C 3,2 C 0,0 km/h (0 Bft)
11.02.2023 23:42 3,2 C 2,8 C 94 % 1040,0 hPa 0,0 l/m 0,0 km/h (0 Bft) W-SW 250 0 min 0,0 UV-I 0 W/m 2,3 C 3,2 C 0,0 km/h (0 Bft)
11.02.2023 23:45 3,2 C 2,8 C 94 % 1040,1 hPa 0,0 l/m 0,0 km/h (0 Bft) W-SW 250 0 min 0,0 UV-I 0 W/m 2,3 C 3,2 C 0,0 km/h (0 Bft)
11.02.2023 23:48 3,2 C 2,8 C 94 % 1040,1 hPa 0,0 l/m 0,0 km/h (0 Bft) W-SW 250 0 min 0,0 UV-I 0 W/m 2,3 C 3,2 C 0,0 km/h (0 Bft)
11.02.2023 23:51 3,2 C 2,8 C 94 % 1040,0 hPa 0,0 l/m 0,0 km/h (0 Bft) W-SW 250 0 min 0,0 UV-I 0 W/m 2,3 C 3,2 C 0,0 km/h (0 Bft)
11.02.2023 23:54 3,2 C 2,8 C 94 % 1039,9 hPa 0,0 l/m 0,0 km/h (0 Bft) W-SW 250 0 min 0,0 UV-I 0 W/m 2,3 C 3,2 C 0,0 km/h (0 Bft)
11.02.2023 23:57 3,2 C 2,8 C 94 % 1040,0 hPa 0,0 l/m 0,0 km/h (0 Bft) W-SW 250 0 min 0,0 UV-I 0 W/m 2,3 C 3,2 C 0,0 km/h (0 Bft)
11.02.2023 23:58 3,2 C 2,8 C 94 % 1039,9 hPa 0,0 l/m 0,0 km/h (0 Bft) N 0 0 min 0,0 UV-I 0 W/m 2,3 C 3,2 C 0,0 km/h (0 Bft)
11.02.2023 23:59 3,2 C 2,8 C 94 % 1040,0 hPa 0,0 l/m 0,0 km/h (0 Bft) N 0 0 min 0,0 UV-I 0 W/m 2,3 C 3,2 C 0,0 km/h (0 Bft)
_ Min-Zeit 08:01 02:35 00:00 07:50 - 07:37 - - - - - 02:37 05:26 17:54
Minimum _ 1,6 C 1,1 C 87 % 1036,8 hPa - 0,0 km/h (0 Bft) - - - - - -0,1 C -4,5 C 0,0 km/h (0 Bft)
_ Max-Zeit 15:27 14:36 10:20 22:51 00:00 05:26 - - 00:00 10:29 10:32 15:21 15:21 05:27
Maximum _ 5,4 C 5,6 C 94 % 1040,2 hPa 0,0 l/m 14,5 km/h
SW (3 Bft)
- - 0 min 0,6 UV-I 128 W/m 4,4 C 5,3 C 25,7 km/h
S (4 Bft)
Durchschnitt _ 3,2 C 3,0 C 92 % 1038,3 hPa #0,0 l/m 4,6 km/h (1 Bft) S-SW - #0 min. 0,4 UV-I 63 W/m 2,0 C 2,5 C 7,5 km/h (2 Bft)